[[{"header":{"parameterUnit":"m.s-1","parameterCategory":1,"la1":30.6,"la2":29.2853,"lo1":-89.7004,"lo2":-87.6739,"dx":0.0162,"dy":0.0183,"nx":112,"ny":82,"refTime":"2023-01-20T06:00:00:Z","depth":0,"parameterNumber":2,"parameterNumberName":"U-component_of_WINDS"},"data":[0.0,0.0,0.0,0.0,0.0,0.0,0.0,0.0,0.0,0.0,0.0,0.0,0.0,0.0,0.0,0.0,0.0,0.0,0.0,0.0,0.0,0.0,0.0,0.0,0.0,0.0,0.0,0.0,0.0,0.0,0.0,0.0,0.0,0.0,0.0,0.0,0.0,0.0,0.0,0.0,0.0,0.0,0.0,0.0,0.0,0.0,0.0,0.0,0.0,0.0,0.0,0.0,0.0,0.0,0.0,0.0,0.0,0.0,0.0,0.0,0.0,0.0,0.0,0.0,0.0,0.0,0.0,0.0,0.0,0.0,0.0,0.0,0.0,0.0,0.0,0.0,0.0,0.0,0.0,0.0,0.0,0.0,0.0,0.0,0.0,0.0,0.0,0.0,0.0,0.0,1.5255,1.5242,1.5208,1.5181,1.5181,1.5181,1.5215,1.5107,0.0,0.0,0.0,0.0,0.0,0.0,0.0,0.0,0.0,0.0,0.0,0.0,0.0,0.0,0.0,0.0,0.0,0.0,0.0,0.0,0.0,0.0,0.0,0.0,0.0,0.0,0.0,0.0,0.0,0.0,0.0,0.0,0.0,0.0,0.0,0.0,0.0,0.0,0.0,0.0,0.0,0.0,0.0,0.0,0.0,0.0,0.0,0.0,0.0,0.0,0.0,0.0,0.0,0.0,0.0,0.0,0.0,0.0,0.0,0.0,0.0,0.0,0.0,0.0,0.0,0.0,0.0,0.0,0.0,0.0,0.0,0.0,0.0,0.0,0.0,0.0,0.0,0.0,0.0,0.0,0.0,0.0,0.0,0.0,0.0,0.0,0.0,0.0,0.0,0.0,0.0,0.0,0.0,0.0,0.0,0.0,0.0,0.0,0.0,0.0,0.0,0.0,0.0,0.0,1.5269,1.5201,1.5187,1.5181,1.5181,1.5181,1.5215,1.5107,0.0,0.0,0.0,0.0,0.0,0.0,0.0,0.0,0.0,0.0,0.0,0.0,0.0,0.0,0.0,0.0,0.0,0.0,0.0,0.0,0.0,0.0,0.0,0.0,0.0,0.0,0.0,0.0,0.0,0.0,0.0,0.0,0.0,0.0,0.0,0.0,0.0,0.0,0.0,0.0,0.0,0.0,0.0,0.0,0.0,0.0,0.0,0.0,0.0,0.0,0.0,0.0,0.0,0.0,0.0,0.0,0.0,0.0,0.0,0.0,0.0,0.0,0.0,0.0,0.0,0.0,0.0,0.0,0.0,0.0,0.0,0.0,0.0,0.0,0.0,0.0,0.0,0.0,0.0,0.0,0.0,0.0,0.0,0.0,0.0,0.0,0.0,0.0,0.0,0.0,0.0,0.0,0.0,0.0,0.0,0.0,0.0,0.0,0.0,0.0,0.0,0.0,0.0,1.5262,1.5255,1.5107,1.5113,1.5147,1.5227,1.5234,1.5234,1.5234,0.5545,0.0,0.0,0.0,0.0,0.0,0.0,0.0,0.0,0.0,0.0,0.0,0.0,0.0,0.0,0.0,0.0,0.0,0.0,0.0,0.0,0.0,0.0,0.0,0.0,0.0,0.0,0.0,0.0,0.0,0.0,0.0,0.0,0.0,0.0,0.0,0.0,0.0,0.0,0.0,0.0,0.0,0.0,0.0,0.0,0.0,0.0,0.0,0.0,0.0,0.0,0.0,0.0,0.0,0.0,0.0,0.0,0.0,0.0,0.0,0.0,0.0,0.0,0.0,0.0,0.0,0.0,0.0,0.0,0.0,0.0,0.0,0.0,0.0,0.0,0.0,0.0,0.0,0.0,0.0,0.0,0.0,0.0,0.0,0.0,0.0,0.0,0.0,0.0,0.0,0.0,0.0,0.0,0.0,0.0,0.0,0.0,0.0,0.0,0.0,0.0,0.0,0.0,1.5127,1.514,1.5254,1.5267,1.5321,1.5428,1.5442,1.5421,1.5375,0.5792,0.0,0.0,0.0,0.0,0.0,0.0,0.0,0.0,0.0,0.0,0.0,0.0,0.0,0.0,0.0,0.0,0.0,0.0,0.0,0.0,0.0,0.0,0.0,0.0,0.0,0.0,0.0,0.0,0.0,0.0,0.0,0.0,0.0,0.0,0.0,0.0,0.0,0.0,0.0,0.0,0.0,0.0,0.0,0.0,0.0,0.0,0.0,0.0,0.0,0.0,0.0,0.0,0.0,0.0,0.0,0.0,0.0,0.0,0.0,0.0,0.0,0.0,0.0,0.0,0.0,0.0,0.0,0.0,0.0,0.0,0.0,0.0,0.0,0.0,0.0,0.0,0.0,0.0,0.0,0.0,0.0,0.0,0.0,0.0,0.0,0.0,0.0,0.0,0.0,0.0,0.0,0.0,0.0,0.0,0.0,0.0,0.0,0.0,0.0,0.0,0.0,0.0,1.5228,1.5215,1.5222,1.5628,1.6029,1.6036,1.6043,1.605,1.6077,0.6035,0.0,0.0,0.0,0.0,0.0,0.0,0.0,0.0,0.0,0.0,0.0,0.0,0.0,0.0,0.0,0.0,0.0,0.0,0.0,0.0,0.0,0.0,0.0,0.0,0.0,0.0,0.0,0.0,0.0,0.0,0.0,0.0,0.0,0.0,0.0,0.0,0.0,0.0,0.0,0.0,0.0,0.0,0.0,0.0,0.0,0.0,0.0,0.0,0.0,0.0,0.0,0.0,0.0,0.0,0.0,0.0,0.0,0.0,0.0,0.0,0.0,0.0,0.0,0.0,0.0,0.0,0.0,0.0,0.0,0.0,0.0,0.0,0.0,0.0,0.0,0.0,0.0,0.0,0.0,0.0,0.0,0.0,0.0,0.0,0.0,0.0,0.0,0.0,0.0,0.0,0.0,0.0,0.0,0.0,0.0,0.0,0.0,0.0,0.0,0.0,0.0,0.0,1.5662,1.5676,1.5764,1.5973,1.6014,1.611,1.6117,1.6096,1.6041,0.0,0.0,0.0,0.0,0.0,0.0,0.0,0.0,0.0,0.0,0.0,0.0,0.0,0.0,0.0,0.0,0.0,0.0,0.0,0.0,0.0,0.0,0.0,0.0,0.0,0.0,0.0,0.0,0.0,0.0,0.0,0.0,0.0,0.0,0.0,0.0,0.0,0.0,0.0,0.0,0.0,0.0,0.0,0.0,0.0,0.0,0.0,0.0,0.0,0.0,0.0,0.0,0.0,0.0,0.0,0.0,0.0,0.0,0.0,0.0,0.0,0.0,0.0,0.0,0.0,0.0,0.0,0.0,0.0,0.0,0.0,0.0,0.0,0.0,0.0,0.0,0.0,0.0,0.0,0.0,0.0,0.0,0.0,0.0,0.0,0.0,0.0,0.0,0.0,0.0,0.0,0.0,0.0,0.0,0.0,0.0,0.0,0.0,0.0,0.0,0.0,0.0,1.6021,1.6196,1.6021,1.6117,1.6124,1.6165,1.6076,1.6083,1.6049,1.6179,0.0,0.0,0.0,0.0,0.0,0.0,0.0,0.0,0.0,0.0,0.0,0.0,0.0,0.0,0.0,0.0,0.0,0.0,0.0,0.0,0.0,0.0,0.0,0.0,0.0,0.0,0.0,0.0,0.0,0.0,0.0,0.0,0.0,0.0,0.0,0.0,0.0,0.0,0.0,0.0,0.0,0.0,0.0,0.0,0.0,0.0,0.0,0.0,0.0,0.0,0.0,0.0,0.0,0.0,0.0,0.0,0.0,0.0,0.0,0.0,0.0,0.0,0.0,0.0,0.0,0.0,0.0,0.0,0.0,0.0,0.0,0.0,0.0,0.0,0.0,0.0,0.0,0.0,0.0,0.0,0.0,0.0,0.0,0.0,0.0,0.0,0.0,0.0,0.0,0.0,0.0,0.0,0.0,0.0,0.0,0.0,0.0,0.0,0.0,0.0,0.0,0.0,1.609,1.609,1.609,1.609,1.609,1.609,1.609,1.609,1.609,0.0,0.0,0.0,0.0,0.0,0.0,0.0,0.0,0.0,0.0,0.0,0.0,0.0,0.0,0.0,0.0,0.0,0.0,0.0,0.0,0.0,0.0,0.0,0.0,0.0,0.0,0.0,0.0,0.0,0.0,0.0,0.0,0.0,0.0,0.0,0.0,0.0,0.0,0.0,0.0,0.0,0.0,0.0,0.0,0.0,0.0,0.0,0.0,0.0,0.0,0.0,0.0,0.0,0.0,0.0,0.0,0.0,0.0,0.0,0.0,0.0,0.0,0.0,0.0,0.0,0.0,0.0,0.0,0.0,0.0,0.0,0.0,0.0,0.0,0.0,0.0,0.0,0.0,0.0,0.0,0.0,0.0,0.0,0.0,0.0,0.0,0.0,0.0,0.0,0.0,0.0,0.0,0.0,0.0,0.0,0.0,0.0,0.0,0.0,0.0,0.0,0.0,0.0,1.6165,1.6179,1.6179,1.6179,1.6179,1.6179,1.6179,1.6179,1.6179,1.6179,0.0,0.0,0.0,0.0,0.0,0.0,0.0,0.0,0.0,0.0,0.0,0.0,0.0,0.0,0.0,0.0,0.0,0.0,0.0,0.0,0.0,0.0,0.0,0.0,0.0,0.0,0.0,0.0,0.0,0.0,0.0,0.0,0.0,0.0,0.0,0.0,0.0,0.0,0.0,0.0,0.0,0.0,0.0,0.0,0.0,0.0,0.0,0.0,0.0,0.0,0.0,0.0,0.0,0.0,0.0,0.0,0.0,0.0,0.0,0.0,0.0,0.0,0.0,0.0,0.0,0.0,0.0,0.0,0.0,0.0,0.0,0.0,0.0,0.0,0.0,0.0,0.0,0.0,0.0,0.0,0.0,0.0,0.0,0.0,0.0,0.0,0.0,0.0,0.0,0.0,0.0,0.0,0.0,0.0,0.0,0.0,0.0,0.0,0.0,0.0,0.0,0.0,1.651,1.6517,1.6517,1.6517,1.6517,1.6517,1.6517,1.6517,1.6517,1.6517,0.0,0.0,0.0,0.0,0.0,0.0,0.0,0.0,0.0,0.0,0.0,0.0,0.0,0.0,0.0,0.0,0.0,0.0,0.0,0.0,0.0,0.0,0.0,0.0,0.0,0.0,0.0,0.0,0.0,0.0,0.0,0.0,0.0,0.0,0.0,0.0,0.0,0.0,0.0,0.0,0.0,0.0,0.0,0.0,0.0,0.0,0.0,0.0,0.0,0.0,0.0,0.0,0.0,0.0,0.0,0.0,0.0,0.0,0.0,0.0,0.0,0.0,0.0,0.0,0.0,0.0,0.0,0.0,0.0,0.0,0.0,0.0,0.0,0.0,0.0,0.0,0.0,0.0,0.0,0.0,0.0,0.0,0.0,0.0,0.0,0.0,0.0,0.0,0.0,0.0,0.0,0.0,0.0,0.0,0.0,0.0,0.0,0.0,0.0,0.0,0.0,0.0,1.6988,1.6988,1.6988,1.6988,1.6988,1.6988,1.6988,1.6988,1.6988,1.6988,0.0,0.0,0.0,0.0,0.0,0.0,0.0,0.0,0.0,0.0,0.0,0.0,0.0,0.0,0.0,0.0,0.0,0.0,0.0,0.0,0.0,0.0,0.0,0.0,0.0,0.0,0.0,0.0,0.0,0.0,0.0,0.0,0.0,0.0,0.0,0.0,0.0,0.0,0.0,0.0,0.0,0.0,0.0,0.0,0.0,0.0,0.0,0.0,0.0,0.0,0.0,0.0,0.0,0.0,0.0,0.0,0.0,0.0,0.0,0.0,2.8258,0.0,0.0,0.0,0.0,0.0,0.0,0.0,0.0,0.0,0.0,0.0,0.0,0.0,0.0,0.0,0.0,0.0,0.0,0.0,0.0,0.0,0.0,0.0,0.0,0.0,0.0,0.0,0.0,0.0,0.0,0.0,0.0,0.0,0.0,0.0,0.0,0.0,0.0,0.0,0.0,0.0,1.7078,1.7099,1.7099,1.7099,1.7099,1.7099,1.7099,1.7099,1.7099,1.7099,1.7099,0.0,0.0,0.0,0.0,0.0,0.0,0.0,0.0,0.0,0.0,0.0,0.0,0.0,0.0,0.0,0.0,0.0,0.0,0.0,0.0,0.0,0.0,0.0,0.0,0.0,0.0,0.0,0.0,0.0,0.0,0.0,0.0,0.0,0.0,0.0,0.0,0.0,0.0,0.0,0.0,0.0,0.0,0.0,0.0,0.0,0.0,0.0,0.0,0.0,0.0,0.0,0.0,0.0,0.0,0.0,0.0,0.0,0.0,0.0,0.0,2.8608,0.0,0.0,0.0,0.0,0.0,0.0,0.0,0.0,0.0,0.0,0.0,0.0,0.0,0.0,0.0,0.0,0.0,0.0,0.0,0.0,0.0,0.0,0.0,0.0,0.0,0.0,0.0,0.0,0.0,0.0,0.0,0.0,0.0,0.0,0.0,0.0,0.0,0.0,0.0,0.0,1.6962,1.6976,1.6976,1.6976,1.6976,1.6976,1.6976,1.6976,1.6976,1.6976,1.6976,0.0,0.0,0.0,0.0,0.0,0.0,0.0,0.0,0.0,0.0,0.0,0.0,0.0,0.0,0.0,0.0,0.0,0.0,0.0,0.0,0.0,0.0,0.0,0.0,0.0,0.0,0.0,0.0,0.0,0.0,0.0,0.0,0.0,0.0,0.0,0.0,0.0,0.0,0.0,0.0,0.0,0.0,0.0,0.0,0.0,0.0,0.0,0.0,0.0,0.0,0.0,0.0,0.0,3.1851,3.1983,3.1972,3.1986,3.2089,3.2089,3.2023,3.1841,3.1074,2.2623,0.0,0.0,0.0,0.0,0.0,0.0,0.0,0.0,0.0,0.0,0.0,0.0,0.0,0.0,0.0,0.0,0.0,0.0,0.0,0.0,0.0,0.0,0.0,0.0,1.7197,1.7069,0.0,0.0,0.0,0.0,0.0,0.0,0.0,0.0,0.0,0.0,0.0,0.0,1.7197,1.7197,1.7197,1.7197,1.7197,1.7197,1.7197,1.7197,1.7197,1.7197,1.7197,1.7197,0.0,0.0,0.0,0.0,0.0,0.0,0.0,0.0,0.0,0.0,0.0,0.0,0.0,0.0,0.0,0.0,0.0,0.0,0.0,0.0,0.0,0.0,0.0,0.0,0.0,0.0,0.0,0.0,0.0,0.0,0.0,0.0,2.7457,2.9925,0.0,0.0,0.0,0.0,0.0,0.0,0.0,0.0,0.0,0.0,0.0,0.0,0.0,0.0,3.171,3.171,3.1763,3.1659,3.2713,3.3184,3.3252,3.3211,3.3198,3.3198,3.3184,0.0,3.1762,3.1183,0.0,0.0,0.0,0.0,0.0,0.0,0.0,0.0,0.0,0.0,0.0,0.0,0.0,0.0,0.0,0.0,0.0,0.0,0.0,0.0,0.0,0.0,1.7864,1.7864,1.7864,1.7843,0.0,1.7317,1.6902,1.6922,1.7378,0.0,0.0,0.0,0.0,0.0,0.0,0.0,1.7864,1.7864,1.7864,1.7864,1.7864,1.7864,1.7864,1.7864,1.7864,1.7864,1.7864,1.7864,1.7864,1.7864,0.0,0.0,0.0,0.0,0.0,0.0,0.0,0.0,0.0,0.0,0.0,0.0,0.0,0.0,0.0,0.0,0.0,0.0,0.0,0.0,0.0,0.0,0.0,0.0,0.0,0.0,0.0,0.0,0.0,2.8248,2.9646,3.0597,2.9987,2.9891,0.0,0.0,0.0,0.0,0.0,0.0,0.0,0.0,0.0,3.2138,3.2345,3.2398,3.231,3.2532,3.2625,3.2576,3.3219,3.3408,3.3307,3.3307,3.3387,3.332,3.332,3.3145,3.2768,3.312,3.0588,2.5512,0.0,0.0,0.0,0.0,0.0,2.5241,1.9214,1.6958,0.0,1.6989,0.0,0.0,0.0,0.0,0.0,0.0,0.0,0.0,0.0,0.0,0.0,1.7895,1.7895,1.7895,1.7895,1.767,1.7425,0.0,1.7772,1.7799,1.7875,1.7895,0.0,0.0,0.0,1.7895,1.7895,1.7895,1.7895,1.7895,1.7895,1.7895,1.7895,1.7895,1.7895,1.7895,1.7895,1.7895,1.7895,1.7895,1.7895,0.0,0.0,0.0,0.0,0.0,0.0,0.0,0.0,0.0,0.0,0.0,0.0,0.0,0.0,0.0,0.0,0.0,0.0,0.0,0.0,0.0,0.0,0.0,0.0,0.0,0.0,0.0,0.0,2.9827,3.1049,3.1116,3.1316,3.1476,0.0,0.0,0.0,0.0,0.0,0.0,3.2532,3.2545,3.2572,3.2652,3.2652,3.2732,3.2866,3.3117,3.3476,3.3334,3.3334,3.3333,3.3324,3.3758,3.3877,3.3858,3.3858,3.3858,3.3818,3.3572,3.3462,3.2569,2.4815,2.1682,2.1609,2.1575,2.6849,3.2185,2.1143,1.7277,1.7203,1.7244,0.0,1.7982,1.7982,0.0,0.0,0.0,0.0,1.793,1.793,1.7792,1.786,1.786,1.786,1.786,1.786,1.786,1.7826,0.0,1.793,1.7964,1.7846,1.786,0.0,1.786,1.786,1.786,1.786,1.786,1.786,1.786,1.786,1.786,1.786,1.786,1.786,1.786,1.786,1.786,1.786,1.786,1.786,1.786,0.0,0.0,0.0,0.0,0.0,0.0,0.0,0.0,0.0,0.0,0.0,0.0,0.0,0.0,0.0,0.0,0.0,0.0,0.0,0.0,0.0,0.0,0.0,0.0,0.0,0.0,0.0,0.0,0.0,3.1998,3.2051,0.0,0.0,0.0,0.0,3.2519,3.2519,3.2532,3.2545,3.2545,3.2666,3.2735,3.2946,3.3014,3.3356,3.3356,3.3488,3.3328,3.3328,3.3355,3.3381,3.4541,3.502,3.5034,3.5034,3.5034,3.502,3.3831,3.3498,3.3525,3.4019,3.419,3.4373,3.4359,3.461,3.3561,2.1906,1.7854,1.7892,1.782,1.7964,1.7846,1.7846,1.7846,0.0,0.0,1.7846,1.7846,1.7846,1.786,1.786,1.786,1.786,1.786,1.786,1.786,1.786,0.0,1.7846,1.786,1.786,0.0,1.786,1.786,1.786,1.786,1.786,1.786,1.786,1.786,1.786,1.786,1.786,1.786,1.786,1.786,1.786,1.786,1.786,1.786,1.786,1.786,1.786,0.0,0.0,0.0,0.0,0.0,0.0,0.0,0.0,0.0,0.0,0.0,0.0,0.0,0.0,0.0,0.0,0.0,0.0,0.0,0.0,0.0,0.0,0.0,0.0,0.0,0.0,0.0,0.0,3.2372,3.2385,0.0,3.2532,3.2545,3.2625,3.2812,3.2826,3.2906,3.3093,3.3293,3.3454,3.3547,3.329,3.3258,3.3468,3.4162,3.4461,3.4555,3.4555,3.4649,3.4603,3.5058,3.5179,3.5133,3.5133,3.5133,3.5119,3.4661,3.4594,3.4515,3.4985,3.516,3.5164,3.5294,3.5257,3.3625,2.1831,1.8009,1.7827,1.7964,1.7826,1.786,1.786,1.786,1.786,1.786,1.786,1.786,1.786,1.786,1.786,1.786,1.786,1.786,1.786,1.786,1.786,1.786,1.786,1.786,1.786,1.786,1.786,1.786,1.786,1.786,1.786,1.786,1.786,1.786,1.786,1.786,1.786,1.786,1.786,1.786,1.786,1.786,1.786,1.786,1.786,1.786,1.786,1.786,0.0,0.0,0.0,0.0,0.0,0.0,0.0,0.0,0.0,0.0,0.0,0.0,0.0,0.0,0.0,0.0,0.0,0.0,0.0,0.0,0.0,0.0,0.0,0.0,0.0,0.0,3.2585,3.2679,3.2692,3.2732,3.2826,3.2839,3.2959,3.3267,3.328,3.3414,3.3708,3.3921,3.4028,3.4028,3.3765,3.3678,3.377,3.4469,3.499,3.5098,3.5098,3.5193,3.5146,3.5146,3.524,3.5191,3.5191,3.5191,3.5191,3.5191,3.5097,3.5146,3.5146,3.5254,3.5191,3.5191,3.5139,3.4167,2.6377,2.114,1.7978,1.7826,1.786,1.786,1.786,1.786,1.786,1.786,1.786,1.786,1.786,1.786,1.786,1.786,1.786,1.786,1.786,1.786,1.786,1.786,1.786,1.786,1.786,1.786,1.786,1.786,1.786,1.786,1.786,1.786,1.786,1.786,1.786,1.786,1.786,1.786,1.786,1.786,1.786,1.786,1.786,1.786,1.8101,1.8163,1.8156,1.7914,1.786,0.0,0.0,0.0,0.0,0.0,0.0,0.0,0.0,0.0,0.0,0.0,0.0,0.0,0.0,0.0,0.0,0.0,0.0,0.0,0.0,0.0,0.0,0.0,3.2612,3.2572,3.2679,3.2973,3.3013,3.312,3.3414,3.344,3.3574,3.3881,3.3895,3.4028,3.4309,3.4322,3.4336,3.4336,3.4336,3.4482,3.4541,3.4528,3.4674,3.5191,3.5191,3.5191,3.5191,3.5191,3.5191,3.5191,3.5191,3.5191,3.5191,3.5191,3.5191,3.5191,3.5191,3.5191,3.5191,3.5191,3.5126,3.5178,3.4772,2.7203,1.7846,1.786,1.786,1.786,1.786,1.786,1.786,1.786,1.786,1.786,1.786,1.786,1.786,1.786,1.786,1.786,1.788,1.788,1.788,1.788,1.788,1.788,1.786,1.786,1.786,1.786,1.786,0.0,1.786,1.786,1.786,1.786,1.786,1.786,1.786,1.786,1.786,1.786,1.786,1.786,1.786,1.786,1.8163,1.8769,1.8321,1.8002,1.786,0.0,0.0,0.0,0.0,0.0,0.0,0.0,0.0,0.0,0.0,0.0,0.0,0.0,0.0,0.0,0.0,0.0,0.0,0.0,0.0,0.0,0.0,3.3521,3.3213,3.3173,3.3293,3.3601,3.3641,3.3748,3.4042,3.4068,3.4108,3.4189,3.4202,3.4242,3.4322,3.4523,3.4643,3.4643,3.4843,3.499,3.507,3.507,3.511,3.5191,3.5191,3.5191,3.5191,3.5191,3.5191,3.5191,3.5191,3.5191,3.5191,3.5191,3.5191,3.5191,3.5191,3.5191,3.5191,3.5191,3.5244,3.3935,2.5604,2.0587,1.7813,1.7909,1.7792,1.786,1.786,1.786,1.786,1.786,1.786,1.786,1.786,1.786,1.7894,1.8002,1.7793,1.7827,1.7927,1.796,1.796,1.796,1.796,1.7893,1.7894,1.786,1.786,1.786,1.786,0.0,1.786,1.786,1.7894,1.7793,1.7793,1.7793,1.7793,1.7793,1.7982,1.786,1.786,1.786,1.786,1.786,1.788,1.8163,1.7935,1.7901,0.0,0.0,0.0,0.0,0.0,0.0,0.0,0.0,0.0,0.0,0.0,0.0,0.0,0.0,0.0,0.0,0.0,0.0,0.0,0.0,0.0,0.0,3.3948,3.4002,3.3814,3.3788,3.3868,3.4042,3.4068,3.4135,3.4295,3.4322,3.4376,3.4496,3.4509,3.4563,3.4683,3.4857,3.495,3.495,3.511,3.5191,3.5191,3.5191,3.5191,3.5191,3.5191,3.5191,3.5191,3.5191,3.5191,0.0,3.5191,3.5191,3.5191,3.5191,3.5191,0.0,0.0,0.0,0.0,0.0,3.5257,3.4199,2.7536,2.5253,2.4363,1.9439,1.7978,1.788,1.7935,1.7948,1.7968,1.7813,1.7827,1.7827,1.7827,1.7827,1.7847,1.7927,1.8179,1.8219,1.8301,1.8321,1.8321,1.8321,0.0,0.0,1.8321,1.8057,1.7827,1.7827,1.7827,1.7827,1.7827,1.7827,1.786,1.7947,1.8179,1.8186,1.8186,1.8186,0.0,0.0,0.0,1.8057,1.8057,1.8335,0.0,0.0,0.0,1.8111,1.8057,0.0,0.0,0.0,1.7989,1.7948,0.0,0.0,0.0,0.0,0.0,0.0,0.0,0.0,0.0,0.0,0.0,0.0,0.0,0.0,0.0,0.0,3.4349,3.4376,3.4376,3.4402,3.4402,3.4376,3.4376,3.4389,3.4416,3.4416,3.4523,3.479,3.4817,3.4923,3.5177,0.0,0.0,0.0,0.0,3.5191,3.5191,3.5191,3.5191,3.5191,3.5191,3.5191,3.5191,3.5191,3.5191,3.5191,3.5191,3.5191,3.5191,3.5191,3.5217,3.5244,3.5204,3.5191,3.5191,3.5191,3.5139,0.0,0.0,0.0,0.0,2.1773,1.7792,1.7935,1.7847,1.788,1.7914,1.8048,1.8081,1.8081,1.8081,1.8081,1.8081,1.8101,1.8342,1.8823,1.8844,1.8844,1.8844,1.8844,1.8844,1.8844,1.8844,1.8342,1.8081,1.8081,1.8081,1.8081,1.8081,1.8081,1.8081,1.8101,0.0,0.0,1.8809,1.8809,1.8575,1.8321,1.8321,1.8321,1.8555,1.8678,1.8678,1.8321,1.8443,1.8443,1.8321,1.8321,1.8321,1.8321,1.8179,1.8111,0.0,0.0,0.0,0.0,0.0,0.0,0.0,0.0,0.0,0.0,0.0,0.0,0.0,0.0,0.0,3.4322,3.4523,3.4683,3.4683,3.4883,3.4937,3.471,3.4683,3.4763,3.5004,3.503,3.5044,3.511,3.511,3.5137,3.5191,3.5191,0.0,3.5191,3.5191,3.5191,3.5191,3.5191,3.5191,3.5191,0.0,0.0,3.5191,3.5191,3.5191,3.5191,3.5191,3.5191,3.5191,3.5191,3.5112,3.5272,3.5271,3.5191,3.5191,3.5191,3.5139,3.5151,3.5151,3.5193,3.3359,2.1735,1.7793,1.7994,1.7802,1.8267,0.0,1.8555,1.8555,1.8555,1.8555,1.8555,1.8589,1.8692,1.8733,1.8768,1.8891,1.8905,1.8905,1.8905,1.8905,1.8905,1.8905,1.8713,1.8555,1.8555,1.8555,1.8555,1.8555,1.8555,1.8589,1.8713,1.8733,1.8733,1.8733,1.8733,1.8685,1.8788,1.8555,1.8321,1.8321,1.8342,1.8355,1.8321,1.8355,1.8355,1.8321,1.8321,1.8321,1.8321,1.8287,1.8267,0.0,0.0,0.0,0.0,0.0,0.0,0.0,0.0,0.0,0.0,0.0,3.4589,3.4736,0.0,3.4763,3.4763,3.4883,3.4977,3.4977,3.511,3.5137,3.5004,3.4977,3.5044,3.5177,3.5191,3.5191,3.5191,3.5191,3.5191,3.5191,3.5191,3.5191,3.5191,3.5191,3.5191,3.5191,3.5191,3.5191,3.5191,3.5191,3.5191,3.5191,3.5191,3.5191,3.5191,3.5191,3.5271,3.5192,3.5098,3.523,3.5336,3.5926,3.5645,3.5151,3.5151,3.5244,3.5349,3.5845,3.5989,3.4008,2.2142,1.8441,1.8445,1.8301,1.861,1.8913,1.8754,1.8788,1.8788,1.8788,1.8788,1.8802,1.8871,1.8891,1.8905,1.8749,1.8762,1.8762,1.8762,1.8762,1.8762,1.8762,1.8871,1.8788,1.8788,1.8788,1.8788,1.8788,1.8788,1.8802,1.8871,1.8891,1.8891,1.8891,1.8891,1.8857,1.8788,1.8781,1.8552,1.8552,1.8552,1.8552,1.8552,1.8552,1.8552,1.8552,1.8552,1.8552,1.8552,1.8552,1.8498,0.0,0.0,0.0,0.0,0.0,0.0,0.0,3.4509,3.4763,3.4763,3.495,3.5124,3.5191,3.5191,3.5191,3.5191,3.5191,3.5191,3.5191,3.5191,3.5191,3.5191,3.5191,3.5191,3.5191,3.5191,3.5191,3.5191,3.5191,3.5191,3.5191,3.5191,3.5191,3.5191,3.5191,3.5191,3.5191,3.5191,3.5191,3.5191,3.5191,3.5191,3.5191,3.5191,3.5231,3.5271,3.5112,3.5272,3.5497,3.5494,3.56,3.5653,3.6626,3.6423,3.5489,3.5613,3.56,3.5666,3.664,3.6883,3.521,2.5424,2.2377,2.1953,1.9526,1.872,1.8836,1.8728,1.8762,1.8762,1.8762,1.8762,1.8762,1.8762,1.8762,1.8762,1.8762,1.8762,1.8762,1.8762,1.8762,1.8762,1.8762,1.8762,1.8762,1.8762,1.8762,1.8762,1.8762,1.8762,1.8762,1.8762,1.8762,1.8762,1.8762,1.8762,1.8762,1.8762,1.8762,1.8762,1.8762,1.8762,1.8762,1.8762,1.8762,1.8762,1.8762,1.8762,1.8762,1.8762,1.8762,1.8694,3.3761,3.3828,3.3841,3.3881,3.4082,3.4215,0.0,3.4362,3.4763,3.4763,3.479,3.4897,3.5151,3.5191,3.5191,3.5191,3.5191,3.5191,3.5191,3.5191,3.5191,3.5191,3.5191,3.5191,3.5191,3.5191,3.5191,3.5191,3.5191,3.5191,3.5191,3.5191,3.5191,3.5191,3.5191,3.5191,3.5191,3.5191,3.5191,3.5191,3.5191,3.5191,3.5191,3.5191,3.5112,3.5125,3.5134,3.575,3.6747,3.6775,3.6721,3.6719,3.6951,3.6853,3.678,3.6748,3.6721,3.6719,3.6951,3.6847,3.6591,3.532,3.4866,3.2884,2.2027,1.8728,1.8749,1.8762,1.8762,1.8762,1.8762,1.8762,1.8762,1.8762,1.8762,1.8762,1.8762,1.8762,1.8762,1.8762,1.8762,1.8762,1.8762,1.8762,1.8762,1.8762,1.8762,1.8762,1.8762,1.8762,1.8762,1.8762,1.8762,1.8762,1.8762,1.8762,1.8762,1.8762,1.8762,1.8762,1.8762,1.8762,1.8762,1.8762,1.8762,1.8762,1.8762,1.8762,1.8762,1.8762,1.8762,1.8742,3.3574,3.3748,3.3921,3.4095,3.4229,3.4376,3.4603,3.4843,3.5017,3.5017,3.5017,3.5057,3.5177,3.5191,3.5191,0.0,3.5191,3.5191,3.5191,3.5191,3.5191,3.5191,3.5191,3.5191,3.5191,3.5191,3.5191,3.5191,3.5191,3.5191,3.5191,3.5191,3.5191,3.5191,3.5191,3.5191,3.5191,3.5191,3.5191,3.5191,3.5191,3.5271,3.5205,3.5205,3.5605,3.6154,3.6193,3.6557,3.6842,3.6991,3.6907,3.7001,3.7001,3.6847,3.6901,3.6907,3.6907,3.7001,3.7001,3.6901,3.6905,3.6998,3.2017,2.5403,2.0236,1.8733,1.8871,1.8871,1.8694,1.8762,1.8762,1.8762,1.8762,1.8762,1.8762,1.8762,1.8762,1.8762,1.8762,1.8762,1.8762,1.8762,1.8762,1.8762,1.8762,1.8762,1.8762,1.8762,1.8762,1.8762,1.8762,1.8762,1.8762,1.8762,1.8762,1.8762,1.8762,1.8762,1.8762,1.8762,1.8762,1.8762,1.8762,1.8762,1.8762,1.8762,1.8762,1.8762,1.8762,1.8762,1.8762,1.8762,3.3547,3.3708,3.3961,3.4242,3.4322,3.4456,3.4963,3.5137,3.5191,3.5191,3.5191,3.5191,3.5191,3.5191,3.5191,3.5191,3.5191,3.5191,3.5191,3.5191,3.5191,3.5191,3.5191,3.5191,3.5191,3.5191,3.5191,3.5191,3.5191,3.5191,3.5191,3.5191,3.5191,3.5191,3.5191,3.5191,3.5191,3.5191,3.5244,3.5549,3.5549,3.5471,3.5511,3.559,3.6221,3.6938,3.6991,3.6866,3.6907,3.6874,3.6941,3.6941,3.6941,3.6941,3.6941,3.6941,3.6941,3.6941,3.6941,3.6941,3.6941,3.6812,3.1001,2.3716,2.3778,2.3753,2.3021,1.9684,1.8802,1.8891,1.8694,1.8708,1.8708,1.8749,1.8762,1.8762,1.8762,1.8762,1.8762,1.8762,1.8762,1.8762,1.8762,1.8762,1.8762,1.8762,1.8762,1.8762,1.8762,1.8762,1.8762,1.8762,1.8762,1.8762,1.8762,1.8762,1.8762,1.8762,1.8762,1.8762,1.8762,1.8762,1.8762,1.8762,1.8762,1.8762,1.8762,1.8762,1.8762,1.8762,1.8762,1.8762,3.3868,3.3881,3.3961,3.4242,3.4322,3.4402,3.471,3.499,3.5191,3.5191,3.5191,3.5191,3.5191,3.5191,3.5191,3.5191,3.5191,3.5191,3.5191,3.5191,3.5191,3.5191,3.5191,3.5191,0.0,3.5191,3.5191,3.5191,3.5191,3.5191,3.5191,3.5191,3.5191,3.5191,3.5191,3.5191,3.5191,3.5191,3.5563,3.6099,3.6099,3.602,3.6072,3.6598,3.6951,3.6991,3.6807,3.6941,3.6941,3.6941,3.6941,3.6941,3.6941,3.6941,3.6941,3.6941,3.6941,3.6941,3.6941,3.6941,3.6967,3.6998,3.663,3.6432,3.6453,3.6317,3.3799,2.2107,1.8823,1.8858,1.8754,1.8788,1.8823,1.8728,1.8762,1.8762,1.8762,1.8762,1.8762,1.8762,1.8762,1.8762,1.8762,1.8762,1.8762,1.8762,1.8762,1.8762,1.8762,1.8762,1.8762,1.8762,1.8762,1.8762,1.8762,1.8762,1.8762,1.8762,1.8762,1.8762,1.8762,1.8762,1.8762,1.8762,1.8762,1.8762,1.8762,1.8762,1.8762,1.8762,1.8762,1.8762,3.3627,3.3868,3.4202,3.4295,3.4469,3.4696,3.4977,3.5124,3.5191,3.5191,3.5191,3.5191,3.5191,3.5191,3.5191,3.5191,3.5191,3.5191,3.5191,3.5191,3.5191,3.5191,3.5191,3.5191,3.5191,0.0,0.0,3.5191,3.5191,3.5191,3.5191,3.5191,3.5191,3.5191,3.5191,3.5191,3.5191,3.563,3.5778,3.5872,3.6032,3.6504,3.6624,3.6893,3.6807,3.6807,3.6901,3.6941,3.6941,3.6941,3.6941,3.6941,3.6941,3.6941,3.6941,3.6941,3.6941,3.6941,3.6941,3.6941,3.6941,3.6812,3.6839,3.6879,3.6972,3.688,3.6008,3.2006,3.0698,3.0831,3.0887,2.4912,1.8802,1.8836,1.8782,1.8918,1.8918,1.8751,1.8818,1.8818,1.9061,1.9303,1.9061,1.9061,1.9067,1.9061,1.8884,1.8762,1.8762,1.8762,1.8762,1.8762,1.8762,1.8762,1.8762,1.8762,1.8762,1.8762,1.8762,1.8762,1.8762,1.8762,1.8762,1.8762,1.8762,1.8762,1.8762,1.8762,1.8762,1.8762,1.8871,1.8918,3.3467,3.3694,3.4042,3.4269,3.4469,3.471,3.511,3.5191,3.5191,3.5191,3.5191,3.5191,3.5191,3.5191,3.5191,3.5191,3.5191,3.5191,3.5191,3.5191,3.5191,3.5191,3.5191,3.5191,3.5191,3.5191,0.0,3.5191,3.5191,3.5191,3.5191,3.5191,3.5191,3.5191,3.5191,3.5244,3.5351,3.5778,3.5979,3.5952,3.642,3.666,3.6907,3.6874,3.6941,3.6941,3.6941,3.6941,3.6941,3.6941,3.6941,3.6941,3.6941,3.6941,3.6941,3.6941,3.6941,3.6941,3.6941,3.6941,3.6941,3.6941,3.6941,3.6941,3.6941,3.6839,3.6972,3.6972,3.6933,3.6971,3.6927,3.1108,2.418,1.9726,1.8918,1.8818,1.9061,1.9128,1.9196,1.9196,1.9447,1.9447,1.9203,1.9203,1.9203,1.9203,1.904,1.8918,1.8918,1.8918,1.8905,1.885,1.885,1.8816,1.8762,1.8762,1.8762,1.8762,1.8762,1.8762,1.8762,1.8762,1.8762,1.8762,1.8762,1.8762,1.8762,1.8816,1.885,1.885,1.8993,1.9061,3.3414,3.3427,3.3574,3.4175,3.4336,3.4496,3.507,3.5191,3.5191,3.5191,3.5191,3.5191,3.5191,3.5191,3.5191,3.5191,3.5191,3.5191,3.5191,3.5191,3.5191,3.5191,3.5191,3.5191,3.5191,3.5191,0.0,3.5191,0.0,3.5191,3.5191,3.5191,3.5191,3.5191,3.5191,3.5338,3.5631,3.5658,3.5965,3.654,3.6794,3.6941,3.6941,3.6941,3.6941,3.6941,3.6941,3.6941,3.6941,3.6941,3.6941,3.6941,3.6941,3.6941,3.6941,3.6941,3.6941,3.6941,3.6941,3.6941,3.6941,3.6941,3.6941,3.6941,3.6941,3.6941,3.6967,3.6967,3.6905,3.6999,3.7071,3.6923,3.3898,2.1803,1.8939,1.8959,1.9468,1.9713,1.9713,1.9713,1.9468,1.9461,1.9461,1.9223,1.9217,1.9217,1.9217,1.9217,1.9203,1.9203,1.9149,1.9006,1.9006,1.8938,1.8796,1.8782,1.8782,1.8782,1.8782,1.8782,1.8782,1.8782,1.8782,1.8782,1.8782,1.8782,1.8782,1.8938,1.9006,1.9006,1.9149,1.9217,3.3414,3.3587,3.3855,3.4229,3.4482,3.475,3.511,3.5191,3.5191,3.5191,3.5191,3.5191,3.5191,3.5191,3.5191,3.5191,3.5191,3.5191,3.5191,3.5191,3.5191,3.5191,3.5191,3.5191,3.5191,3.5191,3.5191,0.0,3.5191,3.5191,3.5191,3.5191,3.5191,3.5191,3.5191,3.5338,3.5631,3.6059,3.6473,3.6834,3.6901,3.6941,3.6941,3.6941,3.6941,3.6941,3.6941,3.6941,3.6941,3.6941,3.6941,3.6941,3.6941,3.6941,3.6941,3.6941,3.6941,3.6941,3.6941,3.6941,3.6941,3.6941,3.6941,3.6941,3.6941,3.6839,3.6998,3.6998,3.6973,3.7224,3.7903,3.8183,3.5131,2.2459,1.9525,1.9482,1.9592,1.9715,1.9784,1.9784,1.9542,1.9542,1.9542,1.9542,1.9535,1.9535,1.9535,1.9468,1.9237,1.9203,1.9183,1.9149,1.9149,1.9128,1.9094,1.9094,1.9094,1.9094,1.9094,1.9094,1.9094,1.9094,1.9094,1.9094,1.9094,1.9094,1.9094,1.9128,1.9149,1.9149,1.9305,1.9379,3.3414,3.3547,3.3774,3.4215,3.4442,3.4683,3.5097,3.5191,3.5191,3.5191,3.5191,3.5191,3.5191,3.5191,3.5191,3.5191,3.5191,3.5191,3.5191,3.5191,3.5191,3.5191,3.5191,3.5191,3.5191,3.5191,3.5191,0.0,3.5191,3.5191,3.5191,3.5191,3.5191,3.5191,3.5324,3.5591,3.6006,3.6473,3.6794,3.6941,3.6941,3.6941,3.6941,3.6941,3.6941,3.6941,0.0,3.6941,3.6941,3.6941,3.6941,3.6941,3.6941,3.6941,3.6941,3.6941,3.6941,3.6941,3.6941,3.7021,3.7128,3.6981,3.7021,3.7364,3.7364,3.7342,3.7317,3.7569,3.7769,3.7782,3.8452,3.8694,3.6922,2.9751,2.5971,2.3187,2.0388,2.1247,2.1827,2.0144,1.9664,1.9664,1.9664,1.9664,1.9664,1.9664,1.9664,1.959,1.9434,1.94,1.9379,1.9305,1.9305,1.9271,1.9203,1.9203,1.9203,1.9203,1.9203,1.9203,1.9203,1.9203,1.9203,1.9203,1.9203,1.9203,1.9203,1.9271,1.9305,1.9305,1.9468,1.9535,3.3414,3.3414,3.3547,3.4122,3.4295,3.4469,3.5017,3.5164,3.5191,3.5191,3.5191,3.5191,3.5191,3.5191,3.5191,3.5191,3.5191,3.5191,3.5191,3.5191,3.5191,3.5191,3.5191,3.5191,3.5191,3.5191,3.5191,3.5191,3.5191,3.5191,3.5191,3.5191,3.5217,3.5257,3.5538,3.5952,3.65,3.6794,3.6941,3.6941,3.6941,3.6941,3.6941,3.6941,3.6941,3.6941,0.0,0.0,3.6941,3.6941,3.6941,3.6941,3.6941,3.6941,3.6941,3.6941,3.6941,3.6941,3.6981,3.7168,3.7355,3.7088,3.7444,3.7713,3.7951,3.7888,3.813,3.8651,3.86,3.8627,3.8664,3.8645,3.8662,3.7901,3.3755,2.8187,2.2335,2.3878,2.5207,2.1115,2.0373,2.0144,1.9664,1.9664,1.9664,1.9664,1.9664,1.9664,1.9664,1.9664,1.961,1.9481,1.9468,1.9413,1.9271,1.9257,1.9257,1.9257,1.9257,1.9257,1.9257,1.9257,1.9257,1.9257,1.9257,1.9257,1.9257,1.9393,1.9468,1.9468,1.959,1.9664,3.3414,3.3414,3.3494,3.3868,3.4148,3.4416,3.475,3.5017,3.5191,3.5191,3.5191,3.5191,3.5191,3.5191,3.5191,3.5191,3.5191,3.5191,3.5191,3.5191,3.5191,3.5191,3.5191,3.5191,3.5191,3.5191,3.5191,0.0,0.0,3.5191,3.5191,3.5191,3.5311,3.5551,3.5845,3.6166,3.65,3.6794,3.6941,3.6941,3.6941,3.6941,3.6941,3.6941,3.6941,3.6941,0.0,0.0,3.6941,3.6941,3.6941,3.6941,3.6941,3.6941,3.6941,3.6941,3.6941,3.6981,3.7235,3.7342,3.7382,3.7315,3.7502,3.7982,3.8502,3.8492,3.8681,3.8695,3.8667,3.8664,3.8718,3.8758,3.7814,3.4428,3.3218,3.2029,2.8415,2.8207,2.754,2.4202,2.3471,2.2772,2.0144,1.9664,1.9664,1.9664,1.9664,1.9664,1.9664,1.9664,1.9644,1.9624,1.9624,1.961,1.959,1.9576,1.9576,1.9576,1.9576,1.9576,1.9576,1.9576,1.9576,1.9576,1.9576,1.9576,1.9576,1.961,1.9624,1.9624,1.9644,1.9664,3.3414,3.3414,3.3494,3.3801,3.4108,3.4402,3.4696,3.499,3.5191,3.5191,3.5191,3.5191,3.5191,3.5191,3.5191,3.5191,3.5191,3.5191,3.5191,3.5191,3.5191,3.5191,3.5191,3.5191,3.5191,3.5191,3.5191,3.5191,0.0,3.5191,3.5191,3.5338,3.5551,3.5845,3.6139,3.6433,3.6727,3.6861,3.6941,3.6941,3.6941,3.6941,3.6941,3.6941,3.6941,3.6941,3.6941,0.0,3.6941,3.6941,3.6941,3.6941,3.6941,3.6941,3.6941,3.6941,3.7048,3.7195,3.7342,3.7569,3.7823,3.7823,3.7929,3.805,3.8305,3.852,3.8761,3.8761,3.8624,3.8718,3.8718,3.8718,3.8227,3.6275,3.4849,3.3442,3.2018,3.0374,2.8702,2.7273,2.6805,2.5857,2.2772,2.2047,2.1578,1.9894,1.9664,1.9664,1.9664,1.9664,1.9664,1.9664,1.9664,1.9664,1.9664,1.9664,1.9664,1.9664,1.9664,1.9664,1.9664,1.9664,1.9664,1.9664,1.9664,1.9664,1.9664,1.9664,1.9664,1.9664,1.9664,1.9664,3.3414,3.3414,3.3467,3.3721,3.4055,3.4389,3.4616,3.4937,3.5191,3.5191,3.5191,3.5191,3.5191,3.5191,3.5191,3.5191,3.5191,3.5191,3.5191,3.5191,3.5191,3.5191,3.5191,3.5191,3.5191,3.5191,0.0,3.5191,0.0,0.0,3.5191,3.5471,3.5765,3.6059,3.6353,3.6647,3.6941,3.6941,3.6941,3.6941,3.6941,3.6941,3.6941,3.6941,3.6941,3.6941,3.6941,0.0,0.0,3.6941,3.6941,3.6941,3.6941,3.6941,3.6941,3.6941,3.7128,3.7382,3.7448,3.7823,3.8263,3.833,3.837,3.837,3.837,3.8544,3.8718,3.8718,3.8718,3.8718,3.8718,3.8718,3.8718,3.8718,3.6804,3.4873,3.4873,3.2983,3.1074,3.0374,3.0127,2.9178,2.5857,2.5377,2.4425,2.1093,2.0615,2.038,1.9908,1.9664,1.9664,1.9664,1.9664,1.9664,1.9664,1.9664,1.9664,1.9664,1.9664,1.9664,1.9664,1.9664,1.9664,1.9664,1.9664,1.9664,1.9664,1.9664,1.9664,1.9664,1.9664,1.9664,3.3414,3.3414,3.3414,3.3454,3.3895,3.4322,3.4349,3.479,3.5191,3.5191,3.5191,3.5191,3.5191,3.5191,3.5191,3.5191,3.5191,3.5191,3.5191,3.5191,3.5191,3.5191,3.5191,3.5191,3.5191,3.5191,3.5191,3.5191,0.0,0.0,0.0,3.5471,3.5765,3.6059,3.6353,3.6647,3.6941,3.6941,3.6941,3.6941,3.6941,3.6941,3.6941,3.6941,3.6941,3.6941,0.0,0.0,0.0,3.6941,3.6941,3.6941,3.6941,3.6941,3.6941,3.6941,3.7128,3.7422,3.7676,3.7996,3.829,3.8584,3.8691,3.8691,3.8691,3.8691,3.8718,3.8718,3.8718,3.8718,3.8718,3.8718,3.8718,3.8718,3.8499,3.824,3.824,3.8007,3.7025,3.3935,3.3442,3.2501,2.9188,2.8702,2.775,2.4434,2.3953,2.3005,2.0144,1.9664,1.9664,1.9664,1.9664,1.9664,1.9664,1.9664,1.9664,1.9664,1.9664,1.9664,1.9664,1.9664,1.9664,1.9664,1.9664,1.9664,1.9664,1.9664,1.9664,1.9664,1.9664,1.9664,3.336,3.3414,3.3414,3.3414,3.3734,3.4108,3.4282,3.4643,3.499,3.5164,3.5191,3.5191,3.5191,3.5191,3.5191,3.5191,3.5191,3.5191,3.5191,3.5191,3.5191,3.5191,3.5191,3.5191,3.5191,0.0,3.5191,0.0,0.0,0.0,0.0,3.5645,3.5952,3.6072,3.654,3.6834,3.6941,3.6941,3.6941,3.6941,3.6941,3.6941,3.6941,3.6941,3.6941,3.6941,3.6941,0.0,0.0,3.6941,3.6941,3.6941,3.6941,3.6941,3.6967,3.7128,3.7382,3.7676,3.7969,3.829,3.8544,3.8691,3.8718,3.8718,3.8718,3.8718,3.8718,3.8718,3.8718,3.8718,3.8718,3.8718,3.8718,3.8718,3.8718,3.8718,3.8718,3.8718,3.8253,3.7037,3.6804,3.5833,3.2512,3.2018,3.0837,2.7759,2.7273,2.6795,2.5626,2.372,2.2522,2.2522,2.0858,1.9664,1.9664,1.9664,1.9664,1.9664,1.9664,1.9664,1.9664,1.9664,1.9664,1.9664,1.9664,1.9664,1.9664,1.9664,1.9664,1.9664,1.9664,1.9664,3.3227,3.3347,3.3414,3.3414,3.3654,3.3961,3.4255,3.4549,3.4843,3.5137,3.5191,3.5191,3.5191,3.5191,3.5191,3.5191,3.5191,3.5191,3.5191,3.5191,3.5191,3.5191,0.0,3.5191,0.0,3.5191,0.0,0.0,0.0,0.0,0.0,3.5752,3.6072,3.6072,3.6647,3.6941,3.6941,3.6941,3.6941,3.6941,3.6941,3.6941,3.6941,3.6941,3.6941,3.6941,0.0,0.0,0.0,3.6941,3.6941,3.6941,3.6941,3.6941,3.6981,3.7275,3.7569,3.7849,3.8143,3.8477,3.8718,3.8718,3.8718,3.8718,3.8718,3.8718,3.8718,3.8718,3.8718,3.8718,3.8718,3.8718,3.8718,3.8718,3.8718,3.8718,3.8718,3.8718,3.8718,3.8718,3.8718,3.8007,3.5821,3.5341,3.4158,3.1085,3.0601,3.0364,2.9425,2.7273,2.5857,2.5857,2.372,2.1805,1.9908,1.9664,1.9664,1.9664,1.9664,1.9664,1.9664,1.9664,1.9664,1.9664,1.9664,1.9664,1.9664,1.9664,1.9664,1.9664,1.9664,1.9664,3.2986,3.3187,3.3414,3.3414,3.3654,3.3961,3.4255,3.4549,3.4843,3.5137,3.5191,3.5191,3.5191,3.5191,3.5191,3.5191,3.5191,3.5191,3.5191,3.5191,3.5191,0.0,0.0,3.5191,3.5191,0.0,0.0,0.0,0.0,0.0,0.0,3.5752,3.6072,3.6072,3.6647,3.6941,3.6941,3.6941,3.6941,3.6941,3.6941,3.6941,3.6941,3.6941,3.6941,0.0,0.0,0.0,0.0,3.6941,3.6941,3.6941,3.6941,3.6941,3.6981,3.7275,3.7569,3.7849,3.8143,3.8477,3.8718,3.8718,3.8718,3.8718,3.8718,3.8718,3.8718,3.8718,3.8718,3.8718,3.8718,3.8718,3.8718,3.8718,3.8718,3.8718,3.8718,3.8718,3.8718,3.8718,3.8718,3.8718,3.8718,3.8718,3.7529,3.4404,3.3923,3.2725,2.9663,2.9178,2.9178,2.9178,2.9178,2.6566,2.0151,1.9664,1.9664,1.9664,1.9664,1.9664,1.9664,1.9664,1.9664,1.9664,1.9664,1.9664,1.9664,1.9664,1.9664,1.9664,1.9664,1.9664,3.2919,3.3187,3.3414,3.3414,3.3494,3.3641,3.3961,3.4255,3.4549,3.4843,3.5057,3.5191,3.5191,3.5191,3.5191,3.5191,3.5191,3.5191,3.5191,3.5191,0.0,3.5191,3.5191,3.5191,0.0,0.0,0.0,0.0,0.0,0.0,0.0,3.5752,3.6072,3.6072,3.6647,3.6941,3.6941,3.6941,3.6941,3.6941,3.6941,3.6941,3.6941,3.6941,0.0,0.0,0.0,0.0,0.0,3.6941,3.6941,3.6941,3.6941,3.7048,3.7275,3.7569,3.7849,3.8143,3.8477,3.8651,3.8718,3.8718,3.8718,3.8718,3.8718,3.8718,3.8718,3.8718,3.8718,3.8718,3.8718,3.8718,3.8718,3.8718,3.8718,3.8718,3.8718,3.8718,3.8718,3.8718,3.8718,3.8718,3.8718,3.8718,3.8253,3.727,3.7283,3.6804,3.5858,3.37,3.2501,3.2501,3.059,2.753,2.3238,2.2997,2.2054,1.9908,1.9664,1.9664,1.9664,1.9664,1.9664,1.9664,1.9664,1.9664,1.9664,1.9664,1.9664,1.9664,1.9664,1.9664,3.2759,3.3106,3.3414,3.3414,3.3414,3.3494,3.3814,3.4108,3.4402,3.4696,3.499,3.5191,3.5191,3.5191,3.5191,3.5191,3.5191,3.5191,3.5191,3.5191,0.0,3.5191,0.0,0.0,0.0,0.0,0.0,0.0,0.0,0.0,0.0,0.0,3.6072,3.6072,3.6647,3.6941,3.6941,3.6941,3.6941,3.6941,3.6941,3.6941,3.6941,3.6941,0.0,0.0,0.0,0.0,0.0,3.6941,3.6941,3.6941,3.6941,3.7128,3.7422,3.7702,3.7996,3.829,3.8611,3.8718,3.8718,3.8718,3.8718,3.8718,3.8718,3.8718,3.8718,3.8718,3.8718,3.8718,3.8718,3.8718,3.8718,3.8718,3.8718,3.8718,3.8718,3.8718,3.8718,3.8718,3.8718,3.8718,3.8718,3.8718,3.8718,3.8718,3.8718,3.8718,3.8718,3.7025,3.5821,3.5821,3.3923,3.1557,2.8217,2.6795,2.4915,2.1578,2.157,2.0865,1.9664,1.9664,1.9664,1.9664,1.9664,1.9664,1.9664,1.9664,1.9664,1.9664,1.9664,1.9664,0.0,3.2973,3.3414,3.3414,3.3414,3.3494,3.3788,3.4095,0.0,3.467,3.4977,3.5191,3.5191,3.5191,3.5191,3.5191,3.5191,3.5191,3.5191,3.5191,0.0,0.0,0.0,0.0,0.0,0.0,0.0,0.0,0.0,0.0,0.0,0.0,3.6072,3.6072,3.6647,3.6941,3.6941,3.6941,3.6941,3.6941,3.6941,3.6941,3.6941,3.6941,0.0,0.0,0.0,0.0,0.0,3.6941,3.6941,3.6941,3.6967,3.7155,3.7448,3.7742,3.8036,3.833,3.8611,3.8718,3.8718,3.8718,3.8718,3.8718,3.8718,3.8718,3.8718,3.8718,3.8718,3.8718,3.8718,3.8718,3.8718,3.8718,3.8718,3.8718,3.8718,3.8718,3.8718,3.8718,3.8718,3.8718,3.8718,3.8718,3.8718,3.8718,3.8718,3.8718,3.8718,3.8718,3.8718,3.8718,3.8718,3.7516,3.4416,3.131,2.8236,2.4915,2.4666,2.3238,2.0144,2.0144,1.9894,1.9664,1.9664,1.9664,1.9664,1.9664,1.9664,1.9664,1.9664,1.9664,0.0,0.0,3.3414,3.3414,3.3414,3.3427,0.0,3.3935,3.4336,3.4402,3.483,3.5191,3.5191,3.5191,3.5191,3.5191,3.5191,3.5191,3.5191,3.5191,0.0,0.0,0.0,0.0,0.0,0.0,0.0,0.0,0.0,0.0,0.0,0.0,3.6072,3.6072,3.6647,3.6941,3.6941,3.6941,3.6941,3.6941,3.6941,3.6941,3.6941,3.6941,0.0,0.0,0.0,0.0,3.6941,3.6941,3.6941,3.6967,3.7195,3.7448,3.7742,3.8036,3.8357,3.8624,3.8691,3.8718,3.8718,3.8718,3.8718,3.8718,3.8718,3.8718,3.8718,3.8718,3.8718,3.8718,3.8718,3.8718,3.8718,3.8718,3.8718,3.8718,3.8718,3.8718,3.8718,3.8718,3.8718,3.8718,3.8718,3.8718,3.8718,3.8718,3.8718,3.8718,3.8718,3.8718,3.8718,3.8718,3.8718,3.8485,3.7529,3.4639,3.1557,2.8246,2.7988,2.6566,2.3487,2.3238,2.2047,1.9664,1.9664,1.9664,1.9664,1.9664,1.9664,1.9664,1.9664,1.9664,0.0,3.2973,3.3414,3.3414,3.3414,3.3414,3.3414,3.3774,3.4162,3.4295,3.4683,3.5044,3.5177,3.5191,3.5191,3.5191,3.5191,3.5191,3.5191,0.0,0.0,0.0,0.0,0.0,0.0,0.0,0.0,0.0,0.0,0.0,0.0,0.0,3.5939,3.6072,3.65,3.6794,3.6941,3.6941,3.6941,3.6941,3.6941,3.6941,3.6941,3.6941,3.6941,0.0,0.0,0.0,3.6941,3.6941,3.6941,3.6967,3.7275,3.7555,3.7849,3.8143,3.8477,3.8718,3.8718,3.8718,3.8718,3.8718,3.8718,3.8718,3.8718,3.8718,3.8718,3.8718,3.8718,3.8718,3.8718,3.8718,3.8718,3.8718,3.8718,3.8718,3.8718,3.8718,3.8718,3.8718,3.8718,3.8718,3.8718,3.8718,3.8718,3.8718,3.8718,3.8718,3.8718,3.8718,3.8718,3.8718,3.8718,3.8718,3.8718,3.7037,3.4651,3.1568,3.131,2.989,2.6814,2.6566,2.5137,2.1812,2.1812,2.1093,1.9664,1.9664,1.9664,1.9664,1.9664,1.9664,3.2545,3.2973,3.3414,3.3414,3.3414,3.3414,3.3414,3.3654,3.3975,3.4255,3.4563,3.4857,3.5137,3.5191,3.5191,3.5191,3.5191,3.5191,3.5191,3.5191,0.0,0.0,0.0,0.0,0.0,0.0,0.0,0.0,0.0,0.0,0.0,0.0,0.0,3.6059,3.6353,3.6647,3.6941,3.6941,3.6941,3.6941,3.6941,3.6941,3.6941,3.6941,3.6941,0.0,0.0,0.0,3.6941,3.6941,3.6941,3.6981,3.7301,3.7595,3.7849,3.8223,3.8504,3.8718,3.8718,3.8718,3.8718,3.8718,3.8718,3.8718,3.8718,3.8718,3.8718,3.8718,3.8718,3.8718,3.8718,3.8718,3.8718,3.8718,3.8718,3.8718,3.8718,3.8718,3.8718,3.8718,3.8718,3.8718,3.8718,3.8718,3.8718,3.8718,3.8718,3.8718,3.8718,3.8718,3.8718,3.8718,3.8718,3.8718,3.8718,3.8718,3.7529,3.4885,3.4639,3.3218,3.0137,2.9415,2.775,2.4434,2.4425,2.2756,1.9664,1.9664,1.9664,1.9664,1.9664,1.9664,3.2545,3.2973,3.3414,3.3414,3.3414,3.3414,3.3414,3.3654,3.3975,3.4255,3.4563,3.4857,3.5137,3.5191,3.5191,3.5191,3.5191,3.5191,0.0,0.0,0.0,0.0,0.0,0.0,0.0,0.0,0.0,0.0,0.0,0.0,0.0,0.0,0.0,3.6059,3.6353,3.6647,3.6941,3.6941,3.6941,3.6941,3.6941,3.6941,3.6941,3.6941,3.6941,0.0,0.0,3.6941,3.6941,3.6941,3.6941,3.6981,3.7529,3.7782,3.7889,3.8437,3.8691,3.8718,3.8718,3.8718,3.8718,3.8718,3.8718,3.8718,3.8718,3.8718,3.8718,3.8718,3.8718,3.8718,3.8718,3.8718,3.8718,3.8718,3.8718,3.8718,3.8718,3.8718,3.8718,3.8718,3.8718,3.8718,3.8718,3.8718,3.8718,3.8718,3.8718,3.8718,3.8718,3.8718,3.8718,3.8718,3.8718,3.8718,3.8718,3.8718,3.8499,3.8007,3.8007,3.6546,3.3218,3.0601,2.775,2.4434,2.4425,2.2756,1.9664,1.9664,1.9664,1.9664,1.9664,1.9664,3.2545,3.2973,3.3414,3.3414,3.3414,3.3414,3.3414,3.3654,3.3975,3.4255,3.4563,3.4857,3.5137,0.0,3.5191,3.5191,0.0,3.5191,3.5191,0.0,0.0,0.0,0.0,0.0,0.0,0.0,0.0,0.0,0.0,0.0,0.0,0.0,0.0,0.0,3.6206,3.6473,3.6941,3.6941,3.6941,3.6941,3.6941,3.6941,3.6941,3.6941,3.6941,3.6941,0.0,3.6941,3.6941,3.6941,3.6941,3.7008,3.7595,3.7809,3.7889,3.8504,3.8718,3.8718,3.8718,3.8718,3.8718,3.8718,3.8718,3.8718,3.8718,3.8718,3.8718,3.8718,3.8718,3.8718,3.8718,3.8718,3.8718,3.8718,3.8718,3.8718,3.8718,3.8718,3.8718,3.8718,3.8718,3.8718,3.8718,3.8718,3.8718,3.8718,3.8718,3.8718,3.8718,3.8718,3.8718,3.8718,3.8718,3.8718,3.8718,3.8718,3.8718,3.8718,3.8718,3.8021,3.6546,3.5119,3.2736,2.9663,2.9415,2.7053,2.2288,2.2288,2.1328,1.9664,1.9664,1.9664,3.2545,3.2973,3.3414,3.3414,3.3414,3.3414,3.3414,3.3601,3.3881,3.4242,3.4496,3.4763,0.0,3.5191,0.0,3.5191,0.0,0.0,0.0,0.0,0.0,0.0,0.0,0.0,0.0,0.0,0.0,0.0,0.0,0.0,0.0,0.0,0.0,0.0,3.6072,3.6353,3.6941,3.6941,3.6941,3.6941,3.6941,3.6941,3.6941,3.6941,3.6941,3.6941,3.6941,3.6941,3.6941,3.6941,3.6941,3.7008,3.7595,3.7889,3.8076,3.8544,3.8718,3.8718,3.8718,3.8718,3.8718,3.8718,3.8718,3.8718,3.8718,3.8718,3.8718,3.8718,3.8718,3.8718,3.8718,3.8718,3.8718,3.8718,3.8718,3.8718,3.8718,3.8718,3.8718,3.8718,3.8718,3.8718,3.8718,3.8718,3.8718,3.8718,3.8718,3.8718,3.8718,3.8718,3.8718,3.8718,3.8718,3.8718,3.8718,3.8718,3.8718,3.8718,3.8718,3.8718,3.8718,3.8718,3.7283,3.3923,3.3923,3.1085,2.5617,2.4666,2.323,2.0858,2.0144,1.9664,3.2545,3.2973,3.3414,3.3414,3.3414,3.3414,3.3414,3.3427,3.3614,3.4202,3.4336,3.4523,3.5084,3.5191,3.5191,3.5191,0.0,0.0,0.0,0.0,0.0,0.0,0.0,0.0,0.0,0.0,0.0,0.0,0.0,0.0,0.0,0.0,0.0,0.0,3.6072,3.6353,3.6941,3.6941,3.6941,3.6941,3.6941,3.6941,3.6941,3.6941,3.6941,3.6941,3.6941,3.6941,3.6941,3.6941,3.6941,3.7008,3.7595,3.817,3.8651,3.8718,3.8718,3.8718,3.8718,3.8718,3.8718,3.8718,3.8718,3.8718,3.8718,3.8718,3.8718,3.8718,3.8718,3.8718,3.8718,3.8718,3.8718,3.8718,3.8718,3.8718,3.8718,3.8718,3.8718,3.8718,3.8718,3.8718,3.8718,3.8718,3.8718,3.8718,3.8718,3.8718,3.8718,3.8718,3.8718,3.8718,3.8718,3.8718,3.8718,3.8718,3.8718,3.8718,3.8718,3.8718,3.8718,3.8718,3.7283,3.3923,3.3923,3.2276,2.894,2.5857,2.4185,2.3953,2.1093,1.9664,3.2545,3.2973,3.3414,3.3414,3.3414,3.3414,3.3414,3.3561,3.3828,3.4242,3.4469,3.4723,3.5124,3.5191,3.5191,0.0,0.0,0.0,0.0,0.0,0.0,0.0,0.0,0.0,0.0,0.0,0.0,0.0,0.0,0.0,0.0,0.0,0.0,0.0,3.6072,3.6353,3.6941,3.6941,3.6941,3.6941,3.6941,3.6941,3.6941,3.6941,3.6941,3.6941,3.6941,3.6941,3.6941,3.6941,3.7048,3.7275,3.7863,3.8357,3.8718,3.8718,3.8718,3.8718,3.8718,3.8718,3.8718,3.8718,3.8718,3.8718,3.8718,3.8718,3.8718,3.8718,3.8718,3.8718,3.8718,3.8718,3.8718,3.8718,3.8718,3.8718,3.8718,3.8718,3.8718,3.8718,3.8718,3.8718,3.8718,3.8718,3.8718,3.8718,3.8718,3.8718,3.8718,3.8718,3.8718,3.8718,3.8718,3.8718,3.8718,3.8718,3.8718,3.8718,3.8718,3.8718,3.8718,3.8718,3.8227,3.7025,3.6817,3.5378,3.2029,3.0837,2.9188,2.7282,2.4193,2.2522,3.2652,3.304,3.3414,3.3414,3.3414,3.3414,3.3414,3.3574,3.3855,3.4242,3.4629,3.4963,3.5164,3.5191,3.5191,0.0,0.0,0.0,0.0,0.0,0.0,0.0,0.0,0.0,0.0,0.0,0.0,0.0,0.0,0.0,0.0,0.0,0.0,0.0,3.6072,3.6353,3.6941,3.6941,3.6941,3.6941,3.6941,3.6941,3.6941,3.6941,3.6941,3.6941,3.6941,3.6941,3.6941,3.6941,3.7155,3.7569,3.8076,3.8437,3.8718,3.8718,3.8718,3.8718,3.8718,3.8718,3.8718,3.8718,3.8718,3.8718,3.8718,3.8718,3.8718,3.8718,3.8718,3.8718,3.8718,3.8718,3.8718,3.8718,3.8718,3.8718,3.8718,3.8718,3.8718,3.8718,3.8718,3.8718,3.8718,3.8718,3.8718,3.8718,3.8718,3.8718,3.8718,3.8718,3.8718,3.8718,3.8718,3.8718,3.8718,3.8718,3.8718,3.8718,3.8718,3.8718,3.8718,3.8718,3.8718,3.8718,3.8718,3.7529,3.5353,3.4404,3.2736,3.0601,2.7282,2.5368,3.2906,3.3187,3.3414,3.3414,3.3414,3.3414,3.3414,3.3414,3.3587,3.4189,3.479,3.5191,3.5191,3.5191,0.0,0.0,0.0,0.0,0.0,0.0,0.0,0.0,0.0,0.0,0.0,0.0,0.0,0.0,0.0,0.0,0.0,0.0,0.0,0.0,3.6072,3.6353,3.6941,3.6941,3.6941,3.6941,3.6941,3.6941,3.6941,3.6941,3.6941,3.6941,3.6941,3.6941,3.6941,3.6941,3.7301,3.7849,3.8143,3.8437,3.8718,3.8718,3.8718,3.8718,3.8718,3.8718,3.8718,3.8718,3.8718,3.8718,3.8718,3.8718,3.8718,3.8718,3.8718,3.8718,3.8718,3.8718,3.8718,3.8718,3.8718,3.8718,3.8718,3.8718,3.8718,3.8718,3.8718,3.8718,3.8718,3.8718,3.8718,3.8718,3.8718,3.8718,3.8718,3.8718,3.8718,3.8718,3.8718,3.8718,3.8718,3.8718,3.8718,3.8718,3.8718,3.8718,3.8718,3.8718,3.8718,3.8718,3.8718,3.8718,3.8718,3.5599,3.3923,3.3923,3.0611,2.753,3.2906,3.3187,0.0,3.3414,0.0,3.3414,3.3414,3.3414,3.3587,3.4189,3.479,3.5191,3.5191,3.5191,0.0,0.0,0.0,0.0,0.0,0.0,0.0,0.0,0.0,0.0,0.0,0.0,0.0,0.0,0.0,0.0,0.0,0.0,0.0,0.0,3.6072,3.6353,3.6941,3.6941,3.6941,3.6941,3.6941,3.6941,3.6941,3.6941,3.6941,3.6941,3.6941,3.6941,3.6967,3.7382,3.7662,3.7849,3.8397,3.8651,3.8718,3.8718,3.8718,3.8718,3.8718,3.8718,3.8718,3.8718,3.8718,3.8718,3.8718,3.8718,3.8718,3.8718,3.8718,3.8718,3.8718,3.8718,3.8718,3.8718,3.8718,3.8718,3.8718,3.8718,3.8718,3.8718,3.8718,3.8718,3.8718,3.8718,3.8718,3.8718,3.8718,3.8718,3.8718,3.8718,3.8718,3.8718,3.8718,3.8718,3.8718,3.8718,3.8718,3.8718,3.8718,3.8718,3.8718,3.8718,3.8718,3.8718,3.8718,3.8718,3.8718,3.7749,3.7296,3.7283,3.3935,3.2018,3.3066,0.0,0.0,3.3414,3.3414,3.344,3.3574,3.3694,3.3908,3.4402,3.487,3.5191,3.5191,3.5191,0.0,0.0,0.0,0.0,0.0,0.0,0.0,0.0,0.0,0.0,0.0,0.0,0.0,0.0,0.0,0.0,0.0,0.0,0.0,0.0,3.6072,3.6353,3.6941,3.6941,3.6941,3.6941,3.6941,3.6941,3.6941,3.6941,3.6941,3.6941,3.6941,3.6941,3.6981,3.7555,3.7809,3.7889,3.8464,3.8718,3.8718,3.8718,3.8718,3.8718,3.8718,3.8718,3.8718,3.8718,3.8718,3.8718,3.8718,3.8718,3.8718,3.8718,3.8718,3.8718,3.8718,3.8718,3.8718,3.8718,3.8718,3.8718,3.8718,3.8718,3.8718,3.8718,3.8718,3.8718,3.8718,3.8718,3.8718,3.8718,3.8718,3.8718,3.8718,3.8718,3.8718,3.8718,3.8718,3.8718,3.8718,3.8718,3.8718,3.8718,3.8718,3.8718,3.8718,3.8718,3.8718,3.8718,3.8718,3.8718,3.8718,3.8718,3.8718,3.8718,3.6804,3.5119,3.3334,0.0,0.0,3.3414,3.3414,0.0,3.4247,3.4326,3.4402,3.4696,0.0,3.5191,3.5191,3.5191,0.0,0.0,0.0,0.0,0.0,0.0,0.0,0.0,0.0,0.0,0.0,0.0,0.0,0.0,0.0,0.0,0.0,0.0,0.0,0.0,3.6072,3.6353,3.6941,3.6941,3.6941,0.0,3.6941,3.6941,3.6941,3.6941,3.6941,3.6941,3.6941,3.6941,3.6981,3.7555,3.7809,3.7889,3.8464,3.8718,3.8718,3.8718,3.8718,3.8718,3.8718,3.8718,3.8718,3.8718,3.8718,3.8718,3.8718,3.8718,3.8718,3.8718,3.8718,3.8718,3.8718,3.8718,3.8718,3.8718,3.8718,3.8718,3.8718,3.8718,3.8718,3.8718,3.8718,3.8718,3.8718,3.8718,3.8718,3.8718,3.8718,3.8718,3.8718,3.8718,3.8718,3.8718,3.8718,3.8718,3.8718,3.8718,3.8718,3.8718,3.8718,3.8718,3.8718,3.8718,3.8718,3.8718,3.8718,3.8718,3.8718,3.8718,3.8718,3.8718,3.8718,3.705,3.3334,3.3414,0.0,0.0,3.3414,3.4136,3.6867,3.5865,3.4402,3.4696,3.499,3.5191,3.5191,0.0,0.0,0.0,0.0,0.0,0.0,0.0,0.0,0.0,0.0,0.0,0.0,0.0,0.0,0.0,0.0,0.0,0.0,0.0,0.0,0.0,3.6072,3.6353,3.6941,3.6941,3.6941,0.0,3.6941,3.6941,3.6941,3.6941,3.6941,3.6941,3.6941,3.6941,3.6981,3.7555,3.7809,3.7889,3.8464,3.8718,3.8718,3.8718,3.8718,3.8718,3.8718,3.8718,3.8718,3.8718,3.8718,3.8718,3.8718,3.8718,3.8718,3.8718,3.8718,3.8718,3.8718,3.8718,3.8718,3.8718,3.8718,3.8718,3.8718,3.8718,3.8718,3.8718,3.8718,3.8718,3.8718,3.8718,3.8718,3.8718,3.8718,3.8718,3.8718,3.8718,3.8718,3.8718,3.8718,3.8718,3.8718,3.8718,3.8718,3.8718,3.8718,3.8718,3.8718,3.8718,3.8718,3.8718,3.8718,3.8718,3.8718,3.8718,3.8718,3.8718,3.8718,3.8253,3.3374,0.0,0.0,3.3414,0.0,3.4542,3.7574,3.6428,3.5417,3.834,3.6913,0.0,0.0,0.0,0.0,0.0,0.0,0.0,0.0,0.0,0.0,0.0,0.0,0.0,0.0,0.0,0.0,0.0,0.0,0.0,0.0,0.0,0.0,0.0,3.6072,3.6353,3.6941,3.6941,3.6941,3.6941,3.6941,3.6941,3.6941,3.6941,3.6941,3.6941,3.6941,3.6941,3.6981,3.7555,3.7809,3.7889,3.8464,3.8718,3.8718,3.8718,3.8718,3.8718,3.8718,3.8718,3.8718,3.8718,3.8718,3.8718,3.8718,3.8718,3.8718,3.8718,3.8718,3.8718,3.8718,3.8718,3.8718,3.8718,3.8718,3.8718,3.8718,3.8718,3.8758,3.8905,3.8945,3.8972,3.9118,3.9132,3.9132,3.9132,3.9132,3.9092,3.8945,3.8945,3.8865,3.8731,3.8718,3.8718,3.8718,3.8718,3.8718,3.8718,3.8718,3.8718,3.8718,3.8718,3.8718,3.8718,3.8718,3.8718,3.8718,3.8718,3.8718,3.8718,3.8718,3.8718,3.3414,0.0,3.3427,3.348,3.3694,0.0,3.8283,3.6994,3.6453,4.2644,0.0,0.0,0.0,0.0,0.0,0.0,0.0,0.0,0.0,0.0,0.0,0.0,0.0,0.0,0.0,0.0,0.0,0.0,0.0,0.0,0.0,0.0,3.5471,3.6059,3.6072,3.6353,3.6941,3.6941,3.6941,3.6941,3.6941,3.6941,3.6941,3.6941,3.6941,3.6941,3.6941,3.6967,3.7048,3.7595,3.7849,3.7956,3.8504,3.8718,3.8718,3.8718,3.8718,3.8718,3.8718,3.8718,3.8718,3.8718,3.8718,3.8718,3.8718,3.8718,3.8718,3.8718,3.8718,3.8718,3.8718,3.8758,3.8798,3.8798,3.8838,3.8865,3.8798,3.8838,3.8945,3.9199,3.9225,3.9306,3.9559,3.9599,3.9599,3.9599,3.9599,3.9519,3.9265,3.9225,3.9159,3.8905,3.8838,3.8798,3.8798,3.8758,3.8718,3.8718,3.8718,3.8718,3.8718,3.8718,3.8718,3.8718,3.8718,3.8718,3.8718,3.8718,3.8718,3.8718,3.8718,3.8718,0.0,0.0,3.348,0.0,3.3855,3.541,0.0,0.0,3.7059,0.0,0.0,0.0,0.0,0.0,0.0,0.0,0.0,0.0,0.0,0.0,0.0,0.0,0.0,0.0,0.0,0.0,0.0,0.0,0.0,0.0,0.0,3.5191,3.5471,3.6059,3.6072,3.6353,3.6941,3.6941,3.6941,3.6941,3.6941,3.6941,3.6941,3.6941,3.6941,3.6941,3.6941,3.7088,3.7342,3.7676,3.7969,3.8223,3.8584,3.8718,3.8718,3.8718,3.8718,3.8718,3.8718,3.8718,3.8718,3.8718,3.8718,3.8718,3.8718,3.8718,3.8718,3.8718,3.8718,3.8718,3.8718,3.8905,3.9092,3.9092,3.9306,3.9412,3.9159,3.9306,3.9493,3.9533,3.9533,3.9559,3.9599,3.9599,3.9599,3.9599,3.9599,3.9599,3.9559,3.9533,3.9533,3.9493,3.9265,3.9092,3.9092,3.8865,3.8718,3.8718,3.8718,3.8718,3.8718,3.8718,3.8718,3.8718,3.8718,3.8718,3.8718,3.8718,3.8718,3.8718,3.8718,3.8718,3.3414,3.3547,3.3708,0.0,3.4135,3.5842,4.1521,0.0,0.0,0.0,0.0,0.0,0.0,0.0,0.0,0.0,0.0,0.0,0.0,0.0,0.0,0.0,0.0,0.0,0.0,0.0,0.0,0.0,0.0,0.0,3.5191,3.5191,3.5471,3.6059,3.6072,3.6353,3.6941,3.6941,3.6941,3.6941,3.6941,3.6941,3.6941,3.6941,3.6941,3.6941,3.6941,3.7114,3.7422,3.7702,3.7996,3.829,3.8611,3.8718,3.8718,3.8718,3.8718,3.8718,3.8718,3.8718,3.8718,3.8718,3.8718,3.8718,3.8718,3.8718,3.8718,3.8718,3.8718,3.8758,3.8945,3.9052,3.9199,3.9372,3.964,3.9813,3.9666,3.9626,3.964,3.9813,3.996,4.008,4.008,4.008,4.008,4.008,4.008,4.004,3.9853,3.9853,3.9786,3.9599,3.9493,3.9412,3.9412,3.9265,3.9159,3.8972,3.8972,3.8905,3.8731,3.8718,3.8718,3.8718,3.8718,3.8718,3.8718,3.8718,3.8718,3.8718,3.8718,3.8798,0.0,0.0,3.3801,3.3961,3.4322,3.59,0.0,0.0,0.0,0.0,0.0,0.0,0.0,0.0,0.0,0.0,0.0,0.0,0.0,0.0,0.0,0.0,0.0,0.0,0.0,0.0,0.0,0.0,0.0,0.0,3.5191,3.5191,3.5471,3.6059,3.6072,3.6353,3.6941,3.6941,3.6941,3.6941,3.6941,3.6941,3.6941,3.6941,3.6941,3.6941,3.6941,3.7155,3.7529,3.7742,3.8036,3.8397,3.8624,3.8718,3.8718,3.8718,3.8718,3.8718,3.8718,3.8718,3.8718,3.8718,3.8718,3.8718,3.8718,3.8718,3.8718,3.8718,3.8758,3.8865,3.9092,3.9265,3.9452,3.9666,3.992,4.0147,4.0147,3.996,3.9893,4.0107,4.0334,4.0481,4.0481,4.0481,4.0481,4.0481,4.0481,4.0401,4.0174,4.0147,4.0067,3.9853,3.9746,3.9706,3.9706,3.964,3.9493,3.9265,3.9265,3.9118,3.8838,3.8838,3.8798,3.8718,3.8718,3.8718,3.8718,3.8718,3.8758,3.8838,3.8838,3.8972,3.3414,3.3427,0.0,3.4148,0.0,0.0,0.0,0.0,0.0,0.0,0.0,0.0,0.0,0.0,0.0,0.0,0.0,0.0,0.0,0.0,0.0,0.0,0.0,0.0,0.0,0.0,0.0,0.0,0.0,0.0,3.5191,3.5191,3.5471,3.6059,3.6072,3.6353,3.6941,3.6941,3.6941,3.6941,3.6941,3.6941,3.6941,3.6941,3.6941,3.6941,3.6941,3.7261,3.7782,3.7809,3.8183,3.8691,3.8718,3.8718,3.8718,3.8718,3.8718,3.8718,3.8718,3.8718,3.8718,3.8718,3.8718,3.8718,3.8718,3.8718,3.8718,3.8718,3.8905,3.9118,3.9159,3.9559,4.0,4.0,4.0254,4.0441,4.0441,4.0441,4.0441,4.0441,4.0481,4.0481,4.0481,4.0481,4.0481,4.0481,4.0481,4.0481,4.0441,4.0441,4.0441,4.0441,4.0187,4.0,4.0,3.9746,3.9599,3.9559,3.9559,3.9452,3.9159,3.9118,3.9012,3.8718,3.8718,3.8718,3.8718,3.8718,3.8865,3.9118,3.9118,3.9306,3.3721,3.3988,0.0,3.4549,3.475,0.0,0.0,0.0,0.0,0.0,0.0,0.0,0.0,0.0,0.0,0.0,0.0,0.0,0.0,0.0,0.0,0.0,0.0,0.0,0.0,0.0,0.0,0.0,0.0,0.0,3.5191,3.5191,3.5471,3.6059,3.6072,3.6353,3.6941,3.6941,3.6941,3.6941,3.6941,3.6941,3.6941,3.6941,3.6941,3.6941,3.6941,3.7261,3.7809,3.7809,3.8183,3.8718,3.8718,3.8718,3.8718,3.8718,3.8718,3.8718,3.8718,3.8718,3.8718,3.8718,3.8718,3.8718,3.8718,3.8718,3.8758,3.8945,3.9078,3.9225,3.9626,3.988,4.0067,4.0254,4.0401,4.0481,4.0481,4.0481,4.0481,4.0481,4.0481,4.0481,4.0481,4.0481,4.0481,4.0481,4.0481,4.0481,4.0481,4.0481,4.0481,4.0481,4.0361,4.0321,4.0321,4.0214,4.008,3.9893,3.9893,3.9746,3.9452,3.9452,3.9386,3.9279,3.9279,3.9199,3.9012,3.9012,3.9159,3.9452,3.9452,3.9599,3.4028,3.4322,3.4643,0.0,0.0,0.0,0.0,0.0,0.0,0.0,0.0,0.0,0.0,0.0,0.0,0.0,0.0,0.0,0.0,0.0,0.0,0.0,0.0,0.0,0.0,0.0,0.0,0.0,0.0,0.0,3.5191,3.5191,3.5471,3.6059,3.6259,3.654,3.6941,3.6941,3.6941,3.6941,3.6941,3.6941,3.6941,3.6941,3.6941,3.6941,3.7048,3.7382,3.7809,3.7809,3.8183,3.8718,3.8718,3.8718,3.8718,3.8718,3.8718,3.8718,3.8718,3.8718,3.8718,3.8718,3.8718,3.8718,3.8718,3.8798,3.8905,3.9092,3.9306,3.9559,3.992,4.0107,4.0214,4.0441,4.0481,4.0481,4.0481,4.0481,4.0481,4.0481,4.0481,4.0481,4.0481,4.0481,4.0481,4.0481,4.0481,4.0481,4.0481,4.0481,4.0481,4.0481,4.0481,4.0481,4.0481,4.0481,4.0401,4.0187,4.0187,4.004,3.9746,3.9746,3.9706,3.9599,3.9599,3.9559,3.9452,3.9346,3.9452,3.9746,3.9746,3.9893,0.0,0.0,0.0,3.471,0.0,0.0,0.0,0.0,0.0,0.0,0.0,0.0,0.0,0.0,0.0,0.0,0.0,0.0,0.0,0.0,0.0,0.0,0.0,0.0,0.0,0.0,0.0,0.0,0.0,3.5191,3.5191,3.5217,3.5485,3.6059,3.6647,3.6941,3.6941,3.6941,3.6941,3.6941,3.6941,3.6941,3.6941,3.6941,3.6941,3.6941,3.7261,3.7555,3.7809,3.7809,3.8183,3.8718,3.8718,3.8718,3.8718,3.8718,3.8718,3.8718,3.8718,3.8718,3.8718,3.8718,3.8718,3.8718,3.8731,3.8945,3.9159,3.9185,3.9599,4.0027,4.0027,4.0254,4.0481,4.0481,4.0481,4.0481,4.0481,4.0481,4.0481,4.0481,4.0481,4.0481,4.0481,4.0481,4.0481,4.0481,4.0481,4.0481,4.0481,4.0481,4.0481,4.0481,4.0481,4.0481,4.0481,4.0481,4.0481,4.0481,4.0481,4.0334,4.0067,4.0027,3.992,3.964,3.964,3.9773,4.0027,3.9746,3.9746,4.0027,4.0027,4.0214,3.7637,0.0,0.0,0.0,0.0,0.0,0.0,0.0,0.0,0.0,0.0,0.0,0.0,0.0,0.0,0.0,0.0,0.0,0.0,0.0,0.0,0.0,0.0,0.0,0.0,0.0,0.0,0.0,3.5191,3.5191,3.5191,3.5591,3.5899,3.6072,3.6647,3.6941,3.6941,3.6941,3.6941,3.6941,3.6941,3.6941,3.6941,3.6941,3.6941,3.6941,3.7261,3.7555,3.7823,3.8036,3.8357,3.8718,3.8718,3.8718,3.8718,3.8718,3.8718,3.8718,3.8718,3.8718,3.8718,3.8718,3.8718,3.8758,3.8972,3.9078,3.9225,3.9666,3.992,4.0067,4.0294,4.0401,4.0481,4.0481,4.0481,4.0481,4.0481,4.0481,4.0481,4.0481,4.0481,4.0481,4.0481,4.0481,4.0481,4.0481,4.0481,4.0481,4.0481,4.0481,4.0481,4.0481,4.0481,4.0481,4.0481,4.0481,4.0481,4.0481,4.0481,4.0441,4.0361,4.0361,4.0334,4.0227,4.0227,4.0254,4.0361,4.0067,4.0067,4.0361,4.0361,4.0401,3.8986,3.7093,3.5191,3.5191,0.0,0.0,3.5191,3.5191,0.0,0.0,0.0,0.0,0.0,0.0,0.0,0.0,0.0,0.0,0.0,0.0,0.0,0.0,0.0,0.0,0.0,0.0,0.0,0.0,3.5191,3.5191,3.5191,3.5752,3.6072,3.6072,3.6647,3.6941,3.6941,3.6941,3.6941,3.6941,3.6941,3.6941,3.6941,3.6941,3.6941,3.6967,3.7382,3.7676,3.7849,3.829,3.8544,3.8718,3.8718,3.8718,3.8718,3.8718,3.8718,3.8718,3.8718,3.8718,3.8718,3.8718,3.8798,3.8945,3.9118,3.9332,3.9599,3.992,4.0107,4.0254,4.0441,4.0481,4.0481,4.0481,4.0481,4.0481,4.0481,4.0481,4.0481,4.0481,4.0481,4.0481,4.0481,4.0481,4.0481,4.0481,4.0481,4.0481,4.0481,4.0481,4.0481,4.0481,4.0481,4.0481,4.0481,4.0481,4.0481,4.0481,4.0481,4.0481,4.0481,4.0481,4.0481,4.0481,4.0481,4.0481,4.0481,4.0294,4.0294,4.0481,4.0481,4.0481,4.0286,3.8054,3.5599,3.5599,3.5401,0.0,3.5191,3.5191,3.5809,0.0,0.0,0.0,0.0,0.0,0.0,0.0,0.0,0.0,0.0,0.0,0.0,0.0,0.0,0.0,0.0,0.0,3.5191,3.5191,3.5191,3.5191,3.5191,3.5752,3.6072,3.6072,3.6647,3.6941,3.6941,3.6941,3.6941,3.6941,3.6941,3.6941,3.6941,3.6941,3.6941,3.6967,3.7555,3.7809,3.7849,3.8464,3.8718,3.8718,3.8718,3.8718,3.8718,3.8718,3.8718,3.8718,3.8718,3.8718,3.8718,3.8718,3.8905,3.9159,3.9199,3.9599,4.0027,4.0067,4.0254,4.0481,4.0481,4.0481,4.0481,4.0481,4.0481,4.0481,4.0481,4.0481,4.0481,4.0481,4.0481,4.0481,4.0481,4.0481,4.0481,4.0481,4.0481,4.0481,4.0481,4.0481,4.0481,4.0481,4.0481,4.0481,4.0481,4.0481,4.0481,4.0481,4.0481,4.0481,4.0481,4.0481,4.0481,4.0481,4.0481,4.0481,4.0481,4.0481,4.0481,4.0481,4.0481,4.0481,4.5753,4.2318,3.8456,3.8456,3.6831,0.0,3.5191,3.5191,3.5401,0.0,0.0,0.0,0.0,0.0,0.0,0.0,0.0,0.0,0.0,0.0,0.0,0.0,0.0,0.0,0.0,0.0,3.5191,3.5191,3.5191,3.5191,3.5191,3.5752,3.6072,3.6072,3.6647,3.6941,3.6941,3.6941,3.6941,3.6941,3.6941,3.6941,3.6941,3.6941,3.6941,3.6967,3.7555,3.7809,3.7849,3.8464,3.8718,3.8718,3.8718,3.8718,3.8718,3.8718,3.8718,3.8718,3.8718,3.8718,3.8718,3.8718,3.8905,3.9199,3.9452,3.9746,4.0067,4.0334,4.0441,4.0481,4.0481,4.0481,4.0481,4.0481,4.0481,4.0481,4.0481,4.0481,4.0481,4.0481,4.0481,4.0481,4.0481,4.0481,4.0481,4.0481,4.0481,4.0481,4.0481,4.0481,4.0481,4.0481,4.0481,4.0481,4.0481,4.0481,4.0481,4.0481,4.0481,4.0481,4.0481,4.0481,4.0481,4.0481,4.0481,4.0481,4.0481,4.0481,4.0481,4.0481,4.0481,4.0481,4.7383,4.4329,4.1297,4.1297,4.0286,0.0,0.0,3.8248,3.8456,0.0,0.0,0.0,0.0,0.0,0.0,0.0,0.0,0.0,0.0,0.0,0.0,0.0,0.0,0.0,0.0,0.0,3.5191,3.5191,3.5191,3.5191,3.5191,3.5752,3.6072,3.6072,3.6647,3.6941,3.6941,3.6941,3.6941,3.6941,3.6941,3.6941,3.6941,3.6941,3.6941,3.6967,3.7555,3.7809,3.7849,3.8464,3.8718,3.8718,3.8718,3.8718,3.8718,3.8718,3.8718,3.8718,3.8718,3.8718,3.8758,3.8905,3.9118,3.9412,3.9746,4.0027,4.0294,4.0441,4.0481,4.0481,4.0481,4.0481,4.0481,4.0481,4.0481,4.0481,4.0481,4.0481,4.0481,4.0481,4.0481,4.0481,4.0481,4.0481,4.0481,4.0481,4.0481,4.0481,4.0481,4.0481,4.0481,4.0481,4.0481,4.0481,4.0481,4.0481,4.0481,4.0481,4.0481,4.0481,4.0481,4.0481,4.0481,4.0481,4.0481,4.0481,4.0481,4.0481,4.0481,4.0481,4.0481,4.0481,4.8176,4.6153,4.4127,4.4127,4.3723,4.2709,0.0,0.0,0.0,0.0,0.0,0.0,0.0,0.0,0.0,0.0,0.0,0.0,0.0,0.0,0.0,0.0,0.0,0.0,0.0,0.0,3.5191,3.5191,3.5191,3.5191,3.5191,3.5752,3.6072,3.6072,3.6647,3.6941,3.6941,3.6941,3.6941,3.6941,3.6941,3.6941,3.6941,3.6941,3.6981,3.7048,3.7595,3.7849,3.7929,3.8504,3.8718,3.8718,3.8718,3.8718,3.8718,3.8718,3.8718,3.8718,3.8718,3.8718,3.8758,3.9052,3.9372,3.9746,4.0027,4.0294,4.0481,4.0481,4.0481,4.0481,4.0481,4.0481,4.0481,4.0481,4.0481,4.0481,4.0481,4.0481,4.0481,4.0481,4.0481,4.0481,4.0481,4.0481,4.0481,4.0481,4.0481,4.0481,4.0481,4.0481,4.0481,4.0481,4.0481,4.0481,4.0481,4.0481,4.0481,4.0481,4.0481,4.0481,4.0481,4.0481,4.0481,4.0481,4.0481,4.0481,4.0481,4.0481,4.0481,4.0481,4.0481,4.0481,5.1017,4.9002,4.6968,4.6968,4.5134,4.3318,4.2913,0.0,4.3115,4.2506,0.0,0.0,0.0,0.0,0.0,0.0,0.0,0.0,0.0,0.0,0.0,0.0,0.0,0.0,0.0,0.0,0.0,3.5191,3.5191,3.5191,3.5191,3.5752,3.6072,3.6072,3.6647,3.6941,3.6941,3.6941,3.6941,3.6941,3.6941,3.6941,3.6941,3.6941,3.7088,3.7342,3.7676,3.7969,3.8223,3.8584,3.8718,3.8718,3.8718,3.8718,3.8718,3.8718,3.8718,3.8718,3.8718,3.8718,3.8758,3.9052,3.9519,4.004,4.0334,4.0441,4.0481,4.0481,4.0481,4.0481,4.0481,4.0481,4.0481,4.0481,4.0481,4.0481,4.0481,4.0481,4.0481,4.0481,4.0481,4.0481,4.0481,4.0481,4.0481,4.0481,4.0481,4.0481,4.0481,4.0481,4.0481,4.0481,4.0481,4.0481,4.0481,4.0481,4.0481,4.0481,4.0481,4.0481,4.0481,4.0481,4.0481,4.0481,4.0481,4.0481,4.0481,4.0481,4.0481,4.0481,4.0481,4.0481,5.1426,5.0627,4.9806,4.9806,4.8786,4.7564,4.5953,4.6968,4.7167,4.3925,0.0,0.0,0.0,0.0,0.0,0.0,4.3318,0.0,0.0,0.0,0.0,0.0,0.0,0.0,0.0,0.0,0.0,0.0,0.0,3.5191,3.5191,3.5752,3.6072,3.6072,3.6647,3.6941,3.6941,3.6941,3.6941,3.6941,3.6941,3.6941,3.6941,3.6941,3.7088,3.7382,3.7702,3.7996,3.829,3.8584,3.8718,3.8718,3.8718,3.8718,3.8718,3.8718,3.8718,3.8718,3.8718,3.8718,3.8798,3.9265,3.9813,4.0321,4.0441,4.0481,4.0481,4.0481,4.0481,4.0481,4.0481,4.0481,4.0481,4.0481,4.0481,4.0481,4.0481,4.0481,4.0481,4.0481,4.0481,4.0481,4.0481,4.0481,4.0481,4.0481,4.0481,4.0481,4.0481,4.0481,4.0481,4.0481,4.0481,4.0481,4.0481,4.0481,4.0481,4.0481,4.0481,4.0481,4.0481,4.0481,4.0481,4.0481,4.0481,4.0481,4.0481,4.0481,4.0481,4.0481,4.0481,4.0481,5.1426,5.1426,5.1426,5.1426,5.1426,5.0822,4.9002,5.0002,5.0217,4.6352,4.7167,0.0,0.0,0.0,4.6153,4.8176,0.0,4.4329,0.0,0.0,0.0,0.0,0.0,0.0,0.0,0.0,0.0,0.0,0.0,0.0,3.5191,3.5752,3.6072,3.6072,3.6647,3.6941,3.6941,3.6941,3.6941,3.6941,3.6941,3.6941,3.6941,3.6941,3.7155,3.7529,3.7702,3.8036,3.8397,3.8624,3.8718,3.8718,3.8718,3.8718,3.8718,3.8718,3.8718,3.8718,3.8718,3.8838,3.9052,3.9559,4.0067,4.0481,4.0481,4.0481,4.0481,4.0481,4.0481,4.0481,4.0481,4.0481,4.0481,4.0481,4.0481,4.0481,4.0481,4.0481,4.0481,4.0481,4.0481,4.0481,4.0481,4.0481,4.0481,4.0481,4.0481,4.0481,4.0481,4.0481,4.0481,4.0481,4.0481,4.0481,4.0481,4.0481,4.0481,4.0481,4.0481,4.0481,4.0481,4.0481,4.0481,4.0481,4.0481,4.0481,4.0481,4.0481,4.0481,4.0481,4.0481,4.0481,5.1426,5.1426,5.1426,5.1426,5.1426,5.1426,5.1231,5.1426,5.1426,5.1231,5.1231,5.1231,5.1231,5.1231,5.1231,5.1231,4.9002,0.0,0.0,0.0,0.0,0.0,0.0,0.0,0.0,0.0,0.0,0.0,0.0,0.0,3.5191,3.5752,3.6072,3.6072,3.6647,3.6941,3.6941,3.6941,3.6941,3.6941,3.6941,3.6941,3.6941,3.6941,3.7261,3.7809,3.7809,3.8143,3.8718,3.8718,3.8718,3.8718,3.8718,3.8718,3.8718,3.8718,3.8718,3.8718,3.8718,3.9092,3.964,3.992,4.0214,4.0481,4.0481,4.0481,4.0481,4.0481,4.0481,4.0481,4.0481,4.0481,4.0481,4.0481,4.0481,4.0481,4.0481,4.0481,4.0481,4.0481,4.0481,4.0481,4.0481,4.0481,4.0481,4.0481,4.0481,4.0481,4.0481,4.0481,4.0481,4.0481,4.0481,4.0481,4.0481,4.0481,4.0481,4.0481,4.0481,4.0481,4.0481,4.0481,4.0481,4.0481,4.0481,4.0481,4.0481,4.0481,4.0481,4.0481,4.0481,4.0481,0.0,0.0,5.1426,5.1426,0.0,5.1426,5.1426,5.1426,5.1426,5.1426,5.1426,5.1426,5.1426,5.1426,5.1426,5.1426,5.0627,5.0002,0.0,4.778,0.0,0.0,0.0,0.0,0.0,0.0,0.0,0.0,0.0,0.0,0.0,3.5752,3.6072,3.6072,3.6647,3.6941,3.6941,3.6941,3.7811,3.9718,3.7798,3.8004,3.9718,3.7798,3.7261,3.7809,3.7809,3.817,3.8718,3.8718,3.8718,3.8718,3.8718,3.8718,3.8718,3.8718,3.8718,3.8758,3.8945,3.9265,3.964,3.992,4.0214,4.0481,4.0481,4.0481,4.0481,4.0481,4.0481,4.0481,4.0481,4.0481,4.0481,4.0481,4.0481,4.0481,4.0481,4.0481,4.0481,4.0481,4.0481,4.0481,4.0481,4.0481,4.0481,4.0481,4.0481,4.0481,4.0481,4.0481,4.0481,4.0481,4.0481,4.0481,4.0481,4.0481,4.0481,4.0481,4.0481,4.0481,4.0481,4.0481,4.0481,4.0481,4.0481,4.0481,4.0481,4.0481,4.0481,4.0481,4.0481,4.0481,5.1426,5.1426,0.0,5.1426,5.1426,0.0,5.1426,5.1426,5.1426,5.1426,5.1426,5.1426,5.1426,5.1426,5.1426,5.1426,5.1426,5.1426,0.0,4.9806,4.778,0.0,0.0,4.1486,0.0,0.0,0.0,0.0,0.0,0.0,0.0,0.0,3.6072,3.6072,3.6647,3.6941,3.6941,3.6941,3.8431,4.1213,3.8238,3.8431,4.0996,3.8225,3.7261,3.7809,3.7809,3.817,3.8718,3.8718,3.8718,3.8718,3.8718,3.8718,3.8718,3.8718,3.8718,3.8798,3.9159,3.9452,3.9666,4.0067,4.0321,4.0481,4.0481,4.0481,4.0481,4.0481,4.0481,4.0481,4.0481,4.0481,4.0481,4.0481,4.0481,4.0481,4.0481,4.0481,4.0481,4.0481,4.0481,4.0481,4.0481,4.0481,4.0481,4.0481,4.0481,4.0481,4.0481,4.0481,4.0481,4.0481,4.0481,4.0481,4.0481,4.0481,4.0481,4.0481,4.0481,4.0481,4.0481,4.0481,4.0481,4.0481,4.0481,4.0481,4.0481,4.0481,4.0481,4.0481,4.0481,4.0481]},{"header":{"parameterUnit":"m.s-1","parameterCategory":1,"la1":30.6,"la2":29.2853,"lo1":-89.7004,"lo2":-87.6739,"dx":0.0162,"dy":0.0183,"nx":112,"ny":82,"refTime":"2023-01-20T06:00:00:Z","depth":0,"parameterNumber":3,"parameterNumberName":"V-component_of_WINDS"},"data":[0.0,0.0,0.0,0.0,0.0,0.0,0.0,0.0,0.0,0.0,0.0,0.0,0.0,0.0,0.0,0.0,0.0,0.0,0.0,0.0,0.0,0.0,0.0,0.0,0.0,0.0,0.0,0.0,0.0,0.0,0.0,0.0,0.0,0.0,0.0,0.0,0.0,0.0,0.0,0.0,0.0,0.0,0.0,0.0,0.0,0.0,0.0,0.0,0.0,0.0,0.0,0.0,0.0,0.0,0.0,0.0,0.0,0.0,0.0,0.0,0.0,0.0,0.0,0.0,0.0,0.0,0.0,0.0,0.0,0.0,0.0,0.0,0.0,0.0,0.0,0.0,0.0,0.0,0.0,0.0,0.0,0.0,0.0,0.0,0.0,0.0,0.0,0.0,0.0,0.0,-8.6517,-8.644,-8.6247,-8.6094,-8.6094,-8.6094,-8.6286,-8.6781,0.0,0.0,0.0,0.0,0.0,0.0,0.0,0.0,0.0,0.0,0.0,0.0,0.0,0.0,0.0,0.0,0.0,0.0,0.0,0.0,0.0,0.0,0.0,0.0,0.0,0.0,0.0,0.0,0.0,0.0,0.0,0.0,0.0,0.0,0.0,0.0,0.0,0.0,0.0,0.0,0.0,0.0,0.0,0.0,0.0,0.0,0.0,0.0,0.0,0.0,0.0,0.0,0.0,0.0,0.0,0.0,0.0,0.0,0.0,0.0,0.0,0.0,0.0,0.0,0.0,0.0,0.0,0.0,0.0,0.0,0.0,0.0,0.0,0.0,0.0,0.0,0.0,0.0,0.0,0.0,0.0,0.0,0.0,0.0,0.0,0.0,0.0,0.0,0.0,0.0,0.0,0.0,0.0,0.0,0.0,0.0,0.0,0.0,0.0,0.0,0.0,0.0,0.0,0.0,-8.6594,-8.6209,-8.6132,-8.6094,-8.6094,-8.6094,-8.6286,-8.6781,0.0,0.0,0.0,0.0,0.0,0.0,0.0,0.0,0.0,0.0,0.0,0.0,0.0,0.0,0.0,0.0,0.0,0.0,0.0,0.0,0.0,0.0,0.0,0.0,0.0,0.0,0.0,0.0,0.0,0.0,0.0,0.0,0.0,0.0,0.0,0.0,0.0,0.0,0.0,0.0,0.0,0.0,0.0,0.0,0.0,0.0,0.0,0.0,0.0,0.0,0.0,0.0,0.0,0.0,0.0,0.0,0.0,0.0,0.0,0.0,0.0,0.0,0.0,0.0,0.0,0.0,0.0,0.0,0.0,0.0,0.0,0.0,0.0,0.0,0.0,0.0,0.0,0.0,0.0,0.0,0.0,0.0,0.0,0.0,0.0,0.0,0.0,0.0,0.0,0.0,0.0,0.0,0.0,0.0,0.0,0.0,0.0,0.0,0.0,0.0,0.0,0.0,0.0,-8.6555,-8.6517,-8.6781,-8.6819,-8.7012,-8.7473,-8.7512,-8.7512,-8.7512,-8.752,0.0,0.0,0.0,0.0,0.0,0.0,0.0,0.0,0.0,0.0,0.0,0.0,0.0,0.0,0.0,0.0,0.0,0.0,0.0,0.0,0.0,0.0,0.0,0.0,0.0,0.0,0.0,0.0,0.0,0.0,0.0,0.0,0.0,0.0,0.0,0.0,0.0,0.0,0.0,0.0,0.0,0.0,0.0,0.0,0.0,0.0,0.0,0.0,0.0,0.0,0.0,0.0,0.0,0.0,0.0,0.0,0.0,0.0,0.0,0.0,0.0,0.0,0.0,0.0,0.0,0.0,0.0,0.0,0.0,0.0,0.0,0.0,0.0,0.0,0.0,0.0,0.0,0.0,0.0,0.0,0.0,0.0,0.0,0.0,0.0,0.0,0.0,0.0,0.0,0.0,0.0,0.0,0.0,0.0,0.0,0.0,0.0,0.0,0.0,0.0,0.0,0.0,-8.6896,-8.6973,-8.7627,-8.7704,-8.8012,-8.8628,-8.8705,-8.8589,-8.832,-8.8365,0.0,0.0,0.0,0.0,0.0,0.0,0.0,0.0,0.0,0.0,0.0,0.0,0.0,0.0,0.0,0.0,0.0,0.0,0.0,0.0,0.0,0.0,0.0,0.0,0.0,0.0,0.0,0.0,0.0,0.0,0.0,0.0,0.0,0.0,0.0,0.0,0.0,0.0,0.0,0.0,0.0,0.0,0.0,0.0,0.0,0.0,0.0,0.0,0.0,0.0,0.0,0.0,0.0,0.0,0.0,0.0,0.0,0.0,0.0,0.0,0.0,0.0,0.0,0.0,0.0,0.0,0.0,0.0,0.0,0.0,0.0,0.0,0.0,0.0,0.0,0.0,0.0,0.0,0.0,0.0,0.0,0.0,0.0,0.0,0.0,0.0,0.0,0.0,0.0,0.0,0.0,0.0,0.0,0.0,0.0,0.0,0.0,0.0,0.0,0.0,0.0,0.0,-8.8623,-8.8546,-8.8584,-8.8632,-8.864,-8.8679,-8.8717,-8.8756,-8.8909,-8.9093,0.0,0.0,0.0,0.0,0.0,0.0,0.0,0.0,0.0,0.0,0.0,0.0,0.0,0.0,0.0,0.0,0.0,0.0,0.0,0.0,0.0,0.0,0.0,0.0,0.0,0.0,0.0,0.0,0.0,0.0,0.0,0.0,0.0,0.0,0.0,0.0,0.0,0.0,0.0,0.0,0.0,0.0,0.0,0.0,0.0,0.0,0.0,0.0,0.0,0.0,0.0,0.0,0.0,0.0,0.0,0.0,0.0,0.0,0.0,0.0,0.0,0.0,0.0,0.0,0.0,0.0,0.0,0.0,0.0,0.0,0.0,0.0,0.0,0.0,0.0,0.0,0.0,0.0,0.0,0.0,0.0,0.0,0.0,0.0,0.0,0.0,0.0,0.0,0.0,0.0,0.0,0.0,0.0,0.0,0.0,0.0,0.0,0.0,0.0,0.0,0.0,0.0,-8.8825,-8.8902,-8.9402,-8.9444,-8.9675,-9.0213,-9.0252,-9.0136,-8.9829,0.0,0.0,0.0,0.0,0.0,0.0,0.0,0.0,0.0,0.0,0.0,0.0,0.0,0.0,0.0,0.0,0.0,0.0,0.0,0.0,0.0,0.0,0.0,0.0,0.0,0.0,0.0,0.0,0.0,0.0,0.0,0.0,0.0,0.0,0.0,0.0,0.0,0.0,0.0,0.0,0.0,0.0,0.0,0.0,0.0,0.0,0.0,0.0,0.0,0.0,0.0,0.0,0.0,0.0,0.0,0.0,0.0,0.0,0.0,0.0,0.0,0.0,0.0,0.0,0.0,0.0,0.0,0.0,0.0,0.0,0.0,0.0,0.0,0.0,0.0,0.0,0.0,0.0,0.0,0.0,0.0,0.0,0.0,0.0,0.0,0.0,0.0,0.0,0.0,0.0,0.0,0.0,0.0,0.0,0.0,0.0,0.0,0.0,0.0,0.0,0.0,0.0,-8.9713,-8.9563,-8.9713,-9.0252,-9.029,-9.0521,-9.1171,-9.121,-9.1018,-9.0598,0.0,0.0,0.0,0.0,0.0,0.0,0.0,0.0,0.0,0.0,0.0,0.0,0.0,0.0,0.0,0.0,0.0,0.0,0.0,0.0,0.0,0.0,0.0,0.0,0.0,0.0,0.0,0.0,0.0,0.0,0.0,0.0,0.0,0.0,0.0,0.0,0.0,0.0,0.0,0.0,0.0,0.0,0.0,0.0,0.0,0.0,0.0,0.0,0.0,0.0,0.0,0.0,0.0,0.0,0.0,0.0,0.0,0.0,0.0,0.0,0.0,0.0,0.0,0.0,0.0,0.0,0.0,0.0,0.0,0.0,0.0,0.0,0.0,0.0,0.0,0.0,0.0,0.0,0.0,0.0,0.0,0.0,0.0,0.0,0.0,0.0,0.0,0.0,0.0,0.0,0.0,0.0,0.0,0.0,0.0,0.0,0.0,0.0,0.0,0.0,0.0,0.0,-9.1248,-9.1248,-9.1248,-9.1248,-9.1248,-9.1248,-9.1248,-9.1248,-9.1248,0.0,0.0,0.0,0.0,0.0,0.0,0.0,0.0,0.0,0.0,0.0,0.0,0.0,0.0,0.0,0.0,0.0,0.0,0.0,0.0,0.0,0.0,0.0,0.0,0.0,0.0,0.0,0.0,0.0,0.0,0.0,0.0,0.0,0.0,0.0,0.0,0.0,0.0,0.0,0.0,0.0,0.0,0.0,0.0,0.0,0.0,0.0,0.0,0.0,0.0,0.0,0.0,0.0,0.0,0.0,0.0,0.0,0.0,0.0,0.0,0.0,0.0,0.0,0.0,0.0,0.0,0.0,0.0,0.0,0.0,0.0,0.0,0.0,0.0,0.0,0.0,0.0,0.0,0.0,0.0,0.0,0.0,0.0,0.0,0.0,0.0,0.0,0.0,0.0,0.0,0.0,0.0,0.0,0.0,0.0,0.0,0.0,0.0,0.0,0.0,0.0,0.0,0.0,-9.2861,-9.2938,-9.2938,-9.2938,-9.2938,-9.2938,-9.2938,-9.2938,-9.2938,-9.2938,0.0,0.0,0.0,0.0,0.0,0.0,0.0,0.0,0.0,0.0,0.0,0.0,0.0,0.0,0.0,0.0,0.0,0.0,0.0,0.0,0.0,0.0,0.0,0.0,0.0,0.0,0.0,0.0,0.0,0.0,0.0,0.0,0.0,0.0,0.0,0.0,0.0,0.0,0.0,0.0,0.0,0.0,0.0,0.0,0.0,0.0,0.0,0.0,0.0,0.0,0.0,0.0,0.0,0.0,0.0,0.0,0.0,0.0,0.0,0.0,0.0,0.0,0.0,0.0,0.0,0.0,0.0,0.0,0.0,0.0,0.0,0.0,0.0,0.0,0.0,0.0,0.0,0.0,0.0,0.0,0.0,0.0,0.0,0.0,0.0,0.0,0.0,0.0,0.0,0.0,0.0,0.0,0.0,0.0,0.0,0.0,0.0,0.0,0.0,0.0,0.0,0.0,-9.3633,-9.3672,-9.3672,-9.3672,-9.3672,-9.3672,-9.3672,-9.3672,-9.3672,-9.3672,0.0,0.0,0.0,0.0,0.0,0.0,0.0,0.0,0.0,0.0,0.0,0.0,0.0,0.0,0.0,0.0,0.0,0.0,0.0,0.0,0.0,0.0,0.0,0.0,0.0,0.0,0.0,0.0,0.0,0.0,0.0,0.0,0.0,0.0,0.0,0.0,0.0,0.0,0.0,0.0,0.0,0.0,0.0,0.0,0.0,0.0,0.0,0.0,0.0,0.0,0.0,0.0,0.0,0.0,0.0,0.0,0.0,0.0,0.0,0.0,0.0,0.0,0.0,0.0,0.0,0.0,0.0,0.0,0.0,0.0,0.0,0.0,0.0,0.0,0.0,0.0,0.0,0.0,0.0,0.0,0.0,0.0,0.0,0.0,0.0,0.0,0.0,0.0,0.0,0.0,0.0,0.0,0.0,0.0,0.0,0.0,0.0,0.0,0.0,0.0,0.0,0.0,-9.3945,-9.3945,-9.3945,-9.3945,-9.3945,-9.3945,-9.3945,-9.3945,-9.3945,-9.3945,0.0,0.0,0.0,0.0,0.0,0.0,0.0,0.0,0.0,0.0,0.0,0.0,0.0,0.0,0.0,0.0,0.0,0.0,0.0,0.0,0.0,0.0,0.0,0.0,0.0,0.0,0.0,0.0,0.0,0.0,0.0,0.0,0.0,0.0,0.0,0.0,0.0,0.0,0.0,0.0,0.0,0.0,0.0,0.0,0.0,0.0,0.0,0.0,0.0,0.0,0.0,0.0,0.0,0.0,0.0,0.0,0.0,0.0,0.0,0.0,-8.6969,0.0,0.0,0.0,0.0,0.0,0.0,0.0,0.0,0.0,0.0,0.0,0.0,0.0,0.0,0.0,0.0,0.0,0.0,0.0,0.0,0.0,0.0,0.0,0.0,0.0,0.0,0.0,0.0,0.0,0.0,0.0,0.0,0.0,0.0,0.0,0.0,0.0,0.0,0.0,0.0,0.0,-9.5635,-9.5751,-9.5751,-9.5751,-9.5751,-9.5751,-9.5751,-9.5751,-9.5751,-9.5751,-9.5751,0.0,0.0,0.0,0.0,0.0,0.0,0.0,0.0,0.0,0.0,0.0,0.0,0.0,0.0,0.0,0.0,0.0,0.0,0.0,0.0,0.0,0.0,0.0,0.0,0.0,0.0,0.0,0.0,0.0,0.0,0.0,0.0,0.0,0.0,0.0,0.0,0.0,0.0,0.0,0.0,0.0,0.0,0.0,0.0,0.0,0.0,0.0,0.0,0.0,0.0,0.0,0.0,0.0,0.0,0.0,0.0,0.0,0.0,0.0,0.0,-8.8047,0.0,0.0,0.0,0.0,0.0,0.0,0.0,0.0,0.0,0.0,0.0,0.0,0.0,0.0,0.0,0.0,0.0,0.0,0.0,0.0,0.0,0.0,0.0,0.0,0.0,0.0,0.0,0.0,0.0,0.0,0.0,0.0,0.0,0.0,0.0,0.0,0.0,0.0,0.0,0.0,-9.7441,-9.7518,-9.7518,-9.7518,-9.7518,-9.7518,-9.7518,-9.7518,-9.7518,-9.7518,-9.7518,0.0,0.0,0.0,0.0,0.0,0.0,0.0,0.0,0.0,0.0,0.0,0.0,0.0,0.0,0.0,0.0,0.0,0.0,0.0,0.0,0.0,0.0,0.0,0.0,0.0,0.0,0.0,0.0,0.0,0.0,0.0,0.0,0.0,0.0,0.0,0.0,0.0,0.0,0.0,0.0,0.0,0.0,0.0,0.0,0.0,0.0,0.0,0.0,0.0,0.0,0.0,0.0,0.0,-8.8713,-8.9081,-9.0287,-8.9702,-8.9375,-8.9375,-8.9191,-8.9297,-8.9609,-9.0738,0.0,0.0,0.0,0.0,0.0,0.0,0.0,0.0,0.0,0.0,0.0,0.0,0.0,0.0,0.0,0.0,0.0,0.0,0.0,0.0,0.0,0.0,0.0,0.0,-9.8788,-9.8056,0.0,0.0,0.0,0.0,0.0,0.0,0.0,0.0,0.0,0.0,0.0,0.0,-9.8788,-9.8788,-9.8788,-9.8788,-9.8788,-9.8788,-9.8788,-9.8788,-9.8788,-9.8788,-9.8788,-9.8788,0.0,0.0,0.0,0.0,0.0,0.0,0.0,0.0,0.0,0.0,0.0,0.0,0.0,0.0,0.0,0.0,0.0,0.0,0.0,0.0,0.0,0.0,0.0,0.0,0.0,0.0,0.0,0.0,0.0,0.0,0.0,0.0,-8.5135,-8.4506,0.0,0.0,0.0,0.0,0.0,0.0,0.0,0.0,0.0,0.0,0.0,0.0,0.0,0.0,-8.8929,-8.8929,-8.9077,-8.9403,-8.9273,-8.9349,-8.9532,-8.9422,-8.9386,-8.9386,-8.9349,0.0,-9.032,-9.0563,0.0,0.0,0.0,0.0,0.0,0.0,0.0,0.0,0.0,0.0,0.0,0.0,0.0,0.0,0.0,0.0,0.0,0.0,0.0,0.0,0.0,0.0,-9.8788,-9.8788,-9.8788,-9.8673,0.0,-9.8211,-9.8363,-9.8478,-9.8557,0.0,0.0,0.0,0.0,0.0,0.0,0.0,-9.8788,-9.8788,-9.8788,-9.8788,-9.8788,-9.8788,-9.8788,-9.8788,-9.8788,-9.8788,-9.8788,-9.8788,-9.8788,-9.8788,0.0,0.0,0.0,0.0,0.0,0.0,0.0,0.0,0.0,0.0,0.0,0.0,0.0,0.0,0.0,0.0,0.0,0.0,0.0,0.0,0.0,0.0,0.0,0.0,0.0,0.0,0.0,0.0,0.0,-8.504,-8.4894,-8.4639,-8.5271,-8.5595,0.0,0.0,0.0,0.0,0.0,0.0,0.0,0.0,0.0,-8.89,-8.8867,-8.9014,-8.9378,-8.9381,-8.9638,-9.0113,-9.0044,-9.0557,-9.151,-9.151,-9.173,-9.217,-9.217,-9.2316,-9.2533,-9.1619,-9.2084,-9.3577,0.0,0.0,0.0,0.0,0.0,-9.5873,-9.5508,-9.6172,0.0,-9.7595,0.0,0.0,0.0,0.0,0.0,0.0,0.0,0.0,0.0,0.0,0.0,-10.0211,-10.0211,-10.0211,-10.0211,-10.0212,-10.0096,0.0,-9.9519,-9.9673,-10.0096,-10.0211,0.0,0.0,0.0,-10.0211,-10.0211,-10.0211,-10.0211,-10.0211,-10.0211,-10.0211,-10.0211,-10.0211,-10.0211,-10.0211,-10.0211,-10.0211,-10.0211,-10.0211,-10.0211,0.0,0.0,0.0,0.0,0.0,0.0,0.0,0.0,0.0,0.0,0.0,0.0,0.0,0.0,0.0,0.0,0.0,0.0,0.0,0.0,0.0,0.0,0.0,0.0,0.0,0.0,0.0,0.0,-8.541,-8.5306,-8.549,-8.604,-8.6481,0.0,0.0,0.0,0.0,0.0,0.0,-8.9381,-8.9417,-8.9491,-8.9711,-8.9711,-8.9931,-9.0298,-9.0373,-9.074,-9.1583,-9.1583,-9.2207,-9.3455,-9.3382,-9.3713,-9.4301,-9.4301,-9.4301,-9.4191,-9.2868,-9.3198,-9.4589,-9.5097,-9.582,-9.6477,-9.6324,-9.6815,-9.7604,-9.7379,-9.798,-9.8826,-9.9057,0.0,-9.9442,-9.9442,0.0,0.0,0.0,0.0,-10.0404,-10.0404,-10.0904,-10.1289,-10.1289,-10.1289,-10.1289,-10.1289,-10.1289,-10.1096,0.0,-10.0404,-10.0596,-10.1212,-10.1289,0.0,-10.1289,-10.1289,-10.1289,-10.1289,-10.1289,-10.1289,-10.1289,-10.1289,-10.1289,-10.1289,-10.1289,-10.1289,-10.1289,-10.1289,-10.1289,-10.1289,-10.1289,-10.1289,-10.1289,0.0,0.0,0.0,0.0,0.0,0.0,0.0,0.0,0.0,0.0,0.0,0.0,0.0,0.0,0.0,0.0,0.0,0.0,0.0,0.0,0.0,0.0,0.0,0.0,0.0,0.0,0.0,0.0,0.0,-8.7912,-8.8059,0.0,0.0,0.0,0.0,-8.9344,-8.9344,-8.9381,-8.9417,-8.9417,-8.9748,-9.0554,-9.0519,-9.1325,-9.2904,-9.2904,-9.3272,-9.4117,-9.4117,-9.419,-9.4264,-9.4261,-9.4292,-9.4329,-9.4329,-9.4329,-9.4292,-9.4228,-9.4595,-9.5331,-9.5405,-9.5883,-9.6398,-9.5698,-9.6397,-9.7469,-9.681,-9.7519,-9.8942,-9.9788,-10.0596,-10.1212,-10.1212,-10.1212,0.0,0.0,-10.1212,-10.1212,-10.1212,-10.1289,-10.1289,-10.1289,-10.1289,-10.1289,-10.1289,-10.1289,-10.1289,0.0,-10.1212,-10.1289,-10.1289,0.0,-10.1289,-10.1289,-10.1289,-10.1289,-10.1289,-10.1289,-10.1289,-10.1289,-10.1289,-10.1289,-10.1289,-10.1289,-10.1289,-10.1289,-10.1289,-10.1289,-10.1289,-10.1289,-10.1289,-10.1289,-10.1289,0.0,0.0,0.0,0.0,0.0,0.0,0.0,0.0,0.0,0.0,0.0,0.0,0.0,0.0,0.0,0.0,0.0,0.0,0.0,0.0,0.0,0.0,0.0,0.0,0.0,0.0,0.0,0.0,-8.894,-8.8977,0.0,-8.9381,-8.9417,-8.9638,-9.0152,-9.0188,-9.0408,-9.0922,-9.1473,-9.1913,-9.217,-9.272,-9.3271,-9.386,-9.3859,-9.4041,-9.4298,-9.4298,-9.4554,-9.507,-9.5028,-9.5358,-9.5875,-9.5875,-9.5875,-9.5838,-9.588,-9.5697,-9.5476,-9.5471,-9.5948,-9.6612,-9.6315,-9.6869,-9.7654,-9.7468,-9.8365,-9.9827,-10.0596,-10.1096,-10.1289,-10.1289,-10.1289,-10.1289,-10.1289,-10.1289,-10.1289,-10.1289,-10.1289,-10.1289,-10.1289,-10.1289,-10.1289,-10.1289,-10.1289,-10.1289,-10.1289,-10.1289,-10.1289,-10.1289,-10.1289,-10.1289,-10.1289,-10.1289,-10.1289,-10.1289,-10.1289,-10.1289,-10.1289,-10.1289,-10.1289,-10.1289,-10.1289,-10.1289,-10.1289,-10.1289,-10.1289,-10.1289,-10.1289,-10.1289,-10.1289,-10.1289,-10.1289,0.0,0.0,0.0,0.0,0.0,0.0,0.0,0.0,0.0,0.0,0.0,0.0,0.0,0.0,0.0,0.0,0.0,0.0,0.0,0.0,0.0,0.0,0.0,0.0,0.0,0.0,-8.9528,-8.9784,-8.9821,-8.9931,-9.0188,-9.0225,-9.0555,-9.14,-9.1436,-9.1803,-9.2611,-9.3198,-9.3492,-9.3492,-9.4044,-9.4448,-9.4706,-9.4703,-9.4845,-9.5138,-9.5138,-9.5395,-9.5911,-9.5911,-9.6168,-9.6685,-9.6685,-9.6685,-9.6685,-9.6685,-9.6428,-9.5911,-9.5911,-9.6205,-9.6685,-9.6685,-9.7203,-9.7838,-9.8441,-9.9458,-10.0673,-10.1096,-10.1289,-10.1289,-10.1289,-10.1289,-10.1289,-10.1289,-10.1289,-10.1289,-10.1289,-10.1289,-10.1289,-10.1289,-10.1289,-10.1289,-10.1289,-10.1289,-10.1289,-10.1289,-10.1289,-10.1289,-10.1289,-10.1289,-10.1289,-10.1289,-10.1289,-10.1289,-10.1289,-10.1289,-10.1289,-10.1289,-10.1289,-10.1289,-10.1289,-10.1289,-10.1289,-10.1289,-10.1289,-10.1289,-10.1289,-10.1289,-10.1365,-10.1711,-10.1673,-10.1597,-10.1289,0.0,0.0,0.0,0.0,0.0,0.0,0.0,0.0,0.0,0.0,0.0,0.0,0.0,0.0,0.0,0.0,0.0,0.0,0.0,0.0,0.0,0.0,0.0,-8.9601,-8.9491,-8.9784,-9.0592,-9.0702,-9.0996,-9.1803,-9.1877,-9.2244,-9.3088,-9.3125,-9.3492,-9.4263,-9.4299,-9.4336,-9.4336,-9.4336,-9.474,-9.555,-9.5513,-9.5917,-9.6685,-9.6685,-9.6685,-9.6685,-9.6685,-9.6685,-9.6685,-9.6685,-9.6685,-9.6685,-9.6685,-9.6685,-9.6685,-9.6685,-9.6685,-9.6685,-9.6685,-9.7166,-9.7978,-9.9572,-10.0646,-10.1212,-10.1289,-10.1289,-10.1289,-10.1289,-10.1289,-10.1289,-10.1289,-10.1289,-10.1289,-10.1289,-10.1289,-10.1289,-10.1289,-10.1289,-10.1289,-10.1404,-10.1404,-10.1404,-10.1404,-10.1404,-10.1404,-10.1289,-10.1289,-10.1289,-10.1289,-10.1289,0.0,-10.1289,-10.1289,-10.1289,-10.1289,-10.1289,-10.1289,-10.1289,-10.1289,-10.1289,-10.1289,-10.1289,-10.1289,-10.1289,-10.1289,-10.1711,-10.2515,-10.2595,-10.2097,-10.1289,0.0,0.0,0.0,0.0,0.0,0.0,0.0,0.0,0.0,0.0,0.0,0.0,0.0,0.0,0.0,0.0,0.0,0.0,0.0,0.0,0.0,0.0,-9.2097,-9.1253,-9.1143,-9.1473,-9.2317,-9.2427,-9.2721,-9.3529,-9.3602,-9.3712,-9.3932,-9.3969,-9.4079,-9.4299,-9.485,-9.518,-9.518,-9.5731,-9.6135,-9.6355,-9.6355,-9.6465,-9.6685,-9.6685,-9.6685,-9.6685,-9.6685,-9.6685,-9.6685,-9.6685,-9.6685,-9.6685,-9.6685,-9.6685,-9.6685,-9.6685,-9.6685,-9.6685,-9.6685,-9.6832,-9.7175,-9.812,-9.8975,-9.975,-10.0288,-10.0904,-10.1289,-10.1289,-10.1289,-10.1289,-10.1289,-10.1289,-10.1289,-10.1289,-10.1289,-10.1481,-10.2097,-10.2213,-10.2405,-10.2982,-10.3175,-10.3175,-10.3175,-10.3175,-10.279,-10.1481,-10.1289,-10.1289,-10.1289,-10.1289,0.0,-10.1289,-10.1289,-10.1481,-10.2213,-10.2213,-10.2213,-10.2213,-10.2213,-10.1981,-10.1289,-10.1289,-10.1289,-10.1289,-10.1289,-10.1404,-10.1711,-10.1712,-10.152,0.0,0.0,0.0,0.0,0.0,0.0,0.0,0.0,0.0,0.0,0.0,0.0,0.0,0.0,0.0,0.0,0.0,0.0,0.0,0.0,0.0,0.0,-9.3272,-9.3418,-9.2905,-9.2831,-9.3051,-9.3529,-9.3602,-9.3786,-9.4226,-9.4299,-9.4446,-9.4777,-9.4813,-9.496,-9.529,-9.5768,-9.6025,-9.6025,-9.6465,-9.6685,-9.6685,-9.6685,-9.6685,-9.6685,-9.6685,-9.6685,-9.6685,-9.6685,-9.6685,0.0,-9.6685,-9.6685,-9.6685,-9.6685,-9.6685,0.0,0.0,0.0,0.0,0.0,-9.6869,-9.7248,-9.7636,-9.8534,-9.9562,-10.0003,-10.0673,-10.1404,-10.1712,-10.1789,-10.1904,-10.2328,-10.2405,-10.2405,-10.2405,-10.2405,-10.252,-10.2982,-10.3097,-10.3328,-10.3789,-10.3905,-10.3905,-10.3905,0.0,0.0,-10.2595,-10.2404,-10.2405,-10.2405,-10.2405,-10.2405,-10.2405,-10.2405,-10.2597,-10.3098,-10.3097,-10.3135,-10.3135,-10.3135,0.0,0.0,0.0,-10.2404,-10.2404,-10.2672,0.0,0.0,0.0,-10.2712,-10.2404,0.0,0.0,0.0,-10.202,-10.1789,0.0,0.0,0.0,0.0,0.0,0.0,0.0,0.0,0.0,0.0,0.0,0.0,0.0,0.0,0.0,0.0,-9.4373,-9.4446,-9.4446,-9.452,-9.452,-9.4446,-9.4446,-9.4483,-9.4556,-9.4556,-9.485,-9.5584,-9.5658,-9.5951,-9.6649,0.0,0.0,0.0,0.0,-9.6685,-9.6685,-9.6685,-9.6685,-9.6685,-9.6685,-9.6685,-9.6685,-9.6685,-9.6685,-9.6685,-9.6685,-9.6685,-9.6685,-9.6685,-9.6759,-9.6832,-9.6722,-9.6685,-9.6685,-9.6685,-9.7203,0.0,0.0,0.0,0.0,-10.028,-10.0904,-10.1712,-10.252,-10.2713,-10.2905,-10.3675,-10.3867,-10.3867,-10.3867,-10.3867,-10.3867,-10.3983,-10.402,-10.4093,-10.4208,-10.4208,-10.4208,-10.4208,-10.4208,-10.4208,-10.4208,-10.402,-10.3867,-10.3867,-10.3867,-10.3867,-10.3867,-10.3867,-10.3867,-10.3983,0.0,0.0,-10.4016,-10.4016,-10.4018,-10.3905,-10.3905,-10.3905,-10.3903,-10.4595,-10.4595,-10.3905,-10.4597,-10.4597,-10.3905,-10.3905,-10.3905,-10.3905,-10.3097,-10.2712,0.0,0.0,0.0,0.0,0.0,0.0,0.0,0.0,0.0,0.0,0.0,0.0,0.0,0.0,0.0,-9.4299,-9.485,-9.529,-9.529,-9.5841,-9.5988,-9.5364,-9.529,-9.5511,-9.6171,-9.6245,-9.6282,-9.6465,-9.6465,-9.6539,-9.6685,-9.6685,0.0,-9.6685,-9.6685,-9.6685,-9.6685,-9.6685,-9.6685,-9.6685,0.0,0.0,-9.6685,-9.6685,-9.6685,-9.6685,-9.6685,-9.6685,-9.6685,-9.6685,-9.7129,-9.757,-9.6906,-9.6685,-9.6685,-9.6685,-9.7203,-9.7904,-9.7904,-9.9382,-10.1165,-10.1168,-10.2213,-10.3367,-10.3599,-10.3597,0.0,-10.3903,-10.3903,-10.3903,-10.3903,-10.3903,-10.4095,-10.4672,-10.4903,-10.5095,-10.5787,-10.5864,-10.5864,-10.5864,-10.5864,-10.5864,-10.5864,-10.4787,-10.3903,-10.3903,-10.3903,-10.3903,-10.3903,-10.3903,-10.4095,-10.4787,-10.4903,-10.4903,-10.4903,-10.4903,-10.4634,-10.3901,-10.3903,-10.3905,-10.3905,-10.402,-10.4097,-10.3905,-10.4097,-10.4097,-10.3905,-10.3905,-10.3905,-10.3905,-10.3712,-10.3597,0.0,0.0,0.0,0.0,0.0,0.0,0.0,0.0,0.0,0.0,0.0,-9.5034,-9.5437,0.0,-9.5511,-9.5511,-9.5841,-9.6098,-9.6098,-9.6465,-9.6539,-9.6171,-9.6098,-9.6282,-9.6649,-9.6685,-9.6685,-9.6685,-9.6685,-9.6685,-9.6685,-9.6685,-9.6685,-9.6685,-9.6685,-9.6685,-9.6685,-9.6685,-9.6685,-9.6685,-9.6685,-9.6685,-9.6685,-9.6685,-9.6685,-9.6685,-9.6685,-9.6906,-9.735,-9.7757,-9.8125,-9.8419,-9.8039,-9.7933,-9.7904,-9.7904,-9.8161,-9.8456,-9.8484,-9.9554,-10.0907,-10.092,-10.1979,-10.3288,-10.3789,-10.4211,-10.4593,-10.5018,-10.521,-10.521,-10.521,-10.521,-10.5287,-10.5672,-10.5787,-10.5864,-10.6328,-10.6405,-10.6405,-10.6405,-10.6405,-10.6405,-10.6405,-10.5672,-10.521,-10.521,-10.521,-10.521,-10.521,-10.521,-10.5287,-10.5672,-10.5787,-10.5787,-10.5787,-10.5787,-10.5595,-10.521,-10.5172,-10.5213,-10.5213,-10.5213,-10.5213,-10.5213,-10.5213,-10.5213,-10.5213,-10.5213,-10.5213,-10.5213,-10.5213,-10.4905,0.0,0.0,0.0,0.0,0.0,0.0,0.0,-9.4813,-9.5511,-9.5511,-9.6025,-9.6502,-9.6685,-9.6685,-9.6685,-9.6685,-9.6685,-9.6685,-9.6685,-9.6685,-9.6685,-9.6685,-9.6685,-9.6685,-9.6685,-9.6685,-9.6685,-9.6685,-9.6685,-9.6685,-9.6685,-9.6685,-9.6685,-9.6685,-9.6685,-9.6685,-9.6685,-9.6685,-9.6685,-9.6685,-9.6685,-9.6685,-9.6685,-9.6685,-9.6795,-9.6906,-9.7129,-9.757,-9.8195,-9.886,-9.9154,-9.9301,-9.9279,-9.9396,-9.9526,-9.9191,-9.9154,-9.9338,-9.9316,-9.9976,-10.0826,-10.103,-10.1988,-10.3278,-10.4083,-10.4826,-10.548,-10.6213,-10.6405,-10.6405,-10.6405,-10.6405,-10.6405,-10.6405,-10.6405,-10.6405,-10.6405,-10.6405,-10.6405,-10.6405,-10.6405,-10.6405,-10.6405,-10.6405,-10.6405,-10.6405,-10.6405,-10.6405,-10.6405,-10.6405,-10.6405,-10.6405,-10.6405,-10.6405,-10.6405,-10.6405,-10.6405,-10.6405,-10.6405,-10.6405,-10.6405,-10.6405,-10.6405,-10.6405,-10.6405,-10.6405,-10.6405,-10.6405,-10.6405,-10.6405,-10.6405,-10.602,-9.2758,-9.2941,-9.2978,-9.3088,-9.3639,-9.4006,0.0,-9.441,-9.5511,-9.5511,-9.5584,-9.5878,-9.6575,-9.6685,-9.6685,-9.6685,-9.6685,-9.6685,-9.6685,-9.6685,-9.6685,-9.6685,-9.6685,-9.6685,-9.6685,-9.6685,-9.6685,-9.6685,-9.6685,-9.6685,-9.6685,-9.6685,-9.6685,-9.6685,-9.6685,-9.6685,-9.6685,-9.6685,-9.6685,-9.6685,-9.6685,-9.6685,-9.6685,-9.6685,-9.7129,-9.7831,-9.8532,-9.8893,-9.8943,-9.9016,-9.9536,-10.0203,-10.0159,-10.0569,-10.1053,-9.9609,-9.9536,-10.0203,-10.0159,-10.1237,-10.2617,-10.3308,-10.4204,-10.5092,-10.5897,-10.6213,-10.6328,-10.6405,-10.6405,-10.6405,-10.6405,-10.6405,-10.6405,-10.6405,-10.6405,-10.6405,-10.6405,-10.6405,-10.6405,-10.6405,-10.6405,-10.6405,-10.6405,-10.6405,-10.6405,-10.6405,-10.6405,-10.6405,-10.6405,-10.6405,-10.6405,-10.6405,-10.6405,-10.6405,-10.6405,-10.6405,-10.6405,-10.6405,-10.6405,-10.6405,-10.6405,-10.6405,-10.6405,-10.6405,-10.6405,-10.6405,-10.6405,-10.6405,-10.6405,-10.6405,-10.6405,-10.629,-9.2244,-9.2721,-9.3198,-9.3675,-9.4042,-9.4446,-9.507,-9.5731,-9.6208,-9.6208,-9.6208,-9.6318,-9.6649,-9.6685,-9.6685,0.0,-9.6685,-9.6685,-9.6685,-9.6685,-9.6685,-9.6685,-9.6685,-9.6685,-9.6685,-9.6685,-9.6685,-9.6685,-9.6685,-9.6685,-9.6685,-9.6685,-9.6685,-9.6685,-9.6685,-9.6685,-9.6685,-9.6685,-9.6685,-9.6685,-9.6685,-9.6906,-9.7386,-9.7386,-9.7823,-9.8662,-9.9438,-9.9763,-9.9866,-10.0269,-10.0716,-10.0973,-10.0973,-10.1237,-10.1384,-10.0716,-10.0716,-10.0973,-10.0973,-10.1384,-10.2089,-10.2346,-10.3112,-10.3812,-10.4106,-10.4903,-10.5672,-10.5672,-10.602,-10.6405,-10.6405,-10.6405,-10.6405,-10.6405,-10.6405,-10.6405,-10.6405,-10.6405,-10.6405,-10.6405,-10.6405,-10.6405,-10.6405,-10.6405,-10.6405,-10.6405,-10.6405,-10.6405,-10.6405,-10.6405,-10.6405,-10.6405,-10.6405,-10.6405,-10.6405,-10.6405,-10.6405,-10.6405,-10.6405,-10.6405,-10.6405,-10.6405,-10.6405,-10.6405,-10.6405,-10.6405,-10.6405,-10.6405,-10.6405,-10.6405,-10.6405,-10.6405,-9.217,-9.2611,-9.3308,-9.4079,-9.4299,-9.4666,-9.6061,-9.6539,-9.6685,-9.6685,-9.6685,-9.6685,-9.6685,-9.6685,-9.6685,-9.6685,-9.6685,-9.6685,-9.6685,-9.6685,-9.6685,-9.6685,-9.6685,-9.6685,-9.6685,-9.6685,-9.6685,-9.6685,-9.6685,-9.6685,-9.6685,-9.6685,-9.6685,-9.6685,-9.6685,-9.6685,-9.6685,-9.6685,-9.6832,-9.7012,-9.7012,-9.7456,-9.8231,-9.8452,-9.8846,-9.9456,-10.0269,-10.0606,-10.0716,-10.131,-10.1494,-10.1494,-10.1494,-10.1494,-10.1494,-10.1494,-10.1494,-10.1494,-10.1494,-10.1494,-10.1494,-10.1831,-10.2198,-10.2727,-10.2994,-10.3921,-10.4926,-10.4927,-10.5287,-10.5787,-10.602,-10.6097,-10.6097,-10.6328,-10.6405,-10.6405,-10.6405,-10.6405,-10.6405,-10.6405,-10.6405,-10.6405,-10.6405,-10.6405,-10.6405,-10.6405,-10.6405,-10.6405,-10.6405,-10.6405,-10.6405,-10.6405,-10.6405,-10.6405,-10.6405,-10.6405,-10.6405,-10.6405,-10.6405,-10.6405,-10.6405,-10.6405,-10.6405,-10.6405,-10.6405,-10.6405,-10.6405,-10.6405,-10.6405,-10.6405,-10.6405,-10.6405,-9.3051,-9.3088,-9.3308,-9.4079,-9.4299,-9.452,-9.5364,-9.6135,-9.6685,-9.6685,-9.6685,-9.6685,-9.6685,-9.6685,-9.6685,-9.6685,-9.6685,-9.6685,-9.6685,-9.6685,-9.6685,-9.6685,-9.6685,-9.6685,0.0,-9.6685,-9.6685,-9.6685,-9.6685,-9.6685,-9.6685,-9.6685,-9.6685,-9.6685,-9.6685,-9.6685,-9.6685,-9.6685,-9.7048,-9.785,-9.785,-9.8295,-9.9108,-9.9873,-10.0159,-10.0269,-10.1127,-10.1494,-10.1494,-10.1494,-10.1494,-10.1494,-10.1494,-10.1494,-10.1494,-10.1494,-10.1494,-10.1494,-10.1494,-10.1494,-10.1567,-10.2346,-10.2727,-10.288,-10.366,-10.3997,-10.4022,-10.4004,-10.4093,-10.4285,-10.5018,-10.521,-10.5403,-10.6213,-10.6405,-10.6405,-10.6405,-10.6405,-10.6405,-10.6405,-10.6405,-10.6405,-10.6405,-10.6405,-10.6405,-10.6405,-10.6405,-10.6405,-10.6405,-10.6405,-10.6405,-10.6405,-10.6405,-10.6405,-10.6405,-10.6405,-10.6405,-10.6405,-10.6405,-10.6405,-10.6405,-10.6405,-10.6405,-10.6405,-10.6405,-10.6405,-10.6405,-10.6405,-10.6405,-10.6405,-10.6405,-10.6405,-9.2391,-9.3051,-9.3969,-9.4226,-9.4703,-9.5327,-9.6098,-9.6502,-9.6685,-9.6685,-9.6685,-9.6685,-9.6685,-9.6685,-9.6685,-9.6685,-9.6685,-9.6685,-9.6685,-9.6685,-9.6685,-9.6685,-9.6685,-9.6685,-9.6685,0.0,0.0,-9.6685,-9.6685,-9.6685,-9.6685,-9.6685,-9.6685,-9.6685,-9.6685,-9.6685,-9.6685,-9.7232,-9.7635,-9.7892,-9.8998,-9.9616,-9.9946,-10.068,-10.1127,-10.1127,-10.1384,-10.1494,-10.1494,-10.1494,-10.1494,-10.1494,-10.1494,-10.1494,-10.1494,-10.1494,-10.1494,-10.1494,-10.1494,-10.1494,-10.1494,-10.1831,-10.1905,-10.2015,-10.2272,-10.272,-10.3112,-10.3075,-10.3635,-10.4084,-10.4271,-10.4774,-10.5287,-10.548,-10.6521,-10.729,-10.729,-10.7716,-10.8101,-10.8101,-10.8098,-10.8094,-10.8098,-10.8098,-10.8136,-10.8098,-10.7098,-10.6405,-10.6405,-10.6405,-10.6405,-10.6405,-10.6405,-10.6405,-10.6405,-10.6405,-10.6405,-10.6405,-10.6405,-10.6405,-10.6405,-10.6405,-10.6405,-10.6405,-10.6405,-10.6405,-10.6405,-10.6405,-10.6405,-10.6405,-10.7021,-10.729,-9.195,-9.2574,-9.3529,-9.4153,-9.4703,-9.5364,-9.6465,-9.6685,-9.6685,-9.6685,-9.6685,-9.6685,-9.6685,-9.6685,-9.6685,-9.6685,-9.6685,-9.6685,-9.6685,-9.6685,-9.6685,-9.6685,-9.6685,-9.6685,-9.6685,-9.6685,0.0,-9.6685,-9.6685,-9.6685,-9.6685,-9.6685,-9.6685,-9.6685,-9.6685,-9.6832,-9.7126,-9.7635,-9.8185,-9.8778,-10.0062,-10.0723,-10.0716,-10.131,-10.1494,-10.1494,-10.1494,-10.1494,-10.1494,-10.1494,-10.1494,-10.1494,-10.1494,-10.1494,-10.1494,-10.1494,-10.1494,-10.1494,-10.1494,-10.1494,-10.1494,-10.1494,-10.1494,-10.1494,-10.1494,-10.1905,-10.2272,-10.2272,-10.2867,-10.3684,-10.4279,-10.502,-10.5787,-10.6429,-10.729,-10.8101,-10.8098,-10.8482,-10.8867,-10.8867,-10.8902,-10.8902,-10.8906,-10.8906,-10.8906,-10.8906,-10.7982,-10.729,-10.729,-10.729,-10.7213,-10.6905,-10.6905,-10.6713,-10.6405,-10.6405,-10.6405,-10.6405,-10.6405,-10.6405,-10.6405,-10.6405,-10.6405,-10.6405,-10.6405,-10.6405,-10.6405,-10.6713,-10.6905,-10.6905,-10.7713,-10.8098,-9.1803,-9.184,-9.2244,-9.3896,-9.4336,-9.4777,-9.6355,-9.6685,-9.6685,-9.6685,-9.6685,-9.6685,-9.6685,-9.6685,-9.6685,-9.6685,-9.6685,-9.6685,-9.6685,-9.6685,-9.6685,-9.6685,-9.6685,-9.6685,-9.6685,-9.6685,0.0,-9.6685,0.0,-9.6685,-9.6685,-9.6685,-9.6685,-9.6685,-9.6685,-9.7089,-9.7897,-9.797,-9.8814,-10.0393,-10.109,-10.1494,-10.1494,-10.1494,-10.1494,-10.1494,-10.1494,-10.1494,-10.1494,-10.1494,-10.1494,-10.1494,-10.1494,-10.1494,-10.1494,-10.1494,-10.1494,-10.1494,-10.1494,-10.1494,-10.1494,-10.1494,-10.1494,-10.1494,-10.1494,-10.1494,-10.1567,-10.1567,-10.2089,-10.3051,-10.4685,-10.573,-10.6698,-10.8375,-10.8793,-10.8909,-10.9017,-10.9013,-10.9013,-10.9013,-10.9017,-10.8979,-10.8979,-10.9021,-10.8983,-10.8983,-10.8983,-10.8983,-10.8906,-10.8906,-10.8598,-10.779,-10.779,-10.7405,-10.6597,-10.6521,-10.6521,-10.6521,-10.6521,-10.6521,-10.6521,-10.6521,-10.6521,-10.6521,-10.6521,-10.6521,-10.6521,-10.7405,-10.779,-10.779,-10.8598,-10.8983,-9.1803,-9.2281,-9.3015,-9.4042,-9.474,-9.5474,-9.6465,-9.6685,-9.6685,-9.6685,-9.6685,-9.6685,-9.6685,-9.6685,-9.6685,-9.6685,-9.6685,-9.6685,-9.6685,-9.6685,-9.6685,-9.6685,-9.6685,-9.6685,-9.6685,-9.6685,-9.6685,0.0,-9.6685,-9.6685,-9.6685,-9.6685,-9.6685,-9.6685,-9.6685,-9.7089,-9.7897,-9.9071,-10.0209,-10.12,-10.1384,-10.1494,-10.1494,-10.1494,-10.1494,-10.1494,-10.1494,-10.1494,-10.1494,-10.1494,-10.1494,-10.1494,-10.1494,-10.1494,-10.1494,-10.1494,-10.1494,-10.1494,-10.1494,-10.1494,-10.1494,-10.1494,-10.1494,-10.1494,-10.1494,-10.1905,-10.2346,-10.2346,-10.2978,-10.3676,-10.4137,-10.4908,-10.5763,-10.6805,-10.7975,-10.9094,-10.9709,-11.0402,-11.0786,-11.0786,-11.0829,-11.0829,-11.0829,-11.0829,-11.0791,-11.0791,-11.0791,-11.0406,-10.9098,-10.8906,-10.879,-10.8598,-10.8598,-10.8482,-10.829,-10.829,-10.829,-10.829,-10.829,-10.829,-10.829,-10.829,-10.829,-10.829,-10.829,-10.829,-10.829,-10.8482,-10.8598,-10.8598,-10.9483,-10.9906,-9.1803,-9.217,-9.2794,-9.4006,-9.463,-9.529,-9.6428,-9.6685,-9.6685,-9.6685,-9.6685,-9.6685,-9.6685,-9.6685,-9.6685,-9.6685,-9.6685,-9.6685,-9.6685,-9.6685,-9.6685,-9.6685,-9.6685,-9.6685,-9.6685,-9.6685,-9.6685,0.0,-9.6685,-9.6685,-9.6685,-9.6685,-9.6685,-9.6685,-9.7052,-9.7787,-9.8924,-10.0209,-10.109,-10.1494,-10.1494,-10.1494,-10.1494,-10.1494,-10.1494,-10.1494,0.0,-10.1494,-10.1494,-10.1494,-10.1494,-10.1494,-10.1494,-10.1494,-10.1494,-10.1494,-10.1494,-10.1494,-10.1494,-10.1714,-10.2008,-10.1604,-10.1714,-10.1963,-10.1963,-10.2595,-10.3227,-10.3219,-10.377,-10.4513,-10.4934,-10.5594,-10.6475,-10.7279,-10.8176,-10.9086,-11.0001,-11.0594,-11.0999,-11.1396,-11.1522,-11.1522,-11.1522,-11.1522,-11.1522,-11.1522,-11.1522,-11.1098,-11.0214,-11.0021,-10.9906,-10.9483,-10.9483,-10.929,-10.8906,-10.8906,-10.8906,-10.8906,-10.8906,-10.8906,-10.8906,-10.8906,-10.8906,-10.8906,-10.8906,-10.8906,-10.8906,-10.929,-10.9483,-10.9483,-11.0406,-11.0791,-9.1803,-9.1803,-9.217,-9.3749,-9.4226,-9.4703,-9.6208,-9.6612,-9.6685,-9.6685,-9.6685,-9.6685,-9.6685,-9.6685,-9.6685,-9.6685,-9.6685,-9.6685,-9.6685,-9.6685,-9.6685,-9.6685,-9.6685,-9.6685,-9.6685,-9.6685,-9.6685,-9.6685,-9.6685,-9.6685,-9.6685,-9.6685,-9.6759,-9.6869,-9.764,-9.8778,-10.0283,-10.109,-10.1494,-10.1494,-10.1494,-10.1494,-10.1494,-10.1494,-10.1494,-10.1494,0.0,0.0,-10.1494,-10.1494,-10.1494,-10.1494,-10.1494,-10.1494,-10.1494,-10.1494,-10.1494,-10.1494,-10.1604,-10.2118,-10.2632,-10.1898,-10.2183,-10.2917,-10.2871,-10.3394,-10.4054,-10.407,-10.463,-10.5411,-10.6229,-10.6901,-10.7684,-10.8533,-10.8708,-10.8992,-10.9782,-10.9976,-11.0281,-11.1216,-11.1275,-11.1396,-11.1522,-11.1522,-11.1522,-11.1522,-11.1522,-11.1522,-11.1522,-11.1522,-11.1214,-11.0483,-11.0406,-11.0098,-10.929,-10.9213,-10.9213,-10.9213,-10.9213,-10.9213,-10.9213,-10.9213,-10.9213,-10.9213,-10.9213,-10.9213,-10.9213,-10.9983,-11.0406,-11.0406,-11.1098,-11.1522,-9.1803,-9.1803,-9.2024,-9.3051,-9.3822,-9.4556,-9.5474,-9.6208,-9.6685,-9.6685,-9.6685,-9.6685,-9.6685,-9.6685,-9.6685,-9.6685,-9.6685,-9.6685,-9.6685,-9.6685,-9.6685,-9.6685,-9.6685,-9.6685,-9.6685,-9.6685,-9.6685,0.0,0.0,-9.6685,-9.6685,-9.6685,-9.7016,-9.7676,-9.8484,-9.9365,-10.0283,-10.109,-10.1494,-10.1494,-10.1494,-10.1494,-10.1494,-10.1494,-10.1494,-10.1494,0.0,0.0,-10.1494,-10.1494,-10.1494,-10.1494,-10.1494,-10.1494,-10.1494,-10.1494,-10.1494,-10.1604,-10.2301,-10.2595,-10.2705,-10.2522,-10.3036,-10.365,-10.3667,-10.4337,-10.485,-10.4887,-10.5521,-10.6229,-10.6376,-10.6486,-10.6783,-10.7554,-10.7811,-10.8129,-10.8892,-10.9068,-10.9439,-11.0306,-11.0423,-11.0689,-11.1396,-11.1522,-11.1522,-11.1522,-11.1522,-11.1522,-11.1522,-11.1522,-11.1406,-11.1291,-11.1291,-11.1214,-11.1098,-11.1021,-11.1021,-11.1021,-11.1021,-11.1021,-11.1021,-11.1021,-11.1021,-11.1021,-11.1021,-11.1021,-11.1021,-11.1214,-11.1291,-11.1291,-11.1406,-11.1522,-9.1803,-9.1803,-9.2024,-9.2868,-9.3712,-9.452,-9.5327,-9.6135,-9.6685,-9.6685,-9.6685,-9.6685,-9.6685,-9.6685,-9.6685,-9.6685,-9.6685,-9.6685,-9.6685,-9.6685,-9.6685,-9.6685,-9.6685,-9.6685,-9.6685,-9.6685,-9.6685,-9.6685,0.0,-9.6685,-9.6685,-9.7089,-9.7676,-9.8484,-9.9292,-10.0099,-10.0907,-10.1274,-10.1494,-10.1494,-10.1494,-10.1494,-10.1494,-10.1494,-10.1494,-10.1494,-10.1494,0.0,-10.1494,-10.1494,-10.1494,-10.1494,-10.1494,-10.1494,-10.1494,-10.1494,-10.1788,-10.2191,-10.2595,-10.3219,-10.3917,-10.3917,-10.421,-10.4541,-10.4531,-10.5117,-10.5778,-10.5778,-10.6119,-10.6376,-10.6376,-10.6376,-10.647,-10.6862,-10.7254,-10.7701,-10.8092,-10.8606,-10.9019,-10.9385,-10.9541,-10.9809,-11.0689,-11.0836,-11.1008,-11.1401,-11.1522,-11.1522,-11.1522,-11.1522,-11.1522,-11.1522,-11.1522,-11.1522,-11.1522,-11.1522,-11.1522,-11.1522,-11.1522,-11.1522,-11.1522,-11.1522,-11.1522,-11.1522,-11.1522,-11.1522,-11.1522,-11.1522,-11.1522,-11.1522,-11.1522,-11.1522,-9.1803,-9.1803,-9.195,-9.2648,-9.3565,-9.4483,-9.5107,-9.5988,-9.6685,-9.6685,-9.6685,-9.6685,-9.6685,-9.6685,-9.6685,-9.6685,-9.6685,-9.6685,-9.6685,-9.6685,-9.6685,-9.6685,-9.6685,-9.6685,-9.6685,-9.6685,0.0,-9.6685,0.0,0.0,-9.6685,-9.7456,-9.8264,-9.9071,-9.9879,-10.0686,-10.1494,-10.1494,-10.1494,-10.1494,-10.1494,-10.1494,-10.1494,-10.1494,-10.1494,-10.1494,-10.1494,0.0,0.0,-10.1494,-10.1494,-10.1494,-10.1494,-10.1494,-10.1494,-10.1494,-10.2008,-10.2705,-10.2889,-10.3917,-10.5128,-10.5311,-10.5422,-10.5422,-10.5422,-10.5899,-10.6376,-10.6376,-10.6376,-10.6376,-10.6376,-10.6376,-10.6376,-10.6376,-10.6888,-10.7328,-10.7328,-10.7883,-10.8367,-10.8606,-10.8634,-10.8893,-10.9809,-10.9921,-11.0176,-11.1101,-11.123,-11.1314,-11.1478,-11.1522,-11.1522,-11.1522,-11.1522,-11.1522,-11.1522,-11.1522,-11.1522,-11.1522,-11.1522,-11.1522,-11.1522,-11.1522,-11.1522,-11.1522,-11.1522,-11.1522,-11.1522,-11.1522,-11.1522,-11.1522,-11.1522,-11.1522,-9.1803,-9.1803,-9.1803,-9.1913,-9.3125,-9.4299,-9.4373,-9.5584,-9.6685,-9.6685,-9.6685,-9.6685,-9.6685,-9.6685,-9.6685,-9.6685,-9.6685,-9.6685,-9.6685,-9.6685,-9.6685,-9.6685,-9.6685,-9.6685,-9.6685,-9.6685,-9.6685,-9.6685,0.0,0.0,0.0,-9.7456,-9.8264,-9.9071,-9.9879,-10.0686,-10.1494,-10.1494,-10.1494,-10.1494,-10.1494,-10.1494,-10.1494,-10.1494,-10.1494,-10.1494,0.0,0.0,0.0,-10.1494,-10.1494,-10.1494,-10.1494,-10.1494,-10.1494,-10.1494,-10.2008,-10.2815,-10.3513,-10.4394,-10.5201,-10.6009,-10.6302,-10.6302,-10.6302,-10.6302,-10.6376,-10.6376,-10.6376,-10.6376,-10.6376,-10.6376,-10.6376,-10.6376,-10.6497,-10.6507,-10.6507,-10.659,-10.677,-10.7628,-10.7701,-10.7988,-10.8931,-10.9019,-10.9265,-11.0214,-11.032,-11.0601,-11.1396,-11.1522,-11.1522,-11.1522,-11.1522,-11.1522,-11.1522,-11.1522,-11.1522,-11.1522,-11.1522,-11.1522,-11.1522,-11.1522,-11.1522,-11.1522,-11.1522,-11.1522,-11.1522,-11.1522,-11.1522,-11.1522,-11.1522,-11.1522,-9.1657,-9.1803,-9.1803,-9.1803,-9.2684,-9.3712,-9.4189,-9.518,-9.6135,-9.6612,-9.6685,-9.6685,-9.6685,-9.6685,-9.6685,-9.6685,-9.6685,-9.6685,-9.6685,-9.6685,-9.6685,-9.6685,-9.6685,-9.6685,-9.6685,0.0,-9.6685,0.0,0.0,0.0,0.0,-9.7933,-9.8778,-9.9108,-10.0393,-10.12,-10.1494,-10.1494,-10.1494,-10.1494,-10.1494,-10.1494,-10.1494,-10.1494,-10.1494,-10.1494,-10.1494,0.0,0.0,-10.1494,-10.1494,-10.1494,-10.1494,-10.1494,-10.1567,-10.2008,-10.2705,-10.3513,-10.432,-10.5201,-10.5899,-10.6302,-10.6376,-10.6376,-10.6376,-10.6376,-10.6376,-10.6376,-10.6376,-10.6376,-10.6376,-10.6376,-10.6376,-10.6376,-10.6376,-10.6376,-10.6376,-10.6376,-10.6544,-10.6807,-10.6888,-10.7094,-10.8026,-10.8092,-10.8435,-10.9303,-10.9385,-10.9503,-10.9903,-11.041,-11.0701,-11.0701,-11.1185,-11.1522,-11.1522,-11.1522,-11.1522,-11.1522,-11.1522,-11.1522,-11.1522,-11.1522,-11.1522,-11.1522,-11.1522,-11.1522,-11.1522,-11.1522,-11.1522,-11.1522,-11.1522,-11.1522,-9.1289,-9.162,-9.1803,-9.1803,-9.2464,-9.3308,-9.4116,-9.4923,-9.5731,-9.6539,-9.6685,-9.6685,-9.6685,-9.6685,-9.6685,-9.6685,-9.6685,-9.6685,-9.6685,-9.6685,-9.6685,-9.6685,0.0,-9.6685,0.0,-9.6685,0.0,0.0,0.0,0.0,0.0,-9.8227,-9.9108,-9.9108,-10.0686,-10.1494,-10.1494,-10.1494,-10.1494,-10.1494,-10.1494,-10.1494,-10.1494,-10.1494,-10.1494,-10.1494,0.0,0.0,0.0,-10.1494,-10.1494,-10.1494,-10.1494,-10.1494,-10.1604,-10.2412,-10.3219,-10.399,-10.4798,-10.5715,-10.6376,-10.6376,-10.6376,-10.6376,-10.6376,-10.6376,-10.6376,-10.6376,-10.6376,-10.6376,-10.6376,-10.6376,-10.6376,-10.6376,-10.6376,-10.6376,-10.6376,-10.6376,-10.6376,-10.6376,-10.6376,-10.659,-10.7057,-10.7175,-10.7517,-10.8405,-10.8502,-10.8568,-10.8867,-10.9385,-10.9809,-10.9809,-11.041,-11.0884,-11.1478,-11.1522,-11.1522,-11.1522,-11.1522,-11.1522,-11.1522,-11.1522,-11.1522,-11.1522,-11.1522,-11.1522,-11.1522,-11.1522,-11.1522,-11.1522,-11.1522,-11.1522,-9.0629,-9.1179,-9.1803,-9.1803,-9.2464,-9.3308,-9.4116,-9.4923,-9.5731,-9.6539,-9.6685,-9.6685,-9.6685,-9.6685,-9.6685,-9.6685,-9.6685,-9.6685,-9.6685,-9.6685,-9.6685,0.0,0.0,-9.6685,-9.6685,0.0,0.0,0.0,0.0,0.0,0.0,-9.8227,-9.9108,-9.9108,-10.0686,-10.1494,-10.1494,-10.1494,-10.1494,-10.1494,-10.1494,-10.1494,-10.1494,-10.1494,-10.1494,0.0,0.0,0.0,0.0,-10.1494,-10.1494,-10.1494,-10.1494,-10.1494,-10.1604,-10.2412,-10.3219,-10.399,-10.4798,-10.5715,-10.6376,-10.6376,-10.6376,-10.6376,-10.6376,-10.6376,-10.6376,-10.6376,-10.6376,-10.6376,-10.6376,-10.6376,-10.6376,-10.6376,-10.6376,-10.6376,-10.6376,-10.6376,-10.6376,-10.6376,-10.6376,-10.6376,-10.6376,-10.6376,-10.6718,-10.7479,-10.7591,-10.788,-10.8802,-10.8893,-10.8893,-10.8893,-10.8893,-10.96,-11.1435,-11.1522,-11.1522,-11.1522,-11.1522,-11.1522,-11.1522,-11.1522,-11.1522,-11.1522,-11.1522,-11.1522,-11.1522,-11.1522,-11.1522,-11.1522,-11.1522,-11.1522,-9.0445,-9.1179,-9.1803,-9.1803,-9.2024,-9.2427,-9.3308,-9.4116,-9.4923,-9.5731,-9.6318,-9.6685,-9.6685,-9.6685,-9.6685,-9.6685,-9.6685,-9.6685,-9.6685,-9.6685,0.0,-9.6685,-9.6685,-9.6685,0.0,0.0,0.0,0.0,0.0,0.0,0.0,-9.8227,-9.9108,-9.9108,-10.0686,-10.1494,-10.1494,-10.1494,-10.1494,-10.1494,-10.1494,-10.1494,-10.1494,-10.1494,0.0,0.0,0.0,0.0,0.0,-10.1494,-10.1494,-10.1494,-10.1494,-10.1788,-10.2412,-10.3219,-10.399,-10.4798,-10.5715,-10.6192,-10.6376,-10.6376,-10.6376,-10.6376,-10.6376,-10.6376,-10.6376,-10.6376,-10.6376,-10.6376,-10.6376,-10.6376,-10.6376,-10.6376,-10.6376,-10.6376,-10.6376,-10.6376,-10.6376,-10.6376,-10.6376,-10.6376,-10.6376,-10.6376,-10.6544,-10.6726,-10.6763,-10.6888,-10.7168,-10.7702,-10.7988,-10.7988,-10.8464,-10.9401,-11.0513,-11.0563,-11.0874,-11.1478,-11.1522,-11.1522,-11.1522,-11.1522,-11.1522,-11.1522,-11.1522,-11.1522,-11.1522,-11.1522,-11.1522,-11.1522,-11.1522,-11.1522,-9.0005,-9.0959,-9.1803,-9.1803,-9.1803,-9.2024,-9.2905,-9.3712,-9.452,-9.5327,-9.6135,-9.6685,-9.6685,-9.6685,-9.6685,-9.6685,-9.6685,-9.6685,-9.6685,-9.6685,0.0,-9.6685,0.0,0.0,0.0,0.0,0.0,0.0,0.0,0.0,0.0,0.0,-9.9108,-9.9108,-10.0686,-10.1494,-10.1494,-10.1494,-10.1494,-10.1494,-10.1494,-10.1494,-10.1494,-10.1494,0.0,0.0,0.0,0.0,0.0,-10.1494,-10.1494,-10.1494,-10.1494,-10.2008,-10.2815,-10.3586,-10.4394,-10.5201,-10.6082,-10.6376,-10.6376,-10.6376,-10.6376,-10.6376,-10.6376,-10.6376,-10.6376,-10.6376,-10.6376,-10.6376,-10.6376,-10.6376,-10.6376,-10.6376,-10.6376,-10.6376,-10.6376,-10.6376,-10.6376,-10.6376,-10.6376,-10.6376,-10.6376,-10.6376,-10.6376,-10.6376,-10.6376,-10.6376,-10.6376,-10.677,-10.7057,-10.7057,-10.7591,-10.8268,-10.9105,-10.9503,-11.0107,-11.1008,-11.097,-11.1224,-11.1522,-11.1522,-11.1522,-11.1522,-11.1522,-11.1522,-11.1522,-11.1522,-11.1522,-11.1522,-11.1522,-11.1522,0.0,-9.0592,-9.1803,-9.1803,-9.1803,-9.2024,-9.2831,-9.3675,0.0,-9.5254,-9.6098,-9.6685,-9.6685,-9.6685,-9.6685,-9.6685,-9.6685,-9.6685,-9.6685,-9.6685,0.0,0.0,0.0,0.0,0.0,0.0,0.0,0.0,0.0,0.0,0.0,0.0,-9.9108,-9.9108,-10.0686,-10.1494,-10.1494,-10.1494,-10.1494,-10.1494,-10.1494,-10.1494,-10.1494,-10.1494,0.0,0.0,0.0,0.0,0.0,-10.1494,-10.1494,-10.1494,-10.1567,-10.2081,-10.2889,-10.3696,-10.4504,-10.5311,-10.6082,-10.6376,-10.6376,-10.6376,-10.6376,-10.6376,-10.6376,-10.6376,-10.6376,-10.6376,-10.6376,-10.6376,-10.6376,-10.6376,-10.6376,-10.6376,-10.6376,-10.6376,-10.6376,-10.6376,-10.6376,-10.6376,-10.6376,-10.6376,-10.6376,-10.6376,-10.6376,-10.6376,-10.6376,-10.6376,-10.6376,-10.6376,-10.6376,-10.6376,-10.6376,-10.6681,-10.7516,-10.8299,-10.9181,-11.0107,-11.0123,-11.0513,-11.1396,-11.1396,-11.1401,-11.1522,-11.1522,-11.1522,-11.1522,-11.1522,-11.1522,-11.1522,-11.1522,-11.1522,0.0,0.0,-9.1803,-9.1803,-9.1803,-9.184,0.0,-9.3235,-9.4336,-9.452,-9.5694,-9.6685,-9.6685,-9.6685,-9.6685,-9.6685,-9.6685,-9.6685,-9.6685,-9.6685,0.0,0.0,0.0,0.0,0.0,0.0,0.0,0.0,0.0,0.0,0.0,0.0,-9.9108,-9.9108,-10.0686,-10.1494,-10.1494,-10.1494,-10.1494,-10.1494,-10.1494,-10.1494,-10.1494,-10.1494,0.0,0.0,0.0,0.0,-10.1494,-10.1494,-10.1494,-10.1567,-10.2191,-10.2889,-10.3696,-10.4504,-10.5385,-10.6119,-10.6302,-10.6376,-10.6376,-10.6376,-10.6376,-10.6376,-10.6376,-10.6376,-10.6376,-10.6376,-10.6376,-10.6376,-10.6376,-10.6376,-10.6376,-10.6376,-10.6376,-10.6376,-10.6376,-10.6376,-10.6376,-10.6376,-10.6376,-10.6376,-10.6376,-10.6376,-10.6376,-10.6376,-10.6376,-10.6376,-10.6376,-10.6376,-10.6376,-10.6376,-10.6376,-10.646,-10.6718,-10.7404,-10.8268,-10.9219,-10.9205,-10.96,-11.05,-11.0513,-11.0836,-11.1522,-11.1522,-11.1522,-11.1522,-11.1522,-11.1522,-11.1522,-11.1522,-11.1522,0.0,-9.0592,-9.1803,-9.1803,-9.1803,-9.1803,-9.1803,-9.2794,-9.3859,-9.4226,-9.529,-9.6282,-9.6649,-9.6685,-9.6685,-9.6685,-9.6685,-9.6685,-9.6685,0.0,0.0,0.0,0.0,0.0,0.0,0.0,0.0,0.0,0.0,0.0,0.0,0.0,-9.8741,-9.9108,-10.0283,-10.109,-10.1494,-10.1494,-10.1494,-10.1494,-10.1494,-10.1494,-10.1494,-10.1494,-10.1494,0.0,0.0,0.0,-10.1494,-10.1494,-10.1494,-10.1567,-10.2412,-10.3182,-10.399,-10.4798,-10.5715,-10.6376,-10.6376,-10.6376,-10.6376,-10.6376,-10.6376,-10.6376,-10.6376,-10.6376,-10.6376,-10.6376,-10.6376,-10.6376,-10.6376,-10.6376,-10.6376,-10.6376,-10.6376,-10.6376,-10.6376,-10.6376,-10.6376,-10.6376,-10.6376,-10.6376,-10.6376,-10.6376,-10.6376,-10.6376,-10.6376,-10.6376,-10.6376,-10.6376,-10.6376,-10.6376,-10.6376,-10.6376,-10.6376,-10.6807,-10.7441,-10.8305,-10.8299,-10.8699,-10.9579,-10.96,-10.9976,-11.0922,-11.0922,-11.1101,-11.1522,-11.1522,-11.1522,-11.1522,-11.1522,-11.1522,-8.9417,-9.0592,-9.1803,-9.1803,-9.1803,-9.1803,-9.1803,-9.2464,-9.3345,-9.4116,-9.496,-9.5768,-9.6539,-9.6685,-9.6685,-9.6685,-9.6685,-9.6685,-9.6685,-9.6685,0.0,0.0,0.0,0.0,0.0,0.0,0.0,0.0,0.0,0.0,0.0,0.0,0.0,-9.9071,-9.9879,-10.0686,-10.1494,-10.1494,-10.1494,-10.1494,-10.1494,-10.1494,-10.1494,-10.1494,-10.1494,0.0,0.0,0.0,-10.1494,-10.1494,-10.1494,-10.1604,-10.2485,-10.3293,-10.399,-10.5018,-10.5789,-10.6376,-10.6376,-10.6376,-10.6376,-10.6376,-10.6376,-10.6376,-10.6376,-10.6376,-10.6376,-10.6376,-10.6376,-10.6376,-10.6376,-10.6376,-10.6376,-10.6376,-10.6376,-10.6376,-10.6376,-10.6376,-10.6376,-10.6376,-10.6376,-10.6376,-10.6376,-10.6376,-10.6376,-10.6376,-10.6376,-10.6376,-10.6376,-10.6376,-10.6376,-10.6376,-10.6376,-10.6376,-10.6376,-10.6376,-10.6718,-10.7365,-10.7404,-10.7811,-10.8672,-10.8829,-10.9265,-11.0214,-11.0176,-11.0613,-11.1522,-11.1522,-11.1522,-11.1522,-11.1522,-11.1522,-8.9417,-9.0592,-9.1803,-9.1803,-9.1803,-9.1803,-9.1803,-9.2464,-9.3345,-9.4116,-9.496,-9.5768,-9.6539,-9.6685,-9.6685,-9.6685,-9.6685,-9.6685,0.0,0.0,0.0,0.0,0.0,0.0,0.0,0.0,0.0,0.0,0.0,0.0,0.0,0.0,0.0,-9.9071,-9.9879,-10.0686,-10.1494,-10.1494,-10.1494,-10.1494,-10.1494,-10.1494,-10.1494,-10.1494,-10.1494,0.0,0.0,-10.1494,-10.1494,-10.1494,-10.1494,-10.1604,-10.3109,-10.3806,-10.41,-10.5605,-10.6302,-10.6376,-10.6376,-10.6376,-10.6376,-10.6376,-10.6376,-10.6376,-10.6376,-10.6376,-10.6376,-10.6376,-10.6376,-10.6376,-10.6376,-10.6376,-10.6376,-10.6376,-10.6376,-10.6376,-10.6376,-10.6376,-10.6376,-10.6376,-10.6376,-10.6376,-10.6376,-10.6376,-10.6376,-10.6376,-10.6376,-10.6376,-10.6376,-10.6376,-10.6376,-10.6376,-10.6376,-10.6376,-10.6376,-10.6376,-10.6497,-10.659,-10.659,-10.6894,-10.7811,-10.8502,-10.9265,-11.0214,-11.0176,-11.0613,-11.1522,-11.1522,-11.1522,-11.1522,-11.1522,-11.1522,-8.9417,-9.0592,-9.1803,-9.1803,-9.1803,-9.1803,-9.1803,-9.2464,-9.3345,-9.4116,-9.496,-9.5768,-9.6539,0.0,-9.6685,-9.6685,0.0,-9.6685,-9.6685,0.0,0.0,0.0,0.0,0.0,0.0,0.0,0.0,0.0,0.0,0.0,0.0,0.0,0.0,0.0,-9.9475,-10.0209,-10.1494,-10.1494,-10.1494,-10.1494,-10.1494,-10.1494,-10.1494,-10.1494,-10.1494,-10.1494,0.0,-10.1494,-10.1494,-10.1494,-10.1494,-10.1677,-10.3293,-10.388,-10.41,-10.5789,-10.6376,-10.6376,-10.6376,-10.6376,-10.6376,-10.6376,-10.6376,-10.6376,-10.6376,-10.6376,-10.6376,-10.6376,-10.6376,-10.6376,-10.6376,-10.6376,-10.6376,-10.6376,-10.6376,-10.6376,-10.6376,-10.6376,-10.6376,-10.6376,-10.6376,-10.6376,-10.6376,-10.6376,-10.6376,-10.6376,-10.6376,-10.6376,-10.6376,-10.6376,-10.6376,-10.6376,-10.6376,-10.6376,-10.6376,-10.6376,-10.6376,-10.6376,-10.6376,-10.6627,-10.6894,-10.7289,-10.7917,-10.8802,-10.8829,-10.9521,-11.0788,-11.0788,-11.1016,-11.1522,-11.1522,-11.1522,-8.9417,-9.0592,-9.1803,-9.1803,-9.1803,-9.1803,-9.1803,-9.2317,-9.3088,-9.4079,-9.4777,-9.5511,0.0,-9.6685,0.0,-9.6685,0.0,0.0,0.0,0.0,0.0,0.0,0.0,0.0,0.0,0.0,0.0,0.0,0.0,0.0,0.0,0.0,0.0,0.0,-9.9108,-9.9879,-10.1494,-10.1494,-10.1494,-10.1494,-10.1494,-10.1494,-10.1494,-10.1494,-10.1494,-10.1494,-10.1494,-10.1494,-10.1494,-10.1494,-10.1494,-10.1677,-10.3293,-10.41,-10.4614,-10.5899,-10.6376,-10.6376,-10.6376,-10.6376,-10.6376,-10.6376,-10.6376,-10.6376,-10.6376,-10.6376,-10.6376,-10.6376,-10.6376,-10.6376,-10.6376,-10.6376,-10.6376,-10.6376,-10.6376,-10.6376,-10.6376,-10.6376,-10.6376,-10.6376,-10.6376,-10.6376,-10.6376,-10.6376,-10.6376,-10.6376,-10.6376,-10.6376,-10.6376,-10.6376,-10.6376,-10.6376,-10.6376,-10.6376,-10.6376,-10.6376,-10.6376,-10.6376,-10.6376,-10.6376,-10.6376,-10.6376,-10.6763,-10.7591,-10.7591,-10.8405,-10.9865,-11.0123,-11.0474,-11.1185,-11.1396,-11.1522,-8.9417,-9.0592,-9.1803,-9.1803,-9.1803,-9.1803,-9.1803,-9.184,-9.2354,-9.3969,-9.4336,-9.485,-9.6392,-9.6685,-9.6685,-9.6685,0.0,0.0,0.0,0.0,0.0,0.0,0.0,0.0,0.0,0.0,0.0,0.0,0.0,0.0,0.0,0.0,0.0,0.0,-9.9108,-9.9879,-10.1494,-10.1494,-10.1494,-10.1494,-10.1494,-10.1494,-10.1494,-10.1494,-10.1494,-10.1494,-10.1494,-10.1494,-10.1494,-10.1494,-10.1494,-10.1677,-10.3293,-10.4871,-10.6192,-10.6376,-10.6376,-10.6376,-10.6376,-10.6376,-10.6376,-10.6376,-10.6376,-10.6376,-10.6376,-10.6376,-10.6376,-10.6376,-10.6376,-10.6376,-10.6376,-10.6376,-10.6376,-10.6376,-10.6376,-10.6376,-10.6376,-10.6376,-10.6376,-10.6376,-10.6376,-10.6376,-10.6376,-10.6376,-10.6376,-10.6376,-10.6376,-10.6376,-10.6376,-10.6376,-10.6376,-10.6376,-10.6376,-10.6376,-10.6376,-10.6376,-10.6376,-10.6376,-10.6376,-10.6376,-10.6376,-10.6376,-10.6763,-10.7591,-10.7591,-10.8096,-10.8956,-10.9809,-11.0229,-11.032,-11.1101,-11.1522,-8.9417,-9.0592,-9.1803,-9.1803,-9.1803,-9.1803,-9.1803,-9.2207,-9.2941,-9.4079,-9.4703,-9.5401,-9.6502,-9.6685,-9.6685,0.0,0.0,0.0,0.0,0.0,0.0,0.0,0.0,0.0,0.0,0.0,0.0,0.0,0.0,0.0,0.0,0.0,0.0,0.0,-9.9108,-9.9879,-10.1494,-10.1494,-10.1494,-10.1494,-10.1494,-10.1494,-10.1494,-10.1494,-10.1494,-10.1494,-10.1494,-10.1494,-10.1494,-10.1494,-10.1788,-10.2412,-10.4027,-10.5385,-10.6376,-10.6376,-10.6376,-10.6376,-10.6376,-10.6376,-10.6376,-10.6376,-10.6376,-10.6376,-10.6376,-10.6376,-10.6376,-10.6376,-10.6376,-10.6376,-10.6376,-10.6376,-10.6376,-10.6376,-10.6376,-10.6376,-10.6376,-10.6376,-10.6376,-10.6376,-10.6376,-10.6376,-10.6376,-10.6376,-10.6376,-10.6376,-10.6376,-10.6376,-10.6376,-10.6376,-10.6376,-10.6376,-10.6376,-10.6376,-10.6376,-10.6376,-10.6376,-10.6376,-10.6376,-10.6376,-10.6376,-10.6376,-10.647,-10.677,-10.6925,-10.7286,-10.8129,-10.8435,-10.8931,-10.9423,-11.0267,-11.0701,-8.9711,-9.0776,-9.1803,-9.1803,-9.1803,-9.1803,-9.1803,-9.2244,-9.3015,-9.4079,-9.5144,-9.6061,-9.6612,-9.6685,-9.6685,0.0,0.0,0.0,0.0,0.0,0.0,0.0,0.0,0.0,0.0,0.0,0.0,0.0,0.0,0.0,0.0,0.0,0.0,0.0,-9.9108,-9.9879,-10.1494,-10.1494,-10.1494,-10.1494,-10.1494,-10.1494,-10.1494,-10.1494,-10.1494,-10.1494,-10.1494,-10.1494,-10.1494,-10.1494,-10.2081,-10.3219,-10.4614,-10.5605,-10.6376,-10.6376,-10.6376,-10.6376,-10.6376,-10.6376,-10.6376,-10.6376,-10.6376,-10.6376,-10.6376,-10.6376,-10.6376,-10.6376,-10.6376,-10.6376,-10.6376,-10.6376,-10.6376,-10.6376,-10.6376,-10.6376,-10.6376,-10.6376,-10.6376,-10.6376,-10.6376,-10.6376,-10.6376,-10.6376,-10.6376,-10.6376,-10.6376,-10.6376,-10.6376,-10.6376,-10.6376,-10.6376,-10.6376,-10.6376,-10.6376,-10.6376,-10.6376,-10.6376,-10.6376,-10.6376,-10.6376,-10.6376,-10.6376,-10.6376,-10.6376,-10.6718,-10.7212,-10.7479,-10.7917,-10.8502,-10.9423,-10.9883,-9.0408,-9.1179,-9.1803,-9.1803,-9.1803,-9.1803,-9.1803,-9.1803,-9.2281,-9.3932,-9.5584,-9.6685,-9.6685,-9.6685,0.0,0.0,0.0,0.0,0.0,0.0,0.0,0.0,0.0,0.0,0.0,0.0,0.0,0.0,0.0,0.0,0.0,0.0,0.0,0.0,-9.9108,-9.9879,-10.1494,-10.1494,-10.1494,-10.1494,-10.1494,-10.1494,-10.1494,-10.1494,-10.1494,-10.1494,-10.1494,-10.1494,-10.1494,-10.1494,-10.2485,-10.399,-10.4798,-10.5605,-10.6376,-10.6376,-10.6376,-10.6376,-10.6376,-10.6376,-10.6376,-10.6376,-10.6376,-10.6376,-10.6376,-10.6376,-10.6376,-10.6376,-10.6376,-10.6376,-10.6376,-10.6376,-10.6376,-10.6376,-10.6376,-10.6376,-10.6376,-10.6376,-10.6376,-10.6376,-10.6376,-10.6376,-10.6376,-10.6376,-10.6376,-10.6376,-10.6376,-10.6376,-10.6376,-10.6376,-10.6376,-10.6376,-10.6376,-10.6376,-10.6376,-10.6376,-10.6376,-10.6376,-10.6376,-10.6376,-10.6376,-10.6376,-10.6376,-10.6376,-10.6376,-10.6376,-10.6376,-10.7172,-10.7591,-10.7591,-10.8539,-10.9401,-9.0408,-9.1179,0.0,-9.1803,0.0,-9.1803,-9.1803,-9.1803,-9.2281,-9.3932,-9.5584,-9.6685,-9.6685,-9.6685,0.0,0.0,0.0,0.0,0.0,0.0,0.0,0.0,0.0,0.0,0.0,0.0,0.0,0.0,0.0,0.0,0.0,0.0,0.0,0.0,-9.9108,-9.9879,-10.1494,-10.1494,-10.1494,-10.1494,-10.1494,-10.1494,-10.1494,-10.1494,-10.1494,-10.1494,-10.1494,-10.1494,-10.1567,-10.2705,-10.3476,-10.399,-10.5495,-10.6192,-10.6376,-10.6376,-10.6376,-10.6376,-10.6376,-10.6376,-10.6376,-10.6376,-10.6376,-10.6376,-10.6376,-10.6376,-10.6376,-10.6376,-10.6376,-10.6376,-10.6376,-10.6376,-10.6376,-10.6376,-10.6376,-10.6376,-10.6376,-10.6376,-10.6376,-10.6376,-10.6376,-10.6376,-10.6376,-10.6376,-10.6376,-10.6376,-10.6376,-10.6376,-10.6376,-10.6376,-10.6376,-10.6376,-10.6376,-10.6376,-10.6376,-10.6376,-10.6376,-10.6376,-10.6376,-10.6376,-10.6376,-10.6376,-10.6376,-10.6376,-10.6376,-10.6376,-10.6376,-10.6599,-10.68,-10.6763,-10.7628,-10.8092,-9.0849,0.0,0.0,-9.1803,-9.1803,-9.1877,-9.2244,-9.2574,-9.3161,-9.452,-9.5804,-9.6685,-9.6685,-9.6685,0.0,0.0,0.0,0.0,0.0,0.0,0.0,0.0,0.0,0.0,0.0,0.0,0.0,0.0,0.0,0.0,0.0,0.0,0.0,0.0,-9.9108,-9.9879,-10.1494,-10.1494,-10.1494,-10.1494,-10.1494,-10.1494,-10.1494,-10.1494,-10.1494,-10.1494,-10.1494,-10.1494,-10.1604,-10.3182,-10.388,-10.41,-10.5678,-10.6376,-10.6376,-10.6376,-10.6376,-10.6376,-10.6376,-10.6376,-10.6376,-10.6376,-10.6376,-10.6376,-10.6376,-10.6376,-10.6376,-10.6376,-10.6376,-10.6376,-10.6376,-10.6376,-10.6376,-10.6376,-10.6376,-10.6376,-10.6376,-10.6376,-10.6376,-10.6376,-10.6376,-10.6376,-10.6376,-10.6376,-10.6376,-10.6376,-10.6376,-10.6376,-10.6376,-10.6376,-10.6376,-10.6376,-10.6376,-10.6376,-10.6376,-10.6376,-10.6376,-10.6376,-10.6376,-10.6376,-10.6376,-10.6376,-10.6376,-10.6376,-10.6376,-10.6376,-10.6376,-10.6376,-10.6376,-10.6376,-10.6888,-10.7289,-9.1583,0.0,0.0,-9.1803,-9.1803,0.0,-9.2829,-9.3674,-9.452,-9.5327,0.0,-9.6685,-9.6685,-9.6685,0.0,0.0,0.0,0.0,0.0,0.0,0.0,0.0,0.0,0.0,0.0,0.0,0.0,0.0,0.0,0.0,0.0,0.0,0.0,0.0,-9.9108,-9.9879,-10.1494,-10.1494,-10.1494,0.0,-10.1494,-10.1494,-10.1494,-10.1494,-10.1494,-10.1494,-10.1494,-10.1494,-10.1604,-10.3182,-10.388,-10.41,-10.5678,-10.6376,-10.6376,-10.6376,-10.6376,-10.6376,-10.6376,-10.6376,-10.6376,-10.6376,-10.6376,-10.6376,-10.6376,-10.6376,-10.6376,-10.6376,-10.6376,-10.6376,-10.6376,-10.6376,-10.6376,-10.6376,-10.6376,-10.6376,-10.6376,-10.6376,-10.6376,-10.6376,-10.6376,-10.6376,-10.6376,-10.6376,-10.6376,-10.6376,-10.6376,-10.6376,-10.6376,-10.6376,-10.6376,-10.6376,-10.6376,-10.6376,-10.6376,-10.6376,-10.6376,-10.6376,-10.6376,-10.6376,-10.6376,-10.6376,-10.6376,-10.6376,-10.6376,-10.6376,-10.6376,-10.6376,-10.6376,-10.6376,-10.6376,-10.6844,-9.1583,-9.1803,0.0,0.0,-9.1803,-9.1912,-9.2409,-9.3431,-9.452,-9.5327,-9.6135,-9.6685,-9.6685,0.0,0.0,0.0,0.0,0.0,0.0,0.0,0.0,0.0,0.0,0.0,0.0,0.0,0.0,0.0,0.0,0.0,0.0,0.0,0.0,0.0,-9.9108,-9.9879,-10.1494,-10.1494,-10.1494,0.0,-10.1494,-10.1494,-10.1494,-10.1494,-10.1494,-10.1494,-10.1494,-10.1494,-10.1604,-10.3182,-10.388,-10.41,-10.5678,-10.6376,-10.6376,-10.6376,-10.6376,-10.6376,-10.6376,-10.6376,-10.6376,-10.6376,-10.6376,-10.6376,-10.6376,-10.6376,-10.6376,-10.6376,-10.6376,-10.6376,-10.6376,-10.6376,-10.6376,-10.6376,-10.6376,-10.6376,-10.6376,-10.6376,-10.6376,-10.6376,-10.6376,-10.6376,-10.6376,-10.6376,-10.6376,-10.6376,-10.6376,-10.6376,-10.6376,-10.6376,-10.6376,-10.6376,-10.6376,-10.6376,-10.6376,-10.6376,-10.6376,-10.6376,-10.6376,-10.6376,-10.6376,-10.6376,-10.6376,-10.6376,-10.6376,-10.6376,-10.6376,-10.6376,-10.6376,-10.6376,-10.6376,-10.6544,-9.1693,0.0,0.0,-9.1803,0.0,-9.2386,-9.2419,-9.3674,-9.4728,-9.4301,-9.5539,0.0,0.0,0.0,0.0,0.0,0.0,0.0,0.0,0.0,0.0,0.0,0.0,0.0,0.0,0.0,0.0,0.0,0.0,0.0,0.0,0.0,0.0,0.0,-9.9108,-9.9879,-10.1494,-10.1494,-10.1494,-10.1494,-10.1494,-10.1494,-10.1494,-10.1494,-10.1494,-10.1494,-10.1494,-10.1494,-10.1604,-10.3182,-10.388,-10.41,-10.5678,-10.6376,-10.6376,-10.6376,-10.6376,-10.6376,-10.6376,-10.6376,-10.6376,-10.6376,-10.6376,-10.6376,-10.6376,-10.6376,-10.6376,-10.6376,-10.6376,-10.6376,-10.6376,-10.6376,-10.6376,-10.6376,-10.6376,-10.6376,-10.6376,-10.6376,-10.6486,-10.689,-10.7,-10.7073,-10.7477,-10.7514,-10.7514,-10.7514,-10.7514,-10.7404,-10.7,-10.7,-10.678,-10.6413,-10.6376,-10.6376,-10.6376,-10.6376,-10.6376,-10.6376,-10.6376,-10.6376,-10.6376,-10.6376,-10.6376,-10.6376,-10.6376,-10.6376,-10.6376,-10.6376,-10.6376,-10.6376,-10.6376,-10.6376,-9.1803,0.0,-9.184,-9.1987,-9.2574,0.0,-9.2424,-9.3914,-9.4962,-9.3036,0.0,0.0,0.0,0.0,0.0,0.0,0.0,0.0,0.0,0.0,0.0,0.0,0.0,0.0,0.0,0.0,0.0,0.0,0.0,0.0,0.0,0.0,-9.7456,-9.9071,-9.9108,-9.9879,-10.1494,-10.1494,-10.1494,-10.1494,-10.1494,-10.1494,-10.1494,-10.1494,-10.1494,-10.1494,-10.1494,-10.1567,-10.1788,-10.3293,-10.399,-10.4284,-10.5789,-10.6376,-10.6376,-10.6376,-10.6376,-10.6376,-10.6376,-10.6376,-10.6376,-10.6376,-10.6376,-10.6376,-10.6376,-10.6376,-10.6376,-10.6376,-10.6376,-10.6376,-10.6376,-10.6486,-10.6596,-10.6596,-10.6706,-10.678,-10.6596,-10.6706,-10.7,-10.7697,-10.7771,-10.7991,-10.8688,-10.8799,-10.8799,-10.8799,-10.8799,-10.8578,-10.7881,-10.7771,-10.7587,-10.689,-10.6706,-10.6596,-10.6596,-10.6486,-10.6376,-10.6376,-10.6376,-10.6376,-10.6376,-10.6376,-10.6376,-10.6376,-10.6376,-10.6376,-10.6376,-10.6376,-10.6376,-10.6376,-10.6376,-10.6376,0.0,0.0,-9.1987,0.0,-9.3015,-9.2852,0.0,0.0,-9.4685,0.0,0.0,0.0,0.0,0.0,0.0,0.0,0.0,0.0,0.0,0.0,0.0,0.0,0.0,0.0,0.0,0.0,0.0,0.0,0.0,0.0,0.0,-9.6685,-9.7456,-9.9071,-9.9108,-9.9879,-10.1494,-10.1494,-10.1494,-10.1494,-10.1494,-10.1494,-10.1494,-10.1494,-10.1494,-10.1494,-10.1494,-10.1898,-10.2595,-10.3513,-10.432,-10.5018,-10.6009,-10.6376,-10.6376,-10.6376,-10.6376,-10.6376,-10.6376,-10.6376,-10.6376,-10.6376,-10.6376,-10.6376,-10.6376,-10.6376,-10.6376,-10.6376,-10.6376,-10.6376,-10.6376,-10.689,-10.7404,-10.7404,-10.7991,-10.8285,-10.7587,-10.7991,-10.8505,-10.8615,-10.8615,-10.8688,-10.8799,-10.8799,-10.8799,-10.8799,-10.8799,-10.8799,-10.8688,-10.8615,-10.8615,-10.8505,-10.7881,-10.7404,-10.7404,-10.678,-10.6376,-10.6376,-10.6376,-10.6376,-10.6376,-10.6376,-10.6376,-10.6376,-10.6376,-10.6376,-10.6376,-10.6376,-10.6376,-10.6376,-10.6376,-10.6376,-9.1803,-9.217,-9.2611,0.0,-9.3786,-9.3983,-9.2173,0.0,0.0,0.0,0.0,0.0,0.0,0.0,0.0,0.0,0.0,0.0,0.0,0.0,0.0,0.0,0.0,0.0,0.0,0.0,0.0,0.0,0.0,0.0,-9.6685,-9.6685,-9.7456,-9.9071,-9.9108,-9.9879,-10.1494,-10.1494,-10.1494,-10.1494,-10.1494,-10.1494,-10.1494,-10.1494,-10.1494,-10.1494,-10.1494,-10.1971,-10.2815,-10.3586,-10.4394,-10.5201,-10.6082,-10.6376,-10.6376,-10.6376,-10.6376,-10.6376,-10.6376,-10.6376,-10.6376,-10.6376,-10.6376,-10.6376,-10.6376,-10.6376,-10.6376,-10.6376,-10.6376,-10.6486,-10.7,-10.7294,-10.7697,-10.8175,-10.8909,-10.9386,-10.8982,-10.8872,-10.8909,-10.9386,-10.979,-11.012,-11.012,-11.012,-11.012,-11.012,-11.012,-11.001,-10.9496,-10.9496,-10.9312,-10.8799,-10.8505,-10.8285,-10.8285,-10.7881,-10.7587,-10.7073,-10.7073,-10.689,-10.6413,-10.6376,-10.6376,-10.6376,-10.6376,-10.6376,-10.6376,-10.6376,-10.6376,-10.6376,-10.6376,-10.6596,0.0,0.0,-9.2868,-9.3308,-9.4299,-9.4755,0.0,0.0,0.0,0.0,0.0,0.0,0.0,0.0,0.0,0.0,0.0,0.0,0.0,0.0,0.0,0.0,0.0,0.0,0.0,0.0,0.0,0.0,0.0,0.0,-9.6685,-9.6685,-9.7456,-9.9071,-9.9108,-9.9879,-10.1494,-10.1494,-10.1494,-10.1494,-10.1494,-10.1494,-10.1494,-10.1494,-10.1494,-10.1494,-10.1494,-10.2081,-10.3109,-10.3696,-10.4504,-10.5495,-10.6119,-10.6376,-10.6376,-10.6376,-10.6376,-10.6376,-10.6376,-10.6376,-10.6376,-10.6376,-10.6376,-10.6376,-10.6376,-10.6376,-10.6376,-10.6376,-10.6486,-10.678,-10.7404,-10.7881,-10.8395,-10.8982,-10.9679,-11.0304,-11.0304,-10.979,-10.9606,-11.0193,-11.0817,-11.1221,-11.1221,-11.1221,-11.1221,-11.1221,-11.1221,-11.1001,-11.0377,-11.0304,-11.0083,-10.9496,-10.9202,-10.9092,-10.9092,-10.8909,-10.8505,-10.7881,-10.7881,-10.7477,-10.6706,-10.6706,-10.6596,-10.6376,-10.6376,-10.6376,-10.6376,-10.6376,-10.6486,-10.6706,-10.6706,-10.7073,-9.1803,-9.184,0.0,-9.3822,0.0,0.0,0.0,0.0,0.0,0.0,0.0,0.0,0.0,0.0,0.0,0.0,0.0,0.0,0.0,0.0,0.0,0.0,0.0,0.0,0.0,0.0,0.0,0.0,0.0,0.0,-9.6685,-9.6685,-9.7456,-9.9071,-9.9108,-9.9879,-10.1494,-10.1494,-10.1494,-10.1494,-10.1494,-10.1494,-10.1494,-10.1494,-10.1494,-10.1494,-10.1494,-10.2375,-10.3806,-10.388,-10.4908,-10.6302,-10.6376,-10.6376,-10.6376,-10.6376,-10.6376,-10.6376,-10.6376,-10.6376,-10.6376,-10.6376,-10.6376,-10.6376,-10.6376,-10.6376,-10.6376,-10.6376,-10.689,-10.7477,-10.7587,-10.8688,-10.99,-10.99,-11.0597,-11.1111,-11.1111,-11.1111,-11.1111,-11.1111,-11.1221,-11.1221,-11.1221,-11.1221,-11.1221,-11.1221,-11.1221,-11.1221,-11.1111,-11.1111,-11.1111,-11.1111,-11.0414,-10.99,-10.99,-10.9202,-10.8799,-10.8688,-10.8688,-10.8395,-10.7587,-10.7477,-10.7183,-10.6376,-10.6376,-10.6376,-10.6376,-10.6376,-10.678,-10.7477,-10.7477,-10.7991,-9.2648,-9.3382,0.0,-9.4923,-9.5474,0.0,0.0,0.0,0.0,0.0,0.0,0.0,0.0,0.0,0.0,0.0,0.0,0.0,0.0,0.0,0.0,0.0,0.0,0.0,0.0,0.0,0.0,0.0,0.0,0.0,-9.6685,-9.6685,-9.7456,-9.9071,-9.9108,-9.9879,-10.1494,-10.1494,-10.1494,-10.1494,-10.1494,-10.1494,-10.1494,-10.1494,-10.1494,-10.1494,-10.1494,-10.2375,-10.388,-10.388,-10.4908,-10.6376,-10.6376,-10.6376,-10.6376,-10.6376,-10.6376,-10.6376,-10.6376,-10.6376,-10.6376,-10.6376,-10.6376,-10.6376,-10.6376,-10.6376,-10.6486,-10.7,-10.7367,-10.7771,-10.8872,-10.9569,-11.0083,-11.0597,-11.1001,-11.1221,-11.1221,-11.1221,-11.1221,-11.1221,-11.1221,-11.1221,-11.1221,-11.1221,-11.1221,-11.1221,-11.1221,-11.1221,-11.1221,-11.1221,-11.1221,-11.1221,-11.0891,-11.0781,-11.0781,-11.0487,-11.012,-10.9606,-10.9606,-10.9202,-10.8395,-10.8395,-10.8211,-10.7918,-10.7918,-10.7697,-10.7183,-10.7183,-10.7587,-10.8395,-10.8395,-10.8799,-9.3492,-9.4299,-9.518,0.0,0.0,0.0,0.0,0.0,0.0,0.0,0.0,0.0,0.0,0.0,0.0,0.0,0.0,0.0,0.0,0.0,0.0,0.0,0.0,0.0,0.0,0.0,0.0,0.0,0.0,0.0,-9.6685,-9.6685,-9.7456,-9.9071,-9.9622,-10.0393,-10.1494,-10.1494,-10.1494,-10.1494,-10.1494,-10.1494,-10.1494,-10.1494,-10.1494,-10.1494,-10.1788,-10.2705,-10.388,-10.388,-10.4908,-10.6376,-10.6376,-10.6376,-10.6376,-10.6376,-10.6376,-10.6376,-10.6376,-10.6376,-10.6376,-10.6376,-10.6376,-10.6376,-10.6376,-10.6596,-10.689,-10.7404,-10.7991,-10.8688,-10.9679,-11.0193,-11.0487,-11.1111,-11.1221,-11.1221,-11.1221,-11.1221,-11.1221,-11.1221,-11.1221,-11.1221,-11.1221,-11.1221,-11.1221,-11.1221,-11.1221,-11.1221,-11.1221,-11.1221,-11.1221,-11.1221,-11.1221,-11.1221,-11.1221,-11.1221,-11.1001,-11.0414,-11.0414,-11.001,-10.9202,-10.9202,-10.9092,-10.8799,-10.8799,-10.8688,-10.8395,-10.8101,-10.8395,-10.9202,-10.9202,-10.9606,0.0,0.0,0.0,-9.5364,0.0,0.0,0.0,0.0,0.0,0.0,0.0,0.0,0.0,0.0,0.0,0.0,0.0,0.0,0.0,0.0,0.0,0.0,0.0,0.0,0.0,0.0,0.0,0.0,0.0,-9.6685,-9.6685,-9.6759,-9.7493,-9.9071,-10.0686,-10.1494,-10.1494,-10.1494,-10.1494,-10.1494,-10.1494,-10.1494,-10.1494,-10.1494,-10.1494,-10.1494,-10.2375,-10.3182,-10.388,-10.388,-10.4908,-10.6376,-10.6376,-10.6376,-10.6376,-10.6376,-10.6376,-10.6376,-10.6376,-10.6376,-10.6376,-10.6376,-10.6376,-10.6376,-10.6413,-10.7,-10.7587,-10.7661,-10.8799,-10.9973,-10.9973,-11.0597,-11.1221,-11.1221,-11.1221,-11.1221,-11.1221,-11.1221,-11.1221,-11.1221,-11.1221,-11.1221,-11.1221,-11.1221,-11.1221,-11.1221,-11.1221,-11.1221,-11.1221,-11.1221,-11.1221,-11.1221,-11.1221,-11.1221,-11.1221,-11.1221,-11.1221,-11.1221,-11.1221,-11.0817,-11.0083,-10.9973,-10.9679,-10.8909,-10.8909,-10.9276,-10.9973,-10.9202,-10.9202,-10.9973,-10.9973,-11.0487,-9.3742,0.0,0.0,0.0,0.0,0.0,0.0,0.0,0.0,0.0,0.0,0.0,0.0,0.0,0.0,0.0,0.0,0.0,0.0,0.0,0.0,0.0,0.0,0.0,0.0,0.0,0.0,0.0,-9.6685,-9.6685,-9.6685,-9.7787,-9.8631,-9.9108,-10.0686,-10.1494,-10.1494,-10.1494,-10.1494,-10.1494,-10.1494,-10.1494,-10.1494,-10.1494,-10.1494,-10.1494,-10.2375,-10.3182,-10.3917,-10.4504,-10.5385,-10.6376,-10.6376,-10.6376,-10.6376,-10.6376,-10.6376,-10.6376,-10.6376,-10.6376,-10.6376,-10.6376,-10.6376,-10.6486,-10.7073,-10.7367,-10.7771,-10.8982,-10.9679,-11.0083,-11.0707,-11.1001,-11.1221,-11.1221,-11.1221,-11.1221,-11.1221,-11.1221,-11.1221,-11.1221,-11.1221,-11.1221,-11.1221,-11.1221,-11.1221,-11.1221,-11.1221,-11.1221,-11.1221,-11.1221,-11.1221,-11.1221,-11.1221,-11.1221,-11.1221,-11.1221,-11.1221,-11.1221,-11.1221,-11.1111,-11.0891,-11.0891,-11.0817,-11.0524,-11.0524,-11.0597,-11.0891,-11.0083,-11.0083,-11.0891,-11.0891,-11.1001,-9.412,-9.5385,-9.6685,-9.6685,0.0,0.0,-9.6685,-9.6685,0.0,0.0,0.0,0.0,0.0,0.0,0.0,0.0,0.0,0.0,0.0,0.0,0.0,0.0,0.0,0.0,0.0,0.0,0.0,0.0,-9.6685,-9.6685,-9.6685,-9.8227,-9.9108,-9.9108,-10.0686,-10.1494,-10.1494,-10.1494,-10.1494,-10.1494,-10.1494,-10.1494,-10.1494,-10.1494,-10.1494,-10.1567,-10.2705,-10.3513,-10.399,-10.5201,-10.5899,-10.6376,-10.6376,-10.6376,-10.6376,-10.6376,-10.6376,-10.6376,-10.6376,-10.6376,-10.6376,-10.6376,-10.6596,-10.7,-10.7477,-10.8064,-10.8799,-10.9679,-11.0193,-11.0597,-11.1111,-11.1221,-11.1221,-11.1221,-11.1221,-11.1221,-11.1221,-11.1221,-11.1221,-11.1221,-11.1221,-11.1221,-11.1221,-11.1221,-11.1221,-11.1221,-11.1221,-11.1221,-11.1221,-11.1221,-11.1221,-11.1221,-11.1221,-11.1221,-11.1221,-11.1221,-11.1221,-11.1221,-11.1221,-11.1221,-11.1221,-11.1221,-11.1221,-11.1221,-11.1221,-11.1221,-11.1221,-11.0707,-11.0707,-11.1221,-11.1221,-11.1221,-9.4336,-9.5384,-9.6494,-9.6494,-9.6608,0.0,-9.6685,-9.6685,-9.6416,0.0,0.0,0.0,0.0,0.0,0.0,0.0,0.0,0.0,0.0,0.0,0.0,0.0,0.0,0.0,0.0,0.0,-9.6685,-9.6685,-9.6685,-9.6685,-9.6685,-9.8227,-9.9108,-9.9108,-10.0686,-10.1494,-10.1494,-10.1494,-10.1494,-10.1494,-10.1494,-10.1494,-10.1494,-10.1494,-10.1494,-10.1567,-10.3182,-10.388,-10.399,-10.5678,-10.6376,-10.6376,-10.6376,-10.6376,-10.6376,-10.6376,-10.6376,-10.6376,-10.6376,-10.6376,-10.6376,-10.6376,-10.689,-10.7587,-10.7697,-10.8799,-10.9973,-11.0083,-11.0597,-11.1221,-11.1221,-11.1221,-11.1221,-11.1221,-11.1221,-11.1221,-11.1221,-11.1221,-11.1221,-11.1221,-11.1221,-11.1221,-11.1221,-11.1221,-11.1221,-11.1221,-11.1221,-11.1221,-11.1221,-11.1221,-11.1221,-11.1221,-11.1221,-11.1221,-11.1221,-11.1221,-11.1221,-11.1221,-11.1221,-11.1221,-11.1221,-11.1221,-11.1221,-11.1221,-11.1221,-11.1221,-11.1221,-11.1221,-11.1221,-11.1221,-11.1221,-11.1221,-9.1766,-9.3399,-9.5181,-9.5181,-9.5947,0.0,-9.6685,-9.6685,-9.6608,0.0,0.0,0.0,0.0,0.0,0.0,0.0,0.0,0.0,0.0,0.0,0.0,0.0,0.0,0.0,0.0,0.0,-9.6685,-9.6685,-9.6685,-9.6685,-9.6685,-9.8227,-9.9108,-9.9108,-10.0686,-10.1494,-10.1494,-10.1494,-10.1494,-10.1494,-10.1494,-10.1494,-10.1494,-10.1494,-10.1494,-10.1567,-10.3182,-10.388,-10.399,-10.5678,-10.6376,-10.6376,-10.6376,-10.6376,-10.6376,-10.6376,-10.6376,-10.6376,-10.6376,-10.6376,-10.6376,-10.6376,-10.689,-10.7697,-10.8395,-10.9202,-11.0083,-11.0817,-11.1111,-11.1221,-11.1221,-11.1221,-11.1221,-11.1221,-11.1221,-11.1221,-11.1221,-11.1221,-11.1221,-11.1221,-11.1221,-11.1221,-11.1221,-11.1221,-11.1221,-11.1221,-11.1221,-11.1221,-11.1221,-11.1221,-11.1221,-11.1221,-11.1221,-11.1221,-11.1221,-11.1221,-11.1221,-11.1221,-11.1221,-11.1221,-11.1221,-11.1221,-11.1221,-11.1221,-11.1221,-11.1221,-11.1221,-11.1221,-11.1221,-11.1221,-11.1221,-11.1221,-9.1022,-9.2418,-9.3855,-9.3855,-9.4336,0.0,0.0,-9.5265,-9.5181,0.0,0.0,0.0,0.0,0.0,0.0,0.0,0.0,0.0,0.0,0.0,0.0,0.0,0.0,0.0,0.0,0.0,-9.6685,-9.6685,-9.6685,-9.6685,-9.6685,-9.8227,-9.9108,-9.9108,-10.0686,-10.1494,-10.1494,-10.1494,-10.1494,-10.1494,-10.1494,-10.1494,-10.1494,-10.1494,-10.1494,-10.1567,-10.3182,-10.388,-10.399,-10.5678,-10.6376,-10.6376,-10.6376,-10.6376,-10.6376,-10.6376,-10.6376,-10.6376,-10.6376,-10.6376,-10.6486,-10.689,-10.7477,-10.8285,-10.9202,-10.9973,-11.0707,-11.1111,-11.1221,-11.1221,-11.1221,-11.1221,-11.1221,-11.1221,-11.1221,-11.1221,-11.1221,-11.1221,-11.1221,-11.1221,-11.1221,-11.1221,-11.1221,-11.1221,-11.1221,-11.1221,-11.1221,-11.1221,-11.1221,-11.1221,-11.1221,-11.1221,-11.1221,-11.1221,-11.1221,-11.1221,-11.1221,-11.1221,-11.1221,-11.1221,-11.1221,-11.1221,-11.1221,-11.1221,-11.1221,-11.1221,-11.1221,-11.1221,-11.1221,-11.1221,-11.1221,-11.1221,-9.0605,-9.1565,-9.2515,-9.2515,-9.2706,-9.3178,0.0,0.0,0.0,0.0,0.0,0.0,0.0,0.0,0.0,0.0,0.0,0.0,0.0,0.0,0.0,0.0,0.0,0.0,0.0,0.0,-9.6685,-9.6685,-9.6685,-9.6685,-9.6685,-9.8227,-9.9108,-9.9108,-10.0686,-10.1494,-10.1494,-10.1494,-10.1494,-10.1494,-10.1494,-10.1494,-10.1494,-10.1494,-10.1604,-10.1788,-10.3293,-10.399,-10.421,-10.5789,-10.6376,-10.6376,-10.6376,-10.6376,-10.6376,-10.6376,-10.6376,-10.6376,-10.6376,-10.6376,-10.6486,-10.7294,-10.8175,-10.9202,-10.9973,-11.0707,-11.1221,-11.1221,-11.1221,-11.1221,-11.1221,-11.1221,-11.1221,-11.1221,-11.1221,-11.1221,-11.1221,-11.1221,-11.1221,-11.1221,-11.1221,-11.1221,-11.1221,-11.1221,-11.1221,-11.1221,-11.1221,-11.1221,-11.1221,-11.1221,-11.1221,-11.1221,-11.1221,-11.1221,-11.1221,-11.1221,-11.1221,-11.1221,-11.1221,-11.1221,-11.1221,-11.1221,-11.1221,-11.1221,-11.1221,-11.1221,-11.1221,-11.1221,-11.1221,-11.1221,-11.1221,-11.1221,-8.9261,-9.025,-9.1194,-9.1194,-9.2028,-9.2896,-9.3084,0.0,-9.2991,-9.3271,0.0,0.0,0.0,0.0,0.0,0.0,0.0,0.0,0.0,0.0,0.0,0.0,0.0,0.0,0.0,0.0,0.0,-9.6685,-9.6685,-9.6685,-9.6685,-9.8227,-9.9108,-9.9108,-10.0686,-10.1494,-10.1494,-10.1494,-10.1494,-10.1494,-10.1494,-10.1494,-10.1494,-10.1494,-10.1898,-10.2595,-10.3513,-10.432,-10.5018,-10.6009,-10.6376,-10.6376,-10.6376,-10.6376,-10.6376,-10.6376,-10.6376,-10.6376,-10.6376,-10.6376,-10.6486,-10.7294,-10.8578,-11.001,-11.0817,-11.1111,-11.1221,-11.1221,-11.1221,-11.1221,-11.1221,-11.1221,-11.1221,-11.1221,-11.1221,-11.1221,-11.1221,-11.1221,-11.1221,-11.1221,-11.1221,-11.1221,-11.1221,-11.1221,-11.1221,-11.1221,-11.1221,-11.1221,-11.1221,-11.1221,-11.1221,-11.1221,-11.1221,-11.1221,-11.1221,-11.1221,-11.1221,-11.1221,-11.1221,-11.1221,-11.1221,-11.1221,-11.1221,-11.1221,-11.1221,-11.1221,-11.1221,-11.1221,-11.1221,-11.1221,-11.1221,-11.1221,-8.9072,-8.9483,-8.9853,-8.9853,-9.0323,-9.0884,-9.1665,-9.1194,-9.1091,-9.2611,0.0,0.0,0.0,0.0,0.0,0.0,-9.2896,0.0,0.0,0.0,0.0,0.0,0.0,0.0,0.0,0.0,0.0,0.0,0.0,-9.6685,-9.6685,-9.8227,-9.9108,-9.9108,-10.0686,-10.1494,-10.1494,-10.1494,-10.1494,-10.1494,-10.1494,-10.1494,-10.1494,-10.1494,-10.1898,-10.2705,-10.3586,-10.4394,-10.5201,-10.6009,-10.6376,-10.6376,-10.6376,-10.6376,-10.6376,-10.6376,-10.6376,-10.6376,-10.6376,-10.6376,-10.6596,-10.7881,-10.9386,-11.0781,-11.1111,-11.1221,-11.1221,-11.1221,-11.1221,-11.1221,-11.1221,-11.1221,-11.1221,-11.1221,-11.1221,-11.1221,-11.1221,-11.1221,-11.1221,-11.1221,-11.1221,-11.1221,-11.1221,-11.1221,-11.1221,-11.1221,-11.1221,-11.1221,-11.1221,-11.1221,-11.1221,-11.1221,-11.1221,-11.1221,-11.1221,-11.1221,-11.1221,-11.1221,-11.1221,-11.1221,-11.1221,-11.1221,-11.1221,-11.1221,-11.1221,-11.1221,-11.1221,-11.1221,-11.1221,-11.1221,-11.1221,-11.1221,-8.9072,-8.9072,-8.9072,-8.9072,-8.9072,-8.9373,-9.025,-8.9744,-8.9669,-9.1464,-9.1091,0.0,0.0,0.0,-9.1565,-9.0605,0.0,-9.2418,0.0,0.0,0.0,0.0,0.0,0.0,0.0,0.0,0.0,0.0,0.0,0.0,-9.6685,-9.8227,-9.9108,-9.9108,-10.0686,-10.1494,-10.1494,-10.1494,-10.1494,-10.1494,-10.1494,-10.1494,-10.1494,-10.1494,-10.2081,-10.3109,-10.3586,-10.4504,-10.5495,-10.6119,-10.6376,-10.6376,-10.6376,-10.6376,-10.6376,-10.6376,-10.6376,-10.6376,-10.6376,-10.6706,-10.7294,-10.8688,-11.0083,-11.1221,-11.1221,-11.1221,-11.1221,-11.1221,-11.1221,-11.1221,-11.1221,-11.1221,-11.1221,-11.1221,-11.1221,-11.1221,-11.1221,-11.1221,-11.1221,-11.1221,-11.1221,-11.1221,-11.1221,-11.1221,-11.1221,-11.1221,-11.1221,-11.1221,-11.1221,-11.1221,-11.1221,-11.1221,-11.1221,-11.1221,-11.1221,-11.1221,-11.1221,-11.1221,-11.1221,-11.1221,-11.1221,-11.1221,-11.1221,-11.1221,-11.1221,-11.1221,-11.1221,-11.1221,-11.1221,-11.1221,-11.1221,-11.1221,-8.9072,-8.9072,-8.9072,-8.9072,-8.9072,-8.9072,-8.9184,-8.9072,-8.9072,-8.9184,-8.9184,-8.9184,-8.9184,-8.9184,-8.9184,-8.9184,-9.025,0.0,0.0,0.0,0.0,0.0,0.0,0.0,0.0,0.0,0.0,0.0,0.0,0.0,-9.6685,-9.8227,-9.9108,-9.9108,-10.0686,-10.1494,-10.1494,-10.1494,-10.1494,-10.1494,-10.1494,-10.1494,-10.1494,-10.1494,-10.2375,-10.388,-10.388,-10.4798,-10.6376,-10.6376,-10.6376,-10.6376,-10.6376,-10.6376,-10.6376,-10.6376,-10.6376,-10.6376,-10.6376,-10.7404,-10.8909,-10.9679,-11.0487,-11.1221,-11.1221,-11.1221,-11.1221,-11.1221,-11.1221,-11.1221,-11.1221,-11.1221,-11.1221,-11.1221,-11.1221,-11.1221,-11.1221,-11.1221,-11.1221,-11.1221,-11.1221,-11.1221,-11.1221,-11.1221,-11.1221,-11.1221,-11.1221,-11.1221,-11.1221,-11.1221,-11.1221,-11.1221,-11.1221,-11.1221,-11.1221,-11.1221,-11.1221,-11.1221,-11.1221,-11.1221,-11.1221,-11.1221,-11.1221,-11.1221,-11.1221,-11.1221,-11.1221,-11.1221,-11.1221,-11.1221,-11.1221,-11.1221,0.0,0.0,-8.9072,-8.9072,0.0,-8.9072,-8.9072,-8.9072,-8.9072,-8.9072,-8.9072,-8.9072,-8.9072,-8.9072,-8.9072,-8.9072,-8.9483,-8.9744,0.0,-9.0815,0.0,0.0,0.0,0.0,0.0,0.0,0.0,0.0,0.0,0.0,0.0,-9.8227,-9.9108,-9.9108,-10.0686,-10.1494,-10.1494,-10.1494,-10.1131,-10.0188,-10.1095,-10.0975,-10.0188,-10.1095,-10.2375,-10.388,-10.388,-10.4871,-10.6376,-10.6376,-10.6376,-10.6376,-10.6376,-10.6376,-10.6376,-10.6376,-10.6376,-10.6486,-10.7,-10.7881,-10.8909,-10.9679,-11.0487,-11.1221,-11.1221,-11.1221,-11.1221,-11.1221,-11.1221,-11.1221,-11.1221,-11.1221,-11.1221,-11.1221,-11.1221,-11.1221,-11.1221,-11.1221,-11.1221,-11.1221,-11.1221,-11.1221,-11.1221,-11.1221,-11.1221,-11.1221,-11.1221,-11.1221,-11.1221,-11.1221,-11.1221,-11.1221,-11.1221,-11.1221,-11.1221,-11.1221,-11.1221,-11.1221,-11.1221,-11.1221,-11.1221,-11.1221,-11.1221,-11.1221,-11.1221,-11.1221,-11.1221,-11.1221,-11.1221,-11.1221,-11.1221,-11.1221,-8.9072,-8.9072,0.0,-8.9072,-8.9072,0.0,-8.9072,-8.9072,-8.9072,-8.9072,-8.9072,-8.9072,-8.9072,-8.9072,-8.9072,-8.9072,-8.9072,-8.9072,0.0,-8.9853,-9.0815,0.0,0.0,-9.3729,0.0,0.0,0.0,0.0,0.0,0.0,0.0,0.0,-9.9108,-9.9108,-10.0686,-10.1494,-10.1494,-10.1494,-10.0772,-9.9497,-10.0929,-10.0772,-9.9587,-10.0892,-10.2375,-10.388,-10.388,-10.4871,-10.6376,-10.6376,-10.6376,-10.6376,-10.6376,-10.6376,-10.6376,-10.6376,-10.6376,-10.6596,-10.7587,-10.8395,-10.8982,-11.0083,-11.0781,-11.1221,-11.1221,-11.1221,-11.1221,-11.1221,-11.1221,-11.1221,-11.1221,-11.1221,-11.1221,-11.1221,-11.1221,-11.1221,-11.1221,-11.1221,-11.1221,-11.1221,-11.1221,-11.1221,-11.1221,-11.1221,-11.1221,-11.1221,-11.1221,-11.1221,-11.1221,-11.1221,-11.1221,-11.1221,-11.1221,-11.1221,-11.1221,-11.1221,-11.1221,-11.1221,-11.1221,-11.1221,-11.1221,-11.1221,-11.1221,-11.1221,-11.1221,-11.1221,-11.1221,-11.1221,-11.1221,-11.1221,-11.1221,-11.1221]}]]